<?xml version="1.0" encoding="UTF-8" standalone="no" ?>
<gpx xmlns="http://www.topografix.com/GPX/1/1" xmlns:xsi="http://www.w3.org/2001/XMLSchema-instance" xsi:schemaLocation="http://www.topografix.com/GPX/1/1 http://www.topografix.com/GPX/1/1/gpx.xsd" version="1.1" creator="VisuGPX - https://www.visugpx.com">
  <metadata>
    <name>La Paille Genestelle</name>
    <desc><![CDATA[Si vous rajoutez 6 km (goudron..) possibilité d'un aller-retour au château de Craux. Attention, à la Paille peu de parking.. ]]></desc>
  </metadata>
  <trk>
    <name><![CDATA[2021-05-19 09:11:19]]></name>
    <extensions>
      <line xmlns="http://www.topografix.com/GPX/gpx_style/0/2">
        <color>0000FF</color>
        <opacity>0.59</opacity>
        <width>6</width>
      </line>
    </extensions>
    <trkseg>
      <trkpt lat="44.75605" lon="4.43524">
        <ele>914.71</ele>
        <time>2021-05-19T07:11:19.000Z</time>
      </trkpt>
      <trkpt lat="44.75605" lon="4.43521">
        <ele>915.27</ele>
        <time>2021-05-19T07:12:42.455Z</time>
      </trkpt>
      <trkpt lat="44.75608" lon="4.43505">
        <ele>915.08</ele>
        <time>2021-05-19T07:12:52.319Z</time>
      </trkpt>
      <trkpt lat="44.75609" lon="4.43489">
        <ele>915.74</ele>
        <time>2021-05-19T07:13:02.415Z</time>
      </trkpt>
      <trkpt lat="44.75612" lon="4.43474">
        <ele>916.56</ele>
        <time>2021-05-19T07:13:11.475Z</time>
      </trkpt>
      <trkpt lat="44.75611" lon="4.4346">
        <ele>916.28</ele>
        <time>2021-05-19T07:13:20.954Z</time>
      </trkpt>
      <trkpt lat="44.75609" lon="4.43446">
        <ele>916.23</ele>
        <time>2021-05-19T07:13:30.414Z</time>
      </trkpt>
      <trkpt lat="44.75615" lon="4.43431">
        <ele>915.08</ele>
        <time>2021-05-19T07:13:39.935Z</time>
      </trkpt>
      <trkpt lat="44.75622" lon="4.43418">
        <ele>914.01</ele>
        <time>2021-05-19T07:13:49.012Z</time>
      </trkpt>
      <trkpt lat="44.75628" lon="4.43405">
        <ele>912.61</ele>
        <time>2021-05-19T07:13:59.350Z</time>
      </trkpt>
      <trkpt lat="44.75625" lon="4.43393">
        <ele>912.85</ele>
        <time>2021-05-19T07:14:08.628Z</time>
      </trkpt>
      <trkpt lat="44.75625" lon="4.43391">
        <ele>914.78</ele>
        <time>2021-05-19T07:14:40.000Z</time>
      </trkpt>
      <trkpt lat="44.75623" lon="4.43387">
        <ele>915.19</ele>
        <time>2021-05-19T07:14:49.132Z</time>
      </trkpt>
      <trkpt lat="44.75622" lon="4.43368">
        <ele>915.1</ele>
        <time>2021-05-19T07:14:58.492Z</time>
      </trkpt>
      <trkpt lat="44.75622" lon="4.43351">
        <ele>915.87</ele>
        <time>2021-05-19T07:15:07.832Z</time>
      </trkpt>
      <trkpt lat="44.75622" lon="4.43334">
        <ele>915.53</ele>
        <time>2021-05-19T07:15:17.069Z</time>
      </trkpt>
      <trkpt lat="44.75624" lon="4.43318">
        <ele>913.73</ele>
        <time>2021-05-19T07:15:26.339Z</time>
      </trkpt>
      <trkpt lat="44.75623" lon="4.43302">
        <ele>914.56</ele>
        <time>2021-05-19T07:15:35.753Z</time>
      </trkpt>
      <trkpt lat="44.75623" lon="4.43285">
        <ele>915.97</ele>
        <time>2021-05-19T07:15:44.917Z</time>
      </trkpt>
      <trkpt lat="44.75623" lon="4.43268">
        <ele>915.88</ele>
        <time>2021-05-19T07:15:54.000Z</time>
      </trkpt>
      <trkpt lat="44.75624" lon="4.43252">
        <ele>915.91</ele>
        <time>2021-05-19T07:16:03.337Z</time>
      </trkpt>
      <trkpt lat="44.75626" lon="4.43236">
        <ele>916.23</ele>
        <time>2021-05-19T07:16:12.455Z</time>
      </trkpt>
      <trkpt lat="44.75626" lon="4.43219">
        <ele>917.64</ele>
        <time>2021-05-19T07:16:21.634Z</time>
      </trkpt>
      <trkpt lat="44.75628" lon="4.43201">
        <ele>918.06</ele>
        <time>2021-05-19T07:16:30.933Z</time>
      </trkpt>
      <trkpt lat="44.75628" lon="4.43185">
        <ele>920.13</ele>
        <time>2021-05-19T07:16:40.234Z</time>
      </trkpt>
      <trkpt lat="44.75629" lon="4.43168">
        <ele>920.05</ele>
        <time>2021-05-19T07:16:50.293Z</time>
      </trkpt>
      <trkpt lat="44.7563" lon="4.43153">
        <ele>920.37</ele>
        <time>2021-05-19T07:17:00.330Z</time>
      </trkpt>
      <trkpt lat="44.7563" lon="4.43137">
        <ele>920.74</ele>
        <time>2021-05-19T07:17:10.229Z</time>
      </trkpt>
      <trkpt lat="44.7563" lon="4.43123">
        <ele>921.72</ele>
        <time>2021-05-19T07:17:19.440Z</time>
      </trkpt>
      <trkpt lat="44.7563" lon="4.43107">
        <ele>922.66</ele>
        <time>2021-05-19T07:17:28.456Z</time>
      </trkpt>
      <trkpt lat="44.75631" lon="4.43092">
        <ele>923.62</ele>
        <time>2021-05-19T07:17:37.476Z</time>
      </trkpt>
      <trkpt lat="44.75632" lon="4.43078">
        <ele>925.16</ele>
        <time>2021-05-19T07:17:46.935Z</time>
      </trkpt>
      <trkpt lat="44.75634" lon="4.43073">
        <ele>925.86</ele>
        <time>2021-05-19T07:17:56.000Z</time>
      </trkpt>
      <trkpt lat="44.75634" lon="4.43066">
        <ele>924.15</ele>
        <time>2021-05-19T07:18:06.532Z</time>
      </trkpt>
      <trkpt lat="44.75634" lon="4.43051">
        <ele>924.23</ele>
        <time>2021-05-19T07:18:16.313Z</time>
      </trkpt>
      <trkpt lat="44.75634" lon="4.43048">
        <ele>925.14</ele>
        <time>2021-05-19T07:18:33.170Z</time>
      </trkpt>
      <trkpt lat="44.7563" lon="4.43052">
        <ele>925.49</ele>
        <time>2021-05-19T07:18:50.999Z</time>
      </trkpt>
      <trkpt lat="44.7563" lon="4.43054">
        <ele>925.4</ele>
        <time>2021-05-19T07:19:00.999Z</time>
      </trkpt>
      <trkpt lat="44.7563" lon="4.43051">
        <ele>925.95</ele>
        <time>2021-05-19T07:19:10.237Z</time>
      </trkpt>
      <trkpt lat="44.75635" lon="4.43036">
        <ele>926.32</ele>
        <time>2021-05-19T07:19:19.438Z</time>
      </trkpt>
      <trkpt lat="44.75634" lon="4.43027">
        <ele>927.01</ele>
        <time>2021-05-19T07:19:29.397Z</time>
      </trkpt>
      <trkpt lat="44.75631" lon="4.43011">
        <ele>927.58</ele>
        <time>2021-05-19T07:19:39.338Z</time>
      </trkpt>
      <trkpt lat="44.75633" lon="4.42995">
        <ele>928.98</ele>
        <time>2021-05-19T07:19:48.536Z</time>
      </trkpt>
      <trkpt lat="44.75637" lon="4.4298">
        <ele>929.1</ele>
        <time>2021-05-19T07:19:57.675Z</time>
      </trkpt>
      <trkpt lat="44.75642" lon="4.42964">
        <ele>929.45</ele>
        <time>2021-05-19T07:20:06.772Z</time>
      </trkpt>
      <trkpt lat="44.75647" lon="4.42953">
        <ele>930.04</ele>
        <time>2021-05-19T07:20:16.133Z</time>
      </trkpt>
      <trkpt lat="44.75653" lon="4.42942">
        <ele>930.2</ele>
        <time>2021-05-19T07:20:25.753Z</time>
      </trkpt>
      <trkpt lat="44.75653" lon="4.42925">
        <ele>930.67</ele>
        <time>2021-05-19T07:20:35.253Z</time>
      </trkpt>
      <trkpt lat="44.75656" lon="4.42911">
        <ele>931.57</ele>
        <time>2021-05-19T07:20:44.773Z</time>
      </trkpt>
      <trkpt lat="44.75658" lon="4.42898">
        <ele>931.87</ele>
        <time>2021-05-19T07:20:53.933Z</time>
      </trkpt>
      <trkpt lat="44.75659" lon="4.42885">
        <ele>932.51</ele>
        <time>2021-05-19T07:21:02.999Z</time>
      </trkpt>
      <trkpt lat="44.7566" lon="4.42871">
        <ele>933.1</ele>
        <time>2021-05-19T07:21:12.309Z</time>
      </trkpt>
      <trkpt lat="44.75661" lon="4.42856">
        <ele>932.31</ele>
        <time>2021-05-19T07:21:21.548Z</time>
      </trkpt>
      <trkpt lat="44.75664" lon="4.42838">
        <ele>933.14</ele>
        <time>2021-05-19T07:21:30.999Z</time>
      </trkpt>
      <trkpt lat="44.75664" lon="4.42825">
        <ele>934.87</ele>
        <time>2021-05-19T07:21:40.158Z</time>
      </trkpt>
      <trkpt lat="44.75661" lon="4.42809">
        <ele>938.91</ele>
        <time>2021-05-19T07:21:50.157Z</time>
      </trkpt>
      <trkpt lat="44.75661" lon="4.42795">
        <ele>938.7</ele>
        <time>2021-05-19T07:21:59.176Z</time>
      </trkpt>
      <trkpt lat="44.75664" lon="4.4278">
        <ele>939.88</ele>
        <time>2021-05-19T07:22:09.156Z</time>
      </trkpt>
      <trkpt lat="44.7567" lon="4.42766">
        <ele>938.82</ele>
        <time>2021-05-19T07:22:18.594Z</time>
      </trkpt>
      <trkpt lat="44.75675" lon="4.42752">
        <ele>941.32</ele>
        <time>2021-05-19T07:22:28.273Z</time>
      </trkpt>
      <trkpt lat="44.75679" lon="4.42739">
        <ele>939.44</ele>
        <time>2021-05-19T07:22:37.767Z</time>
      </trkpt>
      <trkpt lat="44.75683" lon="4.4273">
        <ele>940.43</ele>
        <time>2021-05-19T07:22:47.332Z</time>
      </trkpt>
      <trkpt lat="44.75685" lon="4.42714">
        <ele>942.08</ele>
        <time>2021-05-19T07:22:56.851Z</time>
      </trkpt>
      <trkpt lat="44.75688" lon="4.42699">
        <ele>943.49</ele>
        <time>2021-05-19T07:23:06.518Z</time>
      </trkpt>
      <trkpt lat="44.75693" lon="4.42684">
        <ele>944.55</ele>
        <time>2021-05-19T07:23:16.480Z</time>
      </trkpt>
      <trkpt lat="44.757" lon="4.42672">
        <ele>944.48</ele>
        <time>2021-05-19T07:23:26.059Z</time>
      </trkpt>
      <trkpt lat="44.757" lon="4.4266">
        <ele>945.06</ele>
        <time>2021-05-19T07:23:35.158Z</time>
      </trkpt>
      <trkpt lat="44.75692" lon="4.42649">
        <ele>945.22</ele>
        <time>2021-05-19T07:23:45.257Z</time>
      </trkpt>
      <trkpt lat="44.75684" lon="4.42636">
        <ele>947.2</ele>
        <time>2021-05-19T07:23:55.197Z</time>
      </trkpt>
      <trkpt lat="44.75674" lon="4.42625">
        <ele>947.49</ele>
        <time>2021-05-19T07:24:05.256Z</time>
      </trkpt>
      <trkpt lat="44.75666" lon="4.42616">
        <ele>947.24</ele>
        <time>2021-05-19T07:24:14.766Z</time>
      </trkpt>
      <trkpt lat="44.75665" lon="4.42602">
        <ele>948.55</ele>
        <time>2021-05-19T07:24:23.773Z</time>
      </trkpt>
      <trkpt lat="44.7567" lon="4.42587">
        <ele>949.88</ele>
        <time>2021-05-19T07:24:32.999Z</time>
      </trkpt>
      <trkpt lat="44.75675" lon="4.42576">
        <ele>949.87</ele>
        <time>2021-05-19T07:24:42.332Z</time>
      </trkpt>
      <trkpt lat="44.7568" lon="4.42563">
        <ele>951.3</ele>
        <time>2021-05-19T07:24:51.569Z</time>
      </trkpt>
      <trkpt lat="44.75685" lon="4.42547">
        <ele>951.96</ele>
        <time>2021-05-19T07:25:01.368Z</time>
      </trkpt>
      <trkpt lat="44.75688" lon="4.42532">
        <ele>952.33</ele>
        <time>2021-05-19T07:25:10.807Z</time>
      </trkpt>
      <trkpt lat="44.75689" lon="4.42516">
        <ele>954.31</ele>
        <time>2021-05-19T07:25:20.260Z</time>
      </trkpt>
      <trkpt lat="44.75688" lon="4.42502">
        <ele>955.11</ele>
        <time>2021-05-19T07:25:29.437Z</time>
      </trkpt>
      <trkpt lat="44.75689" lon="4.42492">
        <ele>954.27</ele>
        <time>2021-05-19T07:25:38.999Z</time>
      </trkpt>
      <trkpt lat="44.7569" lon="4.42493">
        <ele>955.28</ele>
        <time>2021-05-19T07:25:48.554Z</time>
      </trkpt>
      <trkpt lat="44.75689" lon="4.42473">
        <ele>955.71</ele>
        <time>2021-05-19T07:25:58.153Z</time>
      </trkpt>
      <trkpt lat="44.75688" lon="4.42456">
        <ele>955.97</ele>
        <time>2021-05-19T07:26:08.490Z</time>
      </trkpt>
      <trkpt lat="44.75688" lon="4.42443">
        <ele>958.23</ele>
        <time>2021-05-19T07:26:18.091Z</time>
      </trkpt>
      <trkpt lat="44.75686" lon="4.42437">
        <ele>958.82</ele>
        <time>2021-05-19T07:26:27.498Z</time>
      </trkpt>
      <trkpt lat="44.75688" lon="4.42418">
        <ele>959.19</ele>
        <time>2021-05-19T07:26:37.497Z</time>
      </trkpt>
      <trkpt lat="44.75687" lon="4.42404">
        <ele>959.58</ele>
        <time>2021-05-19T07:26:46.999Z</time>
      </trkpt>
      <trkpt lat="44.75687" lon="4.42403">
        <ele>960.07</ele>
        <time>2021-05-19T07:26:57.473Z</time>
      </trkpt>
      <trkpt lat="44.75686" lon="4.42401">
        <ele>960.28</ele>
        <time>2021-05-19T07:27:06.754Z</time>
      </trkpt>
      <trkpt lat="44.75687" lon="4.42388">
        <ele>961.13</ele>
        <time>2021-05-19T07:27:15.999Z</time>
      </trkpt>
      <trkpt lat="44.75687" lon="4.42389">
        <ele>961.38</ele>
        <time>2021-05-19T07:27:27.493Z</time>
      </trkpt>
      <trkpt lat="44.75694" lon="4.42378">
        <ele>961.77</ele>
        <time>2021-05-19T07:27:37.153Z</time>
      </trkpt>
      <trkpt lat="44.75699" lon="4.42367">
        <ele>964.3</ele>
        <time>2021-05-19T07:27:46.553Z</time>
      </trkpt>
      <trkpt lat="44.75703" lon="4.42354">
        <ele>966.18</ele>
        <time>2021-05-19T07:27:56.030Z</time>
      </trkpt>
      <trkpt lat="44.75712" lon="4.42344">
        <ele>964.82</ele>
        <time>2021-05-19T07:28:06.108Z</time>
      </trkpt>
      <trkpt lat="44.75723" lon="4.42341">
        <ele>966.49</ele>
        <time>2021-05-19T07:28:15.179Z</time>
      </trkpt>
      <trkpt lat="44.75732" lon="4.42341">
        <ele>965.99</ele>
        <time>2021-05-19T07:28:25.257Z</time>
      </trkpt>
      <trkpt lat="44.75743" lon="4.42343">
        <ele>965.95</ele>
        <time>2021-05-19T07:28:34.375Z</time>
      </trkpt>
      <trkpt lat="44.75755" lon="4.42343">
        <ele>965.38</ele>
        <time>2021-05-19T07:28:43.794Z</time>
      </trkpt>
      <trkpt lat="44.75767" lon="4.42346">
        <ele>965.47</ele>
        <time>2021-05-19T07:28:53.113Z</time>
      </trkpt>
      <trkpt lat="44.75781" lon="4.42345">
        <ele>969.23</ele>
        <time>2021-05-19T07:29:02.515Z</time>
      </trkpt>
      <trkpt lat="44.75785" lon="4.42342">
        <ele>967.8</ele>
        <time>2021-05-19T07:29:11.972Z</time>
      </trkpt>
      <trkpt lat="44.7579" lon="4.42324">
        <ele>968.19</ele>
        <time>2021-05-19T07:29:21.112Z</time>
      </trkpt>
      <trkpt lat="44.75793" lon="4.42309">
        <ele>968.57</ele>
        <time>2021-05-19T07:29:30.351Z</time>
      </trkpt>
      <trkpt lat="44.75794" lon="4.42305">
        <ele>968.39</ele>
        <time>2021-05-19T07:29:39.552Z</time>
      </trkpt>
      <trkpt lat="44.75799" lon="4.42289">
        <ele>970.01</ele>
        <time>2021-05-19T07:29:48.857Z</time>
      </trkpt>
      <trkpt lat="44.75801" lon="4.42273">
        <ele>970.6</ele>
        <time>2021-05-19T07:29:58.057Z</time>
      </trkpt>
      <trkpt lat="44.75804" lon="4.4226">
        <ele>970.36</ele>
        <time>2021-05-19T07:30:07.594Z</time>
      </trkpt>
      <trkpt lat="44.75804" lon="4.42251">
        <ele>971.51</ele>
        <time>2021-05-19T07:30:17.000Z</time>
      </trkpt>
      <trkpt lat="44.75806" lon="4.4225">
        <ele>971.5</ele>
        <time>2021-05-19T07:30:31.413Z</time>
      </trkpt>
      <trkpt lat="44.75814" lon="4.42234">
        <ele>971.38</ele>
        <time>2021-05-19T07:30:40.552Z</time>
      </trkpt>
      <trkpt lat="44.7582" lon="4.42218">
        <ele>971.91</ele>
        <time>2021-05-19T07:30:49.888Z</time>
      </trkpt>
      <trkpt lat="44.75824" lon="4.42204">
        <ele>972.45</ele>
        <time>2021-05-19T07:30:59.000Z</time>
      </trkpt>
      <trkpt lat="44.7583" lon="4.42188">
        <ele>973.13</ele>
        <time>2021-05-19T07:31:08.879Z</time>
      </trkpt>
      <trkpt lat="44.7584" lon="4.42175">
        <ele>972.31</ele>
        <time>2021-05-19T07:31:18.336Z</time>
      </trkpt>
      <trkpt lat="44.75848" lon="4.42164">
        <ele>972.94</ele>
        <time>2021-05-19T07:31:27.877Z</time>
      </trkpt>
      <trkpt lat="44.75857" lon="4.42158">
        <ele>973.19</ele>
        <time>2021-05-19T07:31:37.196Z</time>
      </trkpt>
      <trkpt lat="44.75867" lon="4.42154">
        <ele>970.59</ele>
        <time>2021-05-19T07:31:46.435Z</time>
      </trkpt>
      <trkpt lat="44.75878" lon="4.4215">
        <ele>973.02</ele>
        <time>2021-05-19T07:31:55.693Z</time>
      </trkpt>
      <trkpt lat="44.75887" lon="4.42144">
        <ele>972.58</ele>
        <time>2021-05-19T07:32:04.974Z</time>
      </trkpt>
      <trkpt lat="44.75899" lon="4.42139">
        <ele>971.88</ele>
        <time>2021-05-19T07:32:14.912Z</time>
      </trkpt>
      <trkpt lat="44.7591" lon="4.42136">
        <ele>974.48</ele>
        <time>2021-05-19T07:32:24.070Z</time>
      </trkpt>
      <trkpt lat="44.75921" lon="4.42132">
        <ele>975.76</ele>
        <time>2021-05-19T07:32:33.218Z</time>
      </trkpt>
      <trkpt lat="44.75933" lon="4.42128">
        <ele>975.59</ele>
        <time>2021-05-19T07:32:42.516Z</time>
      </trkpt>
      <trkpt lat="44.75947" lon="4.42123">
        <ele>978.94</ele>
        <time>2021-05-19T07:32:52.338Z</time>
      </trkpt>
      <trkpt lat="44.75953" lon="4.42119">
        <ele>980.15</ele>
        <time>2021-05-19T07:33:01.396Z</time>
      </trkpt>
      <trkpt lat="44.75962" lon="4.42111">
        <ele>979.17</ele>
        <time>2021-05-19T07:33:10.752Z</time>
      </trkpt>
      <trkpt lat="44.75971" lon="4.42106">
        <ele>978.84</ele>
        <time>2021-05-19T07:33:19.816Z</time>
      </trkpt>
      <trkpt lat="44.7598" lon="4.421">
        <ele>978.89</ele>
        <time>2021-05-19T07:33:29.315Z</time>
      </trkpt>
      <trkpt lat="44.75989" lon="4.42091">
        <ele>981.15</ele>
        <time>2021-05-19T07:33:39.094Z</time>
      </trkpt>
      <trkpt lat="44.75998" lon="4.42081">
        <ele>981.63</ele>
        <time>2021-05-19T07:33:48.293Z</time>
      </trkpt>
      <trkpt lat="44.76007" lon="4.42071">
        <ele>981.21</ele>
        <time>2021-05-19T07:33:58.210Z</time>
      </trkpt>
      <trkpt lat="44.76016" lon="4.42063">
        <ele>981.44</ele>
        <time>2021-05-19T07:34:08.130Z</time>
      </trkpt>
      <trkpt lat="44.76026" lon="4.42055">
        <ele>980.54</ele>
        <time>2021-05-19T07:34:17.349Z</time>
      </trkpt>
      <trkpt lat="44.76036" lon="4.42047">
        <ele>982.31</ele>
        <time>2021-05-19T07:34:27.009Z</time>
      </trkpt>
      <trkpt lat="44.76046" lon="4.42043">
        <ele>983.29</ele>
        <time>2021-05-19T07:34:36.208Z</time>
      </trkpt>
      <trkpt lat="44.76056" lon="4.42036">
        <ele>982.38</ele>
        <time>2021-05-19T07:34:45.330Z</time>
      </trkpt>
      <trkpt lat="44.76067" lon="4.42032">
        <ele>983.15</ele>
        <time>2021-05-19T07:34:54.808Z</time>
      </trkpt>
      <trkpt lat="44.76079" lon="4.42027">
        <ele>983.57</ele>
        <time>2021-05-19T07:35:04.287Z</time>
      </trkpt>
      <trkpt lat="44.76089" lon="4.42022">
        <ele>983.31</ele>
        <time>2021-05-19T07:35:13.357Z</time>
      </trkpt>
      <trkpt lat="44.76099" lon="4.42013">
        <ele>984.12</ele>
        <time>2021-05-19T07:35:23.138Z</time>
      </trkpt>
      <trkpt lat="44.76108" lon="4.42005">
        <ele>985.56</ele>
        <time>2021-05-19T07:35:32.317Z</time>
      </trkpt>
      <trkpt lat="44.76116" lon="4.41993">
        <ele>985.34</ele>
        <time>2021-05-19T07:35:41.535Z</time>
      </trkpt>
      <trkpt lat="44.76119" lon="4.41978">
        <ele>986.92</ele>
        <time>2021-05-19T07:35:50.914Z</time>
      </trkpt>
      <trkpt lat="44.76124" lon="4.41963">
        <ele>988.87</ele>
        <time>2021-05-19T07:36:00.354Z</time>
      </trkpt>
      <trkpt lat="44.7613" lon="4.41952">
        <ele>989.3</ele>
        <time>2021-05-19T07:36:09.437Z</time>
      </trkpt>
      <trkpt lat="44.76135" lon="4.4194">
        <ele>991.6</ele>
        <time>2021-05-19T07:36:19.073Z</time>
      </trkpt>
      <trkpt lat="44.76137" lon="4.41925">
        <ele>992.96</ele>
        <time>2021-05-19T07:36:28.411Z</time>
      </trkpt>
      <trkpt lat="44.76142" lon="4.41909">
        <ele>994.48</ele>
        <time>2021-05-19T07:36:38.192Z</time>
      </trkpt>
      <trkpt lat="44.76145" lon="4.41894">
        <ele>995.68</ele>
        <time>2021-05-19T07:36:48.131Z</time>
      </trkpt>
      <trkpt lat="44.76149" lon="4.41879">
        <ele>995.29</ele>
        <time>2021-05-19T07:36:57.370Z</time>
      </trkpt>
      <trkpt lat="44.76152" lon="4.41873">
        <ele>995.81</ele>
        <time>2021-05-19T07:37:06.390Z</time>
      </trkpt>
      <trkpt lat="44.76155" lon="4.41857">
        <ele>995.98</ele>
        <time>2021-05-19T07:37:15.709Z</time>
      </trkpt>
      <trkpt lat="44.76159" lon="4.41842">
        <ele>997.45</ele>
        <time>2021-05-19T07:37:25.118Z</time>
      </trkpt>
      <trkpt lat="44.76164" lon="4.41827">
        <ele>996.86</ele>
        <time>2021-05-19T07:37:34.376Z</time>
      </trkpt>
      <trkpt lat="44.7617" lon="4.41812">
        <ele>997.9</ele>
        <time>2021-05-19T07:37:44.236Z</time>
      </trkpt>
      <trkpt lat="44.76176" lon="4.41802">
        <ele>998.17</ele>
        <time>2021-05-19T07:37:53.395Z</time>
      </trkpt>
      <trkpt lat="44.76183" lon="4.4179">
        <ele>999.93</ele>
        <time>2021-05-19T07:38:02.634Z</time>
      </trkpt>
      <trkpt lat="44.7619" lon="4.41778">
        <ele>1001.07</ele>
        <time>2021-05-19T07:38:11.772Z</time>
      </trkpt>
      <trkpt lat="44.76197" lon="4.41765">
        <ele>1002.27</ele>
        <time>2021-05-19T07:38:21.111Z</time>
      </trkpt>
      <trkpt lat="44.76204" lon="4.41752">
        <ele>1002.27</ele>
        <time>2021-05-19T07:38:30.455Z</time>
      </trkpt>
      <trkpt lat="44.76213" lon="4.41741">
        <ele>1002.94</ele>
        <time>2021-05-19T07:38:39.607Z</time>
      </trkpt>
      <trkpt lat="44.76225" lon="4.41731">
        <ele>1003.15</ele>
        <time>2021-05-19T07:38:49.718Z</time>
      </trkpt>
      <trkpt lat="44.76234" lon="4.41719">
        <ele>1003.18</ele>
        <time>2021-05-19T07:38:59.179Z</time>
      </trkpt>
      <trkpt lat="44.7624" lon="4.41704">
        <ele>1004.68</ele>
        <time>2021-05-19T07:39:08.197Z</time>
      </trkpt>
      <trkpt lat="44.76243" lon="4.41688">
        <ele>1006.49</ele>
        <time>2021-05-19T07:39:17.296Z</time>
      </trkpt>
      <trkpt lat="44.76247" lon="4.41671">
        <ele>1008.03</ele>
        <time>2021-05-19T07:39:26.974Z</time>
      </trkpt>
      <trkpt lat="44.76249" lon="4.41654">
        <ele>1009.32</ele>
        <time>2021-05-19T07:39:36.034Z</time>
      </trkpt>
      <trkpt lat="44.76252" lon="4.41639">
        <ele>1009.58</ele>
        <time>2021-05-19T07:39:45.112Z</time>
      </trkpt>
      <trkpt lat="44.76253" lon="4.41622">
        <ele>1011.29</ele>
        <time>2021-05-19T07:39:54.192Z</time>
      </trkpt>
      <trkpt lat="44.76257" lon="4.41605">
        <ele>1011.88</ele>
        <time>2021-05-19T07:40:03.391Z</time>
      </trkpt>
      <trkpt lat="44.76261" lon="4.41589">
        <ele>1013.4</ele>
        <time>2021-05-19T07:40:12.552Z</time>
      </trkpt>
      <trkpt lat="44.76264" lon="4.41573">
        <ele>1014.66</ele>
        <time>2021-05-19T07:40:21.833Z</time>
      </trkpt>
      <trkpt lat="44.76271" lon="4.41562">
        <ele>1016.14</ele>
        <time>2021-05-19T07:40:30.999Z</time>
      </trkpt>
      <trkpt lat="44.76275" lon="4.41562">
        <ele>1015.69</ele>
        <time>2021-05-19T07:40:40.390Z</time>
      </trkpt>
      <trkpt lat="44.76279" lon="4.41556">
        <ele>1015.23</ele>
        <time>2021-05-19T07:40:49.949Z</time>
      </trkpt>
      <trkpt lat="44.76286" lon="4.41541">
        <ele>1015.62</ele>
        <time>2021-05-19T07:40:59.349Z</time>
      </trkpt>
      <trkpt lat="44.76292" lon="4.41525">
        <ele>1016.09</ele>
        <time>2021-05-19T07:41:08.575Z</time>
      </trkpt>
      <trkpt lat="44.76301" lon="4.41512">
        <ele>1016.74</ele>
        <time>2021-05-19T07:41:18.276Z</time>
      </trkpt>
      <trkpt lat="44.76306" lon="4.41498">
        <ele>1018.63</ele>
        <time>2021-05-19T07:41:27.334Z</time>
      </trkpt>
      <trkpt lat="44.76311" lon="4.41484">
        <ele>1020.32</ele>
        <time>2021-05-19T07:41:36.555Z</time>
      </trkpt>
      <trkpt lat="44.76318" lon="4.41471">
        <ele>1019.69</ele>
        <time>2021-05-19T07:41:45.752Z</time>
      </trkpt>
      <trkpt lat="44.76326" lon="4.41457">
        <ele>1021.18</ele>
        <time>2021-05-19T07:41:55.053Z</time>
      </trkpt>
      <trkpt lat="44.7633" lon="4.41442">
        <ele>1021.7</ele>
        <time>2021-05-19T07:42:04.511Z</time>
      </trkpt>
      <trkpt lat="44.7633" lon="4.41425">
        <ele>1022.82</ele>
        <time>2021-05-19T07:42:14.110Z</time>
      </trkpt>
      <trkpt lat="44.7633" lon="4.41411">
        <ele>1023.03</ele>
        <time>2021-05-19T07:42:23.111Z</time>
      </trkpt>
      <trkpt lat="44.76329" lon="4.41397">
        <ele>1023.95</ele>
        <time>2021-05-19T07:42:32.481Z</time>
      </trkpt>
      <trkpt lat="44.76327" lon="4.41382">
        <ele>1025.67</ele>
        <time>2021-05-19T07:42:41.829Z</time>
      </trkpt>
      <trkpt lat="44.76323" lon="4.41366">
        <ele>1027.22</ele>
        <time>2021-05-19T07:42:51.496Z</time>
      </trkpt>
      <trkpt lat="44.76322" lon="4.41349">
        <ele>1028.07</ele>
        <time>2021-05-19T07:43:01.018Z</time>
      </trkpt>
      <trkpt lat="44.76324" lon="4.41332">
        <ele>1029.87</ele>
        <time>2021-05-19T07:43:10.437Z</time>
      </trkpt>
      <trkpt lat="44.76318" lon="4.41319">
        <ele>1031.53</ele>
        <time>2021-05-19T07:43:19.765Z</time>
      </trkpt>
      <trkpt lat="44.76311" lon="4.41307">
        <ele>1031.76</ele>
        <time>2021-05-19T07:43:29.115Z</time>
      </trkpt>
      <trkpt lat="44.76307" lon="4.41293">
        <ele>1031.32</ele>
        <time>2021-05-19T07:43:38.435Z</time>
      </trkpt>
      <trkpt lat="44.76301" lon="4.41278">
        <ele>1032.3</ele>
        <time>2021-05-19T07:43:47.652Z</time>
      </trkpt>
      <trkpt lat="44.76295" lon="4.41264">
        <ele>1032.48</ele>
        <time>2021-05-19T07:43:56.933Z</time>
      </trkpt>
      <trkpt lat="44.7629" lon="4.4125">
        <ele>1032.97</ele>
        <time>2021-05-19T07:44:06.152Z</time>
      </trkpt>
      <trkpt lat="44.76284" lon="4.41237">
        <ele>1031.74</ele>
        <time>2021-05-19T07:44:15.369Z</time>
      </trkpt>
      <trkpt lat="44.76277" lon="4.41224">
        <ele>1033.3</ele>
        <time>2021-05-19T07:44:24.810Z</time>
      </trkpt>
      <trkpt lat="44.76274" lon="4.41208">
        <ele>1033.6</ele>
        <time>2021-05-19T07:44:34.108Z</time>
      </trkpt>
      <trkpt lat="44.76269" lon="4.41193">
        <ele>1033.65</ele>
        <time>2021-05-19T07:44:43.376Z</time>
      </trkpt>
      <trkpt lat="44.76265" lon="4.41178">
        <ele>1034.45</ele>
        <time>2021-05-19T07:44:53.056Z</time>
      </trkpt>
      <trkpt lat="44.76261" lon="4.41163">
        <ele>1035.02</ele>
        <time>2021-05-19T07:45:02.096Z</time>
      </trkpt>
      <trkpt lat="44.76257" lon="4.41148">
        <ele>1035.29</ele>
        <time>2021-05-19T07:45:11.413Z</time>
      </trkpt>
      <trkpt lat="44.76254" lon="4.41134">
        <ele>1035.97</ele>
        <time>2021-05-19T07:45:20.693Z</time>
      </trkpt>
      <trkpt lat="44.76249" lon="4.41118">
        <ele>1035.29</ele>
        <time>2021-05-19T07:45:30.131Z</time>
      </trkpt>
      <trkpt lat="44.76247" lon="4.41102">
        <ele>1035.41</ele>
        <time>2021-05-19T07:45:39.352Z</time>
      </trkpt>
      <trkpt lat="44.76245" lon="4.41085">
        <ele>1036.91</ele>
        <time>2021-05-19T07:45:49.050Z</time>
      </trkpt>
      <trkpt lat="44.76245" lon="4.41068">
        <ele>1038.25</ele>
        <time>2021-05-19T07:45:58.179Z</time>
      </trkpt>
      <trkpt lat="44.76247" lon="4.41054">
        <ele>1039.06</ele>
        <time>2021-05-19T07:46:07.420Z</time>
      </trkpt>
      <trkpt lat="44.76251" lon="4.4104">
        <ele>1040.22</ele>
        <time>2021-05-19T07:46:16.817Z</time>
      </trkpt>
      <trkpt lat="44.76257" lon="4.41025">
        <ele>1041.89</ele>
        <time>2021-05-19T07:46:26.138Z</time>
      </trkpt>
      <trkpt lat="44.76263" lon="4.41012">
        <ele>1042.53</ele>
        <time>2021-05-19T07:46:35.416Z</time>
      </trkpt>
      <trkpt lat="44.7627" lon="4.40999">
        <ele>1043.47</ele>
        <time>2021-05-19T07:46:44.493Z</time>
      </trkpt>
      <trkpt lat="44.76279" lon="4.40988">
        <ele>1044.35</ele>
        <time>2021-05-19T07:46:53.792Z</time>
      </trkpt>
      <trkpt lat="44.76288" lon="4.4098">
        <ele>1045.4</ele>
        <time>2021-05-19T07:47:03.073Z</time>
      </trkpt>
      <trkpt lat="44.76297" lon="4.40978">
        <ele>1046.72</ele>
        <time>2021-05-19T07:47:12.512Z</time>
      </trkpt>
      <trkpt lat="44.76295" lon="4.40981">
        <ele>1044.72</ele>
        <time>2021-05-19T07:47:50.999Z</time>
      </trkpt>
      <trkpt lat="44.76297" lon="4.40981">
        <ele>1044.39</ele>
        <time>2021-05-19T07:48:05.999Z</time>
      </trkpt>
      <trkpt lat="44.76308" lon="4.40977">
        <ele>1045.37</ele>
        <time>2021-05-19T07:48:16.254Z</time>
      </trkpt>
      <trkpt lat="44.76316" lon="4.40976">
        <ele>1046.33</ele>
        <time>2021-05-19T07:48:26.295Z</time>
      </trkpt>
      <trkpt lat="44.76327" lon="4.40974">
        <ele>1047.47</ele>
        <time>2021-05-19T07:48:35.462Z</time>
      </trkpt>
      <trkpt lat="44.76337" lon="4.40972">
        <ele>1049.81</ele>
        <time>2021-05-19T07:48:45.154Z</time>
      </trkpt>
      <trkpt lat="44.76339" lon="4.4097">
        <ele>1049.69</ele>
        <time>2021-05-19T07:49:01.513Z</time>
      </trkpt>
      <trkpt lat="44.7635" lon="4.40968">
        <ele>1050.14</ele>
        <time>2021-05-19T07:49:10.972Z</time>
      </trkpt>
      <trkpt lat="44.76359" lon="4.40968">
        <ele>1050.33</ele>
        <time>2021-05-19T07:49:20.292Z</time>
      </trkpt>
      <trkpt lat="44.7637" lon="4.40967">
        <ele>1051.17</ele>
        <time>2021-05-19T07:49:29.370Z</time>
      </trkpt>
      <trkpt lat="44.76379" lon="4.40963">
        <ele>1051.87</ele>
        <time>2021-05-19T07:49:38.999Z</time>
      </trkpt>
      <trkpt lat="44.76389" lon="4.40965">
        <ele>1052.79</ele>
        <time>2021-05-19T07:49:48.328Z</time>
      </trkpt>
      <trkpt lat="44.76398" lon="4.40968">
        <ele>1053.48</ele>
        <time>2021-05-19T07:49:57.457Z</time>
      </trkpt>
      <trkpt lat="44.76404" lon="4.40974">
        <ele>1052.63</ele>
        <time>2021-05-19T07:50:06.556Z</time>
      </trkpt>
      <trkpt lat="44.76417" lon="4.40982">
        <ele>1054.68</ele>
        <time>2021-05-19T07:50:15.876Z</time>
      </trkpt>
      <trkpt lat="44.76426" lon="4.40997">
        <ele>1055.6</ele>
        <time>2021-05-19T07:50:25.095Z</time>
      </trkpt>
      <trkpt lat="44.76433" lon="4.41014">
        <ele>1056.84</ele>
        <time>2021-05-19T07:50:34.174Z</time>
      </trkpt>
      <trkpt lat="44.76439" lon="4.41024">
        <ele>1056.61</ele>
        <time>2021-05-19T07:50:43.791Z</time>
      </trkpt>
      <trkpt lat="44.76447" lon="4.41034">
        <ele>1059.04</ele>
        <time>2021-05-19T07:50:53.432Z</time>
      </trkpt>
      <trkpt lat="44.76453" lon="4.41047">
        <ele>1059.57</ele>
        <time>2021-05-19T07:51:02.489Z</time>
      </trkpt>
      <trkpt lat="44.76458" lon="4.41063">
        <ele>1061.72</ele>
        <time>2021-05-19T07:51:12.377Z</time>
      </trkpt>
      <trkpt lat="44.76468" lon="4.41072">
        <ele>1064.59</ele>
        <time>2021-05-19T07:51:21.516Z</time>
      </trkpt>
      <trkpt lat="44.76476" lon="4.41079">
        <ele>1064.52</ele>
        <time>2021-05-19T07:51:30.896Z</time>
      </trkpt>
      <trkpt lat="44.76483" lon="4.41086">
        <ele>1065.04</ele>
        <time>2021-05-19T07:51:40.436Z</time>
      </trkpt>
      <trkpt lat="44.76494" lon="4.41096">
        <ele>1066.24</ele>
        <time>2021-05-19T07:51:50.476Z</time>
      </trkpt>
      <trkpt lat="44.76503" lon="4.41105">
        <ele>1067.33</ele>
        <time>2021-05-19T07:51:59.892Z</time>
      </trkpt>
      <trkpt lat="44.76514" lon="4.41112">
        <ele>1069.19</ele>
        <time>2021-05-19T07:52:09.212Z</time>
      </trkpt>
      <trkpt lat="44.76524" lon="4.41121">
        <ele>1069.35</ele>
        <time>2021-05-19T07:52:19.151Z</time>
      </trkpt>
      <trkpt lat="44.76533" lon="4.41126">
        <ele>1070.48</ele>
        <time>2021-05-19T07:52:28.220Z</time>
      </trkpt>
      <trkpt lat="44.76539" lon="4.41129">
        <ele>1070.3</ele>
        <time>2021-05-19T07:52:37.259Z</time>
      </trkpt>
      <trkpt lat="44.76546" lon="4.41125">
        <ele>1070.98</ele>
        <time>2021-05-19T07:52:46.474Z</time>
      </trkpt>
      <trkpt lat="44.76548" lon="4.41129">
        <ele>1070.86</ele>
        <time>2021-05-19T07:52:56.000Z</time>
      </trkpt>
      <trkpt lat="44.76548" lon="4.41127">
        <ele>1070.53</ele>
        <time>2021-05-19T07:53:12.000Z</time>
      </trkpt>
      <trkpt lat="44.76556" lon="4.41121">
        <ele>1071.43</ele>
        <time>2021-05-19T07:53:21.451Z</time>
      </trkpt>
      <trkpt lat="44.76567" lon="4.41119">
        <ele>1071.91</ele>
        <time>2021-05-19T07:53:30.790Z</time>
      </trkpt>
      <trkpt lat="44.76578" lon="4.41116">
        <ele>1073.01</ele>
        <time>2021-05-19T07:53:40.272Z</time>
      </trkpt>
      <trkpt lat="44.76586" lon="4.41105">
        <ele>1073.48</ele>
        <time>2021-05-19T07:53:49.311Z</time>
      </trkpt>
      <trkpt lat="44.76594" lon="4.41092">
        <ele>1076.12</ele>
        <time>2021-05-19T07:53:58.798Z</time>
      </trkpt>
      <trkpt lat="44.76598" lon="4.41078">
        <ele>1076.36</ele>
        <time>2021-05-19T07:54:07.898Z</time>
      </trkpt>
      <trkpt lat="44.76605" lon="4.41067">
        <ele>1075.85</ele>
        <time>2021-05-19T07:54:17.417Z</time>
      </trkpt>
      <trkpt lat="44.76614" lon="4.41059">
        <ele>1075.32</ele>
        <time>2021-05-19T07:54:26.435Z</time>
      </trkpt>
      <trkpt lat="44.76622" lon="4.4105">
        <ele>1078.4</ele>
        <time>2021-05-19T07:54:35.953Z</time>
      </trkpt>
      <trkpt lat="44.7663" lon="4.41041">
        <ele>1078.63</ele>
        <time>2021-05-19T07:54:45.372Z</time>
      </trkpt>
      <trkpt lat="44.76639" lon="4.41032">
        <ele>1080.12</ele>
        <time>2021-05-19T07:54:55.170Z</time>
      </trkpt>
      <trkpt lat="44.76648" lon="4.41025">
        <ele>1084.51</ele>
        <time>2021-05-19T07:55:05.169Z</time>
      </trkpt>
      <trkpt lat="44.76654" lon="4.41018">
        <ele>1084.12</ele>
        <time>2021-05-19T07:55:15.359Z</time>
      </trkpt>
      <trkpt lat="44.76662" lon="4.4101">
        <ele>1083.43</ele>
        <time>2021-05-19T07:55:24.938Z</time>
      </trkpt>
      <trkpt lat="44.76669" lon="4.41004">
        <ele>1084.4</ele>
        <time>2021-05-19T07:55:34.360Z</time>
      </trkpt>
      <trkpt lat="44.76679" lon="4.40999">
        <ele>1087.14</ele>
        <time>2021-05-19T07:55:43.998Z</time>
      </trkpt>
      <trkpt lat="44.76687" lon="4.40993">
        <ele>1088.84</ele>
        <time>2021-05-19T07:55:53.397Z</time>
      </trkpt>
      <trkpt lat="44.76693" lon="4.40988">
        <ele>1090.88</ele>
        <time>2021-05-19T07:56:03.076Z</time>
      </trkpt>
      <trkpt lat="44.767" lon="4.40981">
        <ele>1091.11</ele>
        <time>2021-05-19T07:56:12.438Z</time>
      </trkpt>
      <trkpt lat="44.76709" lon="4.40975">
        <ele>1092.26</ele>
        <time>2021-05-19T07:56:22.513Z</time>
      </trkpt>
      <trkpt lat="44.76718" lon="4.40968">
        <ele>1093.77</ele>
        <time>2021-05-19T07:56:32.075Z</time>
      </trkpt>
      <trkpt lat="44.76724" lon="4.40957">
        <ele>1096.28</ele>
        <time>2021-05-19T07:56:41.314Z</time>
      </trkpt>
      <trkpt lat="44.76731" lon="4.40945">
        <ele>1096.02</ele>
        <time>2021-05-19T07:56:50.873Z</time>
      </trkpt>
      <trkpt lat="44.76735" lon="4.40931">
        <ele>1096.24</ele>
        <time>2021-05-19T07:57:00.173Z</time>
      </trkpt>
      <trkpt lat="44.76739" lon="4.40917">
        <ele>1095.92</ele>
        <time>2021-05-19T07:57:09.492Z</time>
      </trkpt>
      <trkpt lat="44.76742" lon="4.40898">
        <ele>1095.01</ele>
        <time>2021-05-19T07:57:19.090Z</time>
      </trkpt>
      <trkpt lat="44.76745" lon="4.40884">
        <ele>1096.22</ele>
        <time>2021-05-19T07:57:28.149Z</time>
      </trkpt>
      <trkpt lat="44.76745" lon="4.40873">
        <ele>1097.93</ele>
        <time>2021-05-19T07:57:37.298Z</time>
      </trkpt>
      <trkpt lat="44.76746" lon="4.40857">
        <ele>1098.26</ele>
        <time>2021-05-19T07:57:46.377Z</time>
      </trkpt>
      <trkpt lat="44.76746" lon="4.40845">
        <ele>1100.09</ele>
        <time>2021-05-19T07:57:55.936Z</time>
      </trkpt>
      <trkpt lat="44.76745" lon="4.40834">
        <ele>1099.82</ele>
        <time>2021-05-19T07:58:05.235Z</time>
      </trkpt>
      <trkpt lat="44.76743" lon="4.40821">
        <ele>1101.23</ele>
        <time>2021-05-19T07:58:14.553Z</time>
      </trkpt>
      <trkpt lat="44.76743" lon="4.40808">
        <ele>1101.9</ele>
        <time>2021-05-19T07:58:24.353Z</time>
      </trkpt>
      <trkpt lat="44.76741" lon="4.40795">
        <ele>1103.67</ele>
        <time>2021-05-19T07:58:33.492Z</time>
      </trkpt>
      <trkpt lat="44.76742" lon="4.4078">
        <ele>1103.41</ele>
        <time>2021-05-19T07:58:43.450Z</time>
      </trkpt>
      <trkpt lat="44.76742" lon="4.40763">
        <ele>1103.75</ele>
        <time>2021-05-19T07:58:53.449Z</time>
      </trkpt>
      <trkpt lat="44.76744" lon="4.40751">
        <ele>1103.5</ele>
        <time>2021-05-19T07:59:02.586Z</time>
      </trkpt>
      <trkpt lat="44.76747" lon="4.40738">
        <ele>1104.1</ele>
        <time>2021-05-19T07:59:11.898Z</time>
      </trkpt>
      <trkpt lat="44.76754" lon="4.40731">
        <ele>1106.69</ele>
        <time>2021-05-19T07:59:21.496Z</time>
      </trkpt>
      <trkpt lat="44.76759" lon="4.40717">
        <ele>1109.34</ele>
        <time>2021-05-19T07:59:30.536Z</time>
      </trkpt>
      <trkpt lat="44.76763" lon="4.40701">
        <ele>1111.81</ele>
        <time>2021-05-19T07:59:40.158Z</time>
      </trkpt>
      <trkpt lat="44.76764" lon="4.40692">
        <ele>1112.04</ele>
        <time>2021-05-19T07:59:49.613Z</time>
      </trkpt>
      <trkpt lat="44.76768" lon="4.40676">
        <ele>1113.67</ele>
        <time>2021-05-19T07:59:58.933Z</time>
      </trkpt>
      <trkpt lat="44.7677" lon="4.40663">
        <ele>1113.77</ele>
        <time>2021-05-19T08:00:08.313Z</time>
      </trkpt>
      <trkpt lat="44.76772" lon="4.40651">
        <ele>1113.33</ele>
        <time>2021-05-19T08:00:17.351Z</time>
      </trkpt>
      <trkpt lat="44.76773" lon="4.40638">
        <ele>1113.54</ele>
        <time>2021-05-19T08:00:26.472Z</time>
      </trkpt>
      <trkpt lat="44.76772" lon="4.40622">
        <ele>1113.34</ele>
        <time>2021-05-19T08:00:36.192Z</time>
      </trkpt>
      <trkpt lat="44.76772" lon="4.40605">
        <ele>1113.76</ele>
        <time>2021-05-19T08:00:46.307Z</time>
      </trkpt>
      <trkpt lat="44.76771" lon="4.4059">
        <ele>1113.9</ele>
        <time>2021-05-19T08:00:56.508Z</time>
      </trkpt>
      <trkpt lat="44.76769" lon="4.40575">
        <ele>1114.29</ele>
        <time>2021-05-19T08:01:05.957Z</time>
      </trkpt>
      <trkpt lat="44.76765" lon="4.40561">
        <ele>1114.55</ele>
        <time>2021-05-19T08:01:15.255Z</time>
      </trkpt>
      <trkpt lat="44.76761" lon="4.40549">
        <ele>1115.85</ele>
        <time>2021-05-19T08:01:24.516Z</time>
      </trkpt>
      <trkpt lat="44.76758" lon="4.40536">
        <ele>1115.68</ele>
        <time>2021-05-19T08:01:34.094Z</time>
      </trkpt>
      <trkpt lat="44.76755" lon="4.40523">
        <ele>1116.78</ele>
        <time>2021-05-19T08:01:43.211Z</time>
      </trkpt>
      <trkpt lat="44.76757" lon="4.4051">
        <ele>1117.65</ele>
        <time>2021-05-19T08:01:52.412Z</time>
      </trkpt>
      <trkpt lat="44.76755" lon="4.40502">
        <ele>1118.43</ele>
        <time>2021-05-19T08:02:01.530Z</time>
      </trkpt>
      <trkpt lat="44.76754" lon="4.40499">
        <ele>1119.06</ele>
        <time>2021-05-19T08:02:10.999Z</time>
      </trkpt>
      <trkpt lat="44.76753" lon="4.40495">
        <ele>1120.89</ele>
        <time>2021-05-19T08:04:42.999Z</time>
      </trkpt>
      <trkpt lat="44.76754" lon="4.4049">
        <ele>1120.63</ele>
        <time>2021-05-19T08:04:52.052Z</time>
      </trkpt>
      <trkpt lat="44.7676" lon="4.40477">
        <ele>1119.93</ele>
        <time>2021-05-19T08:05:01.053Z</time>
      </trkpt>
      <trkpt lat="44.76767" lon="4.40466">
        <ele>1119.24</ele>
        <time>2021-05-19T08:05:10.259Z</time>
      </trkpt>
      <trkpt lat="44.76773" lon="4.40455">
        <ele>1121.07</ele>
        <time>2021-05-19T08:05:19.536Z</time>
      </trkpt>
      <trkpt lat="44.76781" lon="4.40439">
        <ele>1119.81</ele>
        <time>2021-05-19T08:05:28.957Z</time>
      </trkpt>
      <trkpt lat="44.76787" lon="4.40427">
        <ele>1117.99</ele>
        <time>2021-05-19T08:05:38.056Z</time>
      </trkpt>
      <trkpt lat="44.76795" lon="4.40414">
        <ele>1118.1</ele>
        <time>2021-05-19T08:05:48.277Z</time>
      </trkpt>
      <trkpt lat="44.768" lon="4.40403">
        <ele>1117.51</ele>
        <time>2021-05-19T08:05:57.573Z</time>
      </trkpt>
      <trkpt lat="44.76803" lon="4.40391">
        <ele>1118</ele>
        <time>2021-05-19T08:06:06.692Z</time>
      </trkpt>
      <trkpt lat="44.76806" lon="4.40381">
        <ele>1116.28</ele>
        <time>2021-05-19T08:06:15.953Z</time>
      </trkpt>
      <trkpt lat="44.76813" lon="4.40371">
        <ele>1114.56</ele>
        <time>2021-05-19T08:06:25.534Z</time>
      </trkpt>
      <trkpt lat="44.76819" lon="4.40358">
        <ele>1112.73</ele>
        <time>2021-05-19T08:06:34.632Z</time>
      </trkpt>
      <trkpt lat="44.76825" lon="4.40345">
        <ele>1112.67</ele>
        <time>2021-05-19T08:06:43.754Z</time>
      </trkpt>
      <trkpt lat="44.76831" lon="4.40332">
        <ele>1112.51</ele>
        <time>2021-05-19T08:06:52.776Z</time>
      </trkpt>
      <trkpt lat="44.76834" lon="4.40318">
        <ele>1112.67</ele>
        <time>2021-05-19T08:07:02.254Z</time>
      </trkpt>
      <trkpt lat="44.76833" lon="4.40302">
        <ele>1110.59</ele>
        <time>2021-05-19T08:07:11.611Z</time>
      </trkpt>
      <trkpt lat="44.76834" lon="4.40287">
        <ele>1108.61</ele>
        <time>2021-05-19T08:07:20.771Z</time>
      </trkpt>
      <trkpt lat="44.76836" lon="4.40274">
        <ele>1107.78</ele>
        <time>2021-05-19T08:07:29.858Z</time>
      </trkpt>
      <trkpt lat="44.76835" lon="4.4026">
        <ele>1107.28</ele>
        <time>2021-05-19T08:07:39.358Z</time>
      </trkpt>
      <trkpt lat="44.76835" lon="4.40247">
        <ele>1106.23</ele>
        <time>2021-05-19T08:07:48.449Z</time>
      </trkpt>
      <trkpt lat="44.76835" lon="4.40233">
        <ele>1104.58</ele>
        <time>2021-05-19T08:07:57.777Z</time>
      </trkpt>
      <trkpt lat="44.76838" lon="4.4022">
        <ele>1104.1</ele>
        <time>2021-05-19T08:08:07.056Z</time>
      </trkpt>
      <trkpt lat="44.7684" lon="4.40205">
        <ele>1101.96</ele>
        <time>2021-05-19T08:08:17.154Z</time>
      </trkpt>
      <trkpt lat="44.76843" lon="4.40192">
        <ele>1101.19</ele>
        <time>2021-05-19T08:08:26.999Z</time>
      </trkpt>
      <trkpt lat="44.76847" lon="4.40178">
        <ele>1099.49</ele>
        <time>2021-05-19T08:08:36.357Z</time>
      </trkpt>
      <trkpt lat="44.7685" lon="4.40165">
        <ele>1097.57</ele>
        <time>2021-05-19T08:08:46.052Z</time>
      </trkpt>
      <trkpt lat="44.76855" lon="4.40155">
        <ele>1096.42</ele>
        <time>2021-05-19T08:08:55.351Z</time>
      </trkpt>
      <trkpt lat="44.76858" lon="4.40145">
        <ele>1093.96</ele>
        <time>2021-05-19T08:09:04.899Z</time>
      </trkpt>
      <trkpt lat="44.76859" lon="4.40135">
        <ele>1092.98</ele>
        <time>2021-05-19T08:09:14.558Z</time>
      </trkpt>
      <trkpt lat="44.76855" lon="4.40138">
        <ele>1091.85</ele>
        <time>2021-05-19T08:09:24.236Z</time>
      </trkpt>
      <trkpt lat="44.76842" lon="4.40144">
        <ele>1090.66</ele>
        <time>2021-05-19T08:09:34.294Z</time>
      </trkpt>
      <trkpt lat="44.76832" lon="4.40148">
        <ele>1088.17</ele>
        <time>2021-05-19T08:09:44.332Z</time>
      </trkpt>
      <trkpt lat="44.76823" lon="4.40149">
        <ele>1085.73</ele>
        <time>2021-05-19T08:09:53.373Z</time>
      </trkpt>
      <trkpt lat="44.76814" lon="4.40152">
        <ele>1083.22</ele>
        <time>2021-05-19T08:10:02.992Z</time>
      </trkpt>
      <trkpt lat="44.76803" lon="4.40157">
        <ele>1080.89</ele>
        <time>2021-05-19T08:10:12.431Z</time>
      </trkpt>
      <trkpt lat="44.76793" lon="4.4016">
        <ele>1081</ele>
        <time>2021-05-19T08:10:22.270Z</time>
      </trkpt>
      <trkpt lat="44.76789" lon="4.40165">
        <ele>1080.25</ele>
        <time>2021-05-19T08:10:32.297Z</time>
      </trkpt>
      <trkpt lat="44.76791" lon="4.40163">
        <ele>1078.7</ele>
        <time>2021-05-19T08:10:43.594Z</time>
      </trkpt>
      <trkpt lat="44.76781" lon="4.40171">
        <ele>1077.75</ele>
        <time>2021-05-19T08:10:52.774Z</time>
      </trkpt>
      <trkpt lat="44.76779" lon="4.40165">
        <ele>1076.86</ele>
        <time>2021-05-19T08:11:02.274Z</time>
      </trkpt>
      <trkpt lat="44.76782" lon="4.40148">
        <ele>1074.22</ele>
        <time>2021-05-19T08:11:11.452Z</time>
      </trkpt>
      <trkpt lat="44.76787" lon="4.40133">
        <ele>1073.41</ele>
        <time>2021-05-19T08:11:20.990Z</time>
      </trkpt>
      <trkpt lat="44.76792" lon="4.4012">
        <ele>1071.67</ele>
        <time>2021-05-19T08:11:30.271Z</time>
      </trkpt>
      <trkpt lat="44.76799" lon="4.40111">
        <ele>1069.25</ele>
        <time>2021-05-19T08:11:39.871Z</time>
      </trkpt>
      <trkpt lat="44.76791" lon="4.40115">
        <ele>1068.06</ele>
        <time>2021-05-19T08:11:49.606Z</time>
      </trkpt>
      <trkpt lat="44.76779" lon="4.40124">
        <ele>1067.1</ele>
        <time>2021-05-19T08:11:59.475Z</time>
      </trkpt>
      <trkpt lat="44.76767" lon="4.40129">
        <ele>1074.8</ele>
        <time>2021-05-19T08:12:09.338Z</time>
      </trkpt>
      <trkpt lat="44.76758" lon="4.40135">
        <ele>1069.97</ele>
        <time>2021-05-19T08:12:18.895Z</time>
      </trkpt>
      <trkpt lat="44.76751" lon="4.40141">
        <ele>1066.59</ele>
        <time>2021-05-19T08:12:28.354Z</time>
      </trkpt>
      <trkpt lat="44.76743" lon="4.40147">
        <ele>1064.76</ele>
        <time>2021-05-19T08:12:38.155Z</time>
      </trkpt>
      <trkpt lat="44.76735" lon="4.40152">
        <ele>1062.05</ele>
        <time>2021-05-19T08:12:47.573Z</time>
      </trkpt>
      <trkpt lat="44.76729" lon="4.40156">
        <ele>1060.02</ele>
        <time>2021-05-19T08:12:56.771Z</time>
      </trkpt>
      <trkpt lat="44.76729" lon="4.40141">
        <ele>1057.65</ele>
        <time>2021-05-19T08:13:05.890Z</time>
      </trkpt>
      <trkpt lat="44.76735" lon="4.40126">
        <ele>1057.52</ele>
        <time>2021-05-19T08:13:15.390Z</time>
      </trkpt>
      <trkpt lat="44.76741" lon="4.40113">
        <ele>1054.55</ele>
        <time>2021-05-19T08:13:25.119Z</time>
      </trkpt>
      <trkpt lat="44.76746" lon="4.40104">
        <ele>1054.49</ele>
        <time>2021-05-19T08:13:34.356Z</time>
      </trkpt>
      <trkpt lat="44.76746" lon="4.40098">
        <ele>1052.67</ele>
        <time>2021-05-19T08:13:43.837Z</time>
      </trkpt>
      <trkpt lat="44.76741" lon="4.40102">
        <ele>1051.5</ele>
        <time>2021-05-19T08:13:53.000Z</time>
      </trkpt>
      <trkpt lat="44.76735" lon="4.40107">
        <ele>1049.61</ele>
        <time>2021-05-19T08:14:03.257Z</time>
      </trkpt>
      <trkpt lat="44.76723" lon="4.40112">
        <ele>1048.84</ele>
        <time>2021-05-19T08:14:12.673Z</time>
      </trkpt>
      <trkpt lat="44.76713" lon="4.40117">
        <ele>1047.26</ele>
        <time>2021-05-19T08:14:21.757Z</time>
      </trkpt>
      <trkpt lat="44.76703" lon="4.40121">
        <ele>1043.74</ele>
        <time>2021-05-19T08:14:31.132Z</time>
      </trkpt>
      <trkpt lat="44.76695" lon="4.40126">
        <ele>1043.11</ele>
        <time>2021-05-19T08:14:40.292Z</time>
      </trkpt>
      <trkpt lat="44.76688" lon="4.4013">
        <ele>1042.36</ele>
        <time>2021-05-19T08:14:49.590Z</time>
      </trkpt>
      <trkpt lat="44.76682" lon="4.4014">
        <ele>1036</ele>
        <time>2021-05-19T08:14:58.990Z</time>
      </trkpt>
      <trkpt lat="44.76681" lon="4.40151">
        <ele>1035.9</ele>
        <time>2021-05-19T08:15:08.270Z</time>
      </trkpt>
      <trkpt lat="44.7668" lon="4.40157">
        <ele>1032.67</ele>
        <time>2021-05-19T08:15:18.416Z</time>
      </trkpt>
      <trkpt lat="44.76676" lon="4.40157">
        <ele>1031.82</ele>
        <time>2021-05-19T08:15:27.758Z</time>
      </trkpt>
      <trkpt lat="44.76672" lon="4.40164">
        <ele>1030.26</ele>
        <time>2021-05-19T08:15:37.440Z</time>
      </trkpt>
      <trkpt lat="44.76674" lon="4.4017">
        <ele>1024.45</ele>
        <time>2021-05-19T08:15:47.255Z</time>
      </trkpt>
      <trkpt lat="44.76678" lon="4.40176">
        <ele>1023.76</ele>
        <time>2021-05-19T08:15:57.156Z</time>
      </trkpt>
      <trkpt lat="44.76683" lon="4.40193">
        <ele>1022.75</ele>
        <time>2021-05-19T08:16:07.374Z</time>
      </trkpt>
      <trkpt lat="44.76686" lon="4.40207">
        <ele>1023.55</ele>
        <time>2021-05-19T08:16:16.768Z</time>
      </trkpt>
      <trkpt lat="44.76684" lon="4.40222">
        <ele>1021.64</ele>
        <time>2021-05-19T08:16:26.094Z</time>
      </trkpt>
      <trkpt lat="44.76684" lon="4.40228">
        <ele>1021.2</ele>
        <time>2021-05-19T08:16:35.254Z</time>
      </trkpt>
      <trkpt lat="44.76683" lon="4.40236">
        <ele>1020.65</ele>
        <time>2021-05-19T08:16:44.772Z</time>
      </trkpt>
      <trkpt lat="44.7668" lon="4.40241">
        <ele>1020.4</ele>
        <time>2021-05-19T08:16:54.390Z</time>
      </trkpt>
      <trkpt lat="44.76671" lon="4.40255">
        <ele>1019.35</ele>
        <time>2021-05-19T08:17:04.497Z</time>
      </trkpt>
      <trkpt lat="44.76666" lon="4.40257">
        <ele>1016.89</ele>
        <time>2021-05-19T08:17:13.977Z</time>
      </trkpt>
      <trkpt lat="44.7666" lon="4.40265">
        <ele>1018.11</ele>
        <time>2021-05-19T08:17:24.076Z</time>
      </trkpt>
      <trkpt lat="44.76656" lon="4.4027">
        <ele>1017.5</ele>
        <time>2021-05-19T08:17:33.255Z</time>
      </trkpt>
      <trkpt lat="44.76644" lon="4.40274">
        <ele>1016.61</ele>
        <time>2021-05-19T08:17:43.193Z</time>
      </trkpt>
      <trkpt lat="44.76634" lon="4.40279">
        <ele>1015.29</ele>
        <time>2021-05-19T08:17:52.231Z</time>
      </trkpt>
      <trkpt lat="44.76621" lon="4.40284">
        <ele>1013.65</ele>
        <time>2021-05-19T08:18:01.435Z</time>
      </trkpt>
      <trkpt lat="44.76609" lon="4.40287">
        <ele>1012.17</ele>
        <time>2021-05-19T08:18:10.890Z</time>
      </trkpt>
      <trkpt lat="44.766" lon="4.40289">
        <ele>1010.81</ele>
        <time>2021-05-19T08:18:20.318Z</time>
      </trkpt>
      <trkpt lat="44.76609" lon="4.40275">
        <ele>1007.94</ele>
        <time>2021-05-19T08:18:47.136Z</time>
      </trkpt>
      <trkpt lat="44.76614" lon="4.40271">
        <ele>1007.11</ele>
        <time>2021-05-19T08:18:56.176Z</time>
      </trkpt>
      <trkpt lat="44.76612" lon="4.40263">
        <ele>1003.75</ele>
        <time>2021-05-19T08:19:33.455Z</time>
      </trkpt>
      <trkpt lat="44.766" lon="4.40263">
        <ele>1000.98</ele>
        <time>2021-05-19T08:19:42.654Z</time>
      </trkpt>
      <trkpt lat="44.76589" lon="4.40262">
        <ele>998.56</ele>
        <time>2021-05-19T08:19:52.194Z</time>
      </trkpt>
      <trkpt lat="44.76583" lon="4.40263">
        <ele>997.29</ele>
        <time>2021-05-19T08:20:01.313Z</time>
      </trkpt>
      <trkpt lat="44.76571" lon="4.40266">
        <ele>996.52</ele>
        <time>2021-05-19T08:20:10.351Z</time>
      </trkpt>
      <trkpt lat="44.76561" lon="4.40265">
        <ele>994.94</ele>
        <time>2021-05-19T08:20:19.471Z</time>
      </trkpt>
      <trkpt lat="44.76549" lon="4.40264">
        <ele>991.91</ele>
        <time>2021-05-19T08:20:29.111Z</time>
      </trkpt>
      <trkpt lat="44.7654" lon="4.40261">
        <ele>990.66</ele>
        <time>2021-05-19T08:20:38.557Z</time>
      </trkpt>
      <trkpt lat="44.76532" lon="4.40262">
        <ele>988.57</ele>
        <time>2021-05-19T08:20:48.350Z</time>
      </trkpt>
      <trkpt lat="44.76522" lon="4.40262">
        <ele>986.79</ele>
        <time>2021-05-19T08:20:57.758Z</time>
      </trkpt>
      <trkpt lat="44.76513" lon="4.40265">
        <ele>988.19</ele>
        <time>2021-05-19T08:21:07.458Z</time>
      </trkpt>
      <trkpt lat="44.76504" lon="4.40266">
        <ele>985.7</ele>
        <time>2021-05-19T08:21:16.674Z</time>
      </trkpt>
      <trkpt lat="44.76492" lon="4.40263">
        <ele>984.18</ele>
        <time>2021-05-19T08:21:26.060Z</time>
      </trkpt>
      <trkpt lat="44.76481" lon="4.40262">
        <ele>983.78</ele>
        <time>2021-05-19T08:21:36.454Z</time>
      </trkpt>
      <trkpt lat="44.76477" lon="4.40259">
        <ele>980.5</ele>
        <time>2021-05-19T08:21:45.933Z</time>
      </trkpt>
      <trkpt lat="44.7647" lon="4.40257">
        <ele>977.68</ele>
        <time>2021-05-19T08:22:01.851Z</time>
      </trkpt>
      <trkpt lat="44.76457" lon="4.40257">
        <ele>976.72</ele>
        <time>2021-05-19T08:22:11.390Z</time>
      </trkpt>
      <trkpt lat="44.76443" lon="4.40255">
        <ele>975.7</ele>
        <time>2021-05-19T08:22:21.000Z</time>
      </trkpt>
      <trkpt lat="44.76427" lon="4.40256">
        <ele>972.79</ele>
        <time>2021-05-19T08:22:30.338Z</time>
      </trkpt>
      <trkpt lat="44.76416" lon="4.40255">
        <ele>972.43</ele>
        <time>2021-05-19T08:22:40.616Z</time>
      </trkpt>
      <trkpt lat="44.76415" lon="4.40258">
        <ele>971.23</ele>
        <time>2021-05-19T08:22:49.655Z</time>
      </trkpt>
      <trkpt lat="44.7641" lon="4.40266">
        <ele>972.58</ele>
        <time>2021-05-19T08:22:59.000Z</time>
      </trkpt>
      <trkpt lat="44.76408" lon="4.40279">
        <ele>972.12</ele>
        <time>2021-05-19T08:23:08.532Z</time>
      </trkpt>
      <trkpt lat="44.76409" lon="4.40283">
        <ele>971.86</ele>
        <time>2021-05-19T08:23:18.000Z</time>
      </trkpt>
      <trkpt lat="44.76409" lon="4.40281">
        <ele>970.96</ele>
        <time>2021-05-19T08:23:35.000Z</time>
      </trkpt>
      <trkpt lat="44.76408" lon="4.40277">
        <ele>971.53</ele>
        <time>2021-05-19T08:24:11.000Z</time>
      </trkpt>
      <trkpt lat="44.7641" lon="4.40264">
        <ele>969.53</ele>
        <time>2021-05-19T08:24:21.195Z</time>
      </trkpt>
      <trkpt lat="44.76414" lon="4.40256">
        <ele>968.89</ele>
        <time>2021-05-19T08:24:31.999Z</time>
      </trkpt>
      <trkpt lat="44.76416" lon="4.40257">
        <ele>968.38</ele>
        <time>2021-05-19T08:24:42.132Z</time>
      </trkpt>
      <trkpt lat="44.76412" lon="4.40253">
        <ele>968.45</ele>
        <time>2021-05-19T08:24:51.510Z</time>
      </trkpt>
      <trkpt lat="44.76406" lon="4.40253">
        <ele>967.49</ele>
        <time>2021-05-19T08:25:01.430Z</time>
      </trkpt>
      <trkpt lat="44.76398" lon="4.40251">
        <ele>967.41</ele>
        <time>2021-05-19T08:25:11.051Z</time>
      </trkpt>
      <trkpt lat="44.76392" lon="4.40246">
        <ele>967.23</ele>
        <time>2021-05-19T08:25:20.218Z</time>
      </trkpt>
      <trkpt lat="44.76385" lon="4.40239">
        <ele>965.82</ele>
        <time>2021-05-19T08:25:30.329Z</time>
      </trkpt>
      <trkpt lat="44.7638" lon="4.40227">
        <ele>964.49</ele>
        <time>2021-05-19T08:25:39.509Z</time>
      </trkpt>
      <trkpt lat="44.76377" lon="4.40214">
        <ele>963.56</ele>
        <time>2021-05-19T08:25:49.017Z</time>
      </trkpt>
      <trkpt lat="44.76372" lon="4.40199">
        <ele>960.68</ele>
        <time>2021-05-19T08:25:58.561Z</time>
      </trkpt>
      <trkpt lat="44.76366" lon="4.40185">
        <ele>959.99</ele>
        <time>2021-05-19T08:26:08.015Z</time>
      </trkpt>
      <trkpt lat="44.76362" lon="4.40172">
        <ele>960.13</ele>
        <time>2021-05-19T08:26:17.414Z</time>
      </trkpt>
      <trkpt lat="44.76354" lon="4.40162">
        <ele>957.7</ele>
        <time>2021-05-19T08:26:26.892Z</time>
      </trkpt>
      <trkpt lat="44.76348" lon="4.4015">
        <ele>956.39</ele>
        <time>2021-05-19T08:26:36.872Z</time>
      </trkpt>
      <trkpt lat="44.76339" lon="4.40135">
        <ele>954.49</ele>
        <time>2021-05-19T08:26:46.951Z</time>
      </trkpt>
      <trkpt lat="44.76333" lon="4.40124">
        <ele>952.58</ele>
        <time>2021-05-19T08:26:56.369Z</time>
      </trkpt>
      <trkpt lat="44.76326" lon="4.40113">
        <ele>951.66</ele>
        <time>2021-05-19T08:27:05.539Z</time>
      </trkpt>
      <trkpt lat="44.76317" lon="4.40104">
        <ele>951.22</ele>
        <time>2021-05-19T08:27:15.177Z</time>
      </trkpt>
      <trkpt lat="44.76305" lon="4.40099">
        <ele>949.79</ele>
        <time>2021-05-19T08:27:24.196Z</time>
      </trkpt>
      <trkpt lat="44.76293" lon="4.40096">
        <ele>949.6</ele>
        <time>2021-05-19T08:27:34.176Z</time>
      </trkpt>
      <trkpt lat="44.76283" lon="4.40096">
        <ele>948.64</ele>
        <time>2021-05-19T08:27:43.767Z</time>
      </trkpt>
      <trkpt lat="44.76272" lon="4.40098">
        <ele>948.26</ele>
        <time>2021-05-19T08:27:53.117Z</time>
      </trkpt>
      <trkpt lat="44.76262" lon="4.40096">
        <ele>946.85</ele>
        <time>2021-05-19T08:28:02.571Z</time>
      </trkpt>
      <trkpt lat="44.76251" lon="4.40096">
        <ele>946.11</ele>
        <time>2021-05-19T08:28:11.769Z</time>
      </trkpt>
      <trkpt lat="44.76242" lon="4.40098">
        <ele>943.96</ele>
        <time>2021-05-19T08:28:20.849Z</time>
      </trkpt>
      <trkpt lat="44.76232" lon="4.40106">
        <ele>941.16</ele>
        <time>2021-05-19T08:28:30.199Z</time>
      </trkpt>
      <trkpt lat="44.76224" lon="4.40115">
        <ele>939.11</ele>
        <time>2021-05-19T08:28:40.198Z</time>
      </trkpt>
      <trkpt lat="44.76215" lon="4.4012">
        <ele>939.62</ele>
        <time>2021-05-19T08:28:49.257Z</time>
      </trkpt>
      <trkpt lat="44.76207" lon="4.40127">
        <ele>934.89</ele>
        <time>2021-05-19T08:28:58.336Z</time>
      </trkpt>
      <trkpt lat="44.76198" lon="4.4013">
        <ele>933.85</ele>
        <time>2021-05-19T08:29:07.696Z</time>
      </trkpt>
      <trkpt lat="44.76188" lon="4.4014">
        <ele>934.19</ele>
        <time>2021-05-19T08:29:16.760Z</time>
      </trkpt>
      <trkpt lat="44.76178" lon="4.40143">
        <ele>931.36</ele>
        <time>2021-05-19T08:29:26.174Z</time>
      </trkpt>
      <trkpt lat="44.76169" lon="4.40142">
        <ele>926.63</ele>
        <time>2021-05-19T08:29:35.474Z</time>
      </trkpt>
      <trkpt lat="44.7616" lon="4.40141">
        <ele>924.42</ele>
        <time>2021-05-19T08:29:44.999Z</time>
      </trkpt>
      <trkpt lat="44.76153" lon="4.40136">
        <ele>923.68</ele>
        <time>2021-05-19T08:29:54.589Z</time>
      </trkpt>
      <trkpt lat="44.76147" lon="4.40121">
        <ele>921.55</ele>
        <time>2021-05-19T08:30:04.319Z</time>
      </trkpt>
      <trkpt lat="44.7614" lon="4.40111">
        <ele>918.37</ele>
        <time>2021-05-19T08:30:13.999Z</time>
      </trkpt>
      <trkpt lat="44.76132" lon="4.40105">
        <ele>917.91</ele>
        <time>2021-05-19T08:30:24.077Z</time>
      </trkpt>
      <trkpt lat="44.76122" lon="4.40098">
        <ele>915.46</ele>
        <time>2021-05-19T08:30:33.099Z</time>
      </trkpt>
      <trkpt lat="44.76115" lon="4.40092">
        <ele>913.11</ele>
        <time>2021-05-19T08:30:42.215Z</time>
      </trkpt>
      <trkpt lat="44.76109" lon="4.40089">
        <ele>913.68</ele>
        <time>2021-05-19T08:30:52.493Z</time>
      </trkpt>
      <trkpt lat="44.76101" lon="4.40082">
        <ele>909.68</ele>
        <time>2021-05-19T08:31:02.231Z</time>
      </trkpt>
      <trkpt lat="44.76094" lon="4.40075">
        <ele>906.48</ele>
        <time>2021-05-19T08:31:11.370Z</time>
      </trkpt>
      <trkpt lat="44.76086" lon="4.40068">
        <ele>902.7</ele>
        <time>2021-05-19T08:31:20.756Z</time>
      </trkpt>
      <trkpt lat="44.76077" lon="4.40061">
        <ele>899.66</ele>
        <time>2021-05-19T08:31:29.971Z</time>
      </trkpt>
      <trkpt lat="44.76072" lon="4.40054">
        <ele>897.39</ele>
        <time>2021-05-19T08:31:39.012Z</time>
      </trkpt>
      <trkpt lat="44.76066" lon="4.40043">
        <ele>893.96</ele>
        <time>2021-05-19T08:31:48.532Z</time>
      </trkpt>
      <trkpt lat="44.76064" lon="4.40034">
        <ele>888.83</ele>
        <time>2021-05-19T08:31:57.948Z</time>
      </trkpt>
      <trkpt lat="44.76062" lon="4.40026">
        <ele>887.25</ele>
        <time>2021-05-19T08:32:07.258Z</time>
      </trkpt>
      <trkpt lat="44.76054" lon="4.40022">
        <ele>884.17</ele>
        <time>2021-05-19T08:32:16.516Z</time>
      </trkpt>
      <trkpt lat="44.76041" lon="4.40013">
        <ele>882.08</ele>
        <time>2021-05-19T08:32:26.037Z</time>
      </trkpt>
      <trkpt lat="44.76036" lon="4.40007">
        <ele>878.43</ele>
        <time>2021-05-19T08:32:35.615Z</time>
      </trkpt>
      <trkpt lat="44.7603" lon="4.4">
        <ele>876.02</ele>
        <time>2021-05-19T08:32:44.935Z</time>
      </trkpt>
      <trkpt lat="44.76019" lon="4.39992">
        <ele>873.63</ele>
        <time>2021-05-19T08:32:54.094Z</time>
      </trkpt>
      <trkpt lat="44.76011" lon="4.39986">
        <ele>870.81</ele>
        <time>2021-05-19T08:33:03.439Z</time>
      </trkpt>
      <trkpt lat="44.76003" lon="4.39982">
        <ele>865.15</ele>
        <time>2021-05-19T08:33:13.390Z</time>
      </trkpt>
      <trkpt lat="44.76006" lon="4.39982">
        <ele>864.99</ele>
        <time>2021-05-19T08:33:30.999Z</time>
      </trkpt>
      <trkpt lat="44.75998" lon="4.39977">
        <ele>864.23</ele>
        <time>2021-05-19T08:33:41.489Z</time>
      </trkpt>
      <trkpt lat="44.7599" lon="4.39971">
        <ele>862.48</ele>
        <time>2021-05-19T08:33:51.238Z</time>
      </trkpt>
      <trkpt lat="44.75982" lon="4.39965">
        <ele>858.94</ele>
        <time>2021-05-19T08:34:01.218Z</time>
      </trkpt>
      <trkpt lat="44.75973" lon="4.39957">
        <ele>853.52</ele>
        <time>2021-05-19T08:34:10.656Z</time>
      </trkpt>
      <trkpt lat="44.75962" lon="4.39953">
        <ele>856</ele>
        <time>2021-05-19T08:34:20.416Z</time>
      </trkpt>
      <trkpt lat="44.75954" lon="4.39948">
        <ele>854.04</ele>
        <time>2021-05-19T08:34:29.539Z</time>
      </trkpt>
      <trkpt lat="44.75945" lon="4.39942">
        <ele>851.71</ele>
        <time>2021-05-19T08:34:38.999Z</time>
      </trkpt>
      <trkpt lat="44.75936" lon="4.39936">
        <ele>848.87</ele>
        <time>2021-05-19T08:34:48.851Z</time>
      </trkpt>
      <trkpt lat="44.75928" lon="4.39929">
        <ele>847.86</ele>
        <time>2021-05-19T08:34:57.999Z</time>
      </trkpt>
      <trkpt lat="44.75925" lon="4.39921">
        <ele>846.9</ele>
        <time>2021-05-19T08:35:07.208Z</time>
      </trkpt>
      <trkpt lat="44.75917" lon="4.39925">
        <ele>844.58</ele>
        <time>2021-05-19T08:35:16.439Z</time>
      </trkpt>
      <trkpt lat="44.75911" lon="4.39934">
        <ele>842.41</ele>
        <time>2021-05-19T08:35:25.657Z</time>
      </trkpt>
      <trkpt lat="44.75903" lon="4.39936">
        <ele>840.32</ele>
        <time>2021-05-19T08:35:34.917Z</time>
      </trkpt>
      <trkpt lat="44.75898" lon="4.39928">
        <ele>838.47</ele>
        <time>2021-05-19T08:35:43.936Z</time>
      </trkpt>
      <trkpt lat="44.7589" lon="4.39921">
        <ele>835.04</ele>
        <time>2021-05-19T08:35:53.255Z</time>
      </trkpt>
      <trkpt lat="44.75879" lon="4.39917">
        <ele>832.5</ele>
        <time>2021-05-19T08:36:03.213Z</time>
      </trkpt>
      <trkpt lat="44.75871" lon="4.39913">
        <ele>831.6</ele>
        <time>2021-05-19T08:36:13.012Z</time>
      </trkpt>
      <trkpt lat="44.75861" lon="4.39911">
        <ele>829.61</ele>
        <time>2021-05-19T08:36:22.433Z</time>
      </trkpt>
      <trkpt lat="44.75851" lon="4.39912">
        <ele>827.83</ele>
        <time>2021-05-19T08:36:32.210Z</time>
      </trkpt>
      <trkpt lat="44.75842" lon="4.39911">
        <ele>824.32</ele>
        <time>2021-05-19T08:36:41.230Z</time>
      </trkpt>
      <trkpt lat="44.75838" lon="4.3991">
        <ele>823.01</ele>
        <time>2021-05-19T08:36:50.970Z</time>
      </trkpt>
      <trkpt lat="44.75837" lon="4.39905">
        <ele>821.75</ele>
        <time>2021-05-19T08:37:18.094Z</time>
      </trkpt>
      <trkpt lat="44.7584" lon="4.39902">
        <ele>820.67</ele>
        <time>2021-05-19T08:37:28.034Z</time>
      </trkpt>
      <trkpt lat="44.75838" lon="4.399">
        <ele>819.48</ele>
        <time>2021-05-19T08:37:38.292Z</time>
      </trkpt>
      <trkpt lat="44.75835" lon="4.39898">
        <ele>819.25</ele>
        <time>2021-05-19T08:37:48.229Z</time>
      </trkpt>
      <trkpt lat="44.75832" lon="4.39897">
        <ele>816.85</ele>
        <time>2021-05-19T08:38:34.217Z</time>
      </trkpt>
      <trkpt lat="44.75837" lon="4.399">
        <ele>817.82</ele>
        <time>2021-05-19T08:38:44.000Z</time>
      </trkpt>
      <trkpt lat="44.75845" lon="4.39898">
        <ele>817.03</ele>
        <time>2021-05-19T08:39:08.000Z</time>
      </trkpt>
      <trkpt lat="44.75855" lon="4.39893">
        <ele>817.82</ele>
        <time>2021-05-19T08:39:17.273Z</time>
      </trkpt>
      <trkpt lat="44.75866" lon="4.39887">
        <ele>817.39</ele>
        <time>2021-05-19T08:39:26.432Z</time>
      </trkpt>
      <trkpt lat="44.75875" lon="4.39885">
        <ele>816.8</ele>
        <time>2021-05-19T08:39:35.809Z</time>
      </trkpt>
      <trkpt lat="44.75883" lon="4.39881">
        <ele>816.27</ele>
        <time>2021-05-19T08:39:45.030Z</time>
      </trkpt>
      <trkpt lat="44.75891" lon="4.3988">
        <ele>815.84</ele>
        <time>2021-05-19T08:39:54.399Z</time>
      </trkpt>
      <trkpt lat="44.75896" lon="4.39875">
        <ele>814.5</ele>
        <time>2021-05-19T08:40:03.916Z</time>
      </trkpt>
      <trkpt lat="44.75896" lon="4.3987">
        <ele>811.59</ele>
        <time>2021-05-19T08:40:13.475Z</time>
      </trkpt>
      <trkpt lat="44.75896" lon="4.39864">
        <ele>812.86</ele>
        <time>2021-05-19T08:40:23.335Z</time>
      </trkpt>
      <trkpt lat="44.75893" lon="4.39856">
        <ele>810.08</ele>
        <time>2021-05-19T08:40:33.000Z</time>
      </trkpt>
      <trkpt lat="44.75888" lon="4.39856">
        <ele>808.48</ele>
        <time>2021-05-19T08:40:49.291Z</time>
      </trkpt>
      <trkpt lat="44.75894" lon="4.39844">
        <ele>807.07</ele>
        <time>2021-05-19T08:40:59.314Z</time>
      </trkpt>
      <trkpt lat="44.75898" lon="4.39836">
        <ele>811.64</ele>
        <time>2021-05-19T08:41:09.581Z</time>
      </trkpt>
      <trkpt lat="44.75898" lon="4.39829">
        <ele>807.99</ele>
        <time>2021-05-19T08:41:19.038Z</time>
      </trkpt>
      <trkpt lat="44.759" lon="4.39812">
        <ele>801.72</ele>
        <time>2021-05-19T08:41:29.000Z</time>
      </trkpt>
      <trkpt lat="44.75899" lon="4.39795">
        <ele>797.06</ele>
        <time>2021-05-19T08:41:38.256Z</time>
      </trkpt>
      <trkpt lat="44.75894" lon="4.39785">
        <ele>794.38</ele>
        <time>2021-05-19T08:41:48.355Z</time>
      </trkpt>
      <trkpt lat="44.75894" lon="4.3978">
        <ele>792.46</ele>
        <time>2021-05-19T08:41:58.000Z</time>
      </trkpt>
      <trkpt lat="44.75891" lon="4.39772">
        <ele>790.71</ele>
        <time>2021-05-19T08:42:07.572Z</time>
      </trkpt>
      <trkpt lat="44.75893" lon="4.39768">
        <ele>789.14</ele>
        <time>2021-05-19T08:42:22.445Z</time>
      </trkpt>
      <trkpt lat="44.75891" lon="4.39764">
        <ele>789.12</ele>
        <time>2021-05-19T08:42:32.189Z</time>
      </trkpt>
      <trkpt lat="44.75882" lon="4.3976">
        <ele>786.93</ele>
        <time>2021-05-19T08:42:41.320Z</time>
      </trkpt>
      <trkpt lat="44.7587" lon="4.39759">
        <ele>787.36</ele>
        <time>2021-05-19T08:42:51.118Z</time>
      </trkpt>
      <trkpt lat="44.75859" lon="4.39758">
        <ele>790.09</ele>
        <time>2021-05-19T08:43:00.216Z</time>
      </trkpt>
      <trkpt lat="44.75849" lon="4.39755">
        <ele>787.52</ele>
        <time>2021-05-19T08:43:09.334Z</time>
      </trkpt>
      <trkpt lat="44.75839" lon="4.39754">
        <ele>786.01</ele>
        <time>2021-05-19T08:43:18.731Z</time>
      </trkpt>
      <trkpt lat="44.75832" lon="4.39753">
        <ele>786.83</ele>
        <time>2021-05-19T08:43:28.000Z</time>
      </trkpt>
      <trkpt lat="44.75827" lon="4.39745">
        <ele>785.81</ele>
        <time>2021-05-19T08:43:37.330Z</time>
      </trkpt>
      <trkpt lat="44.75816" lon="4.39739">
        <ele>784.02</ele>
        <time>2021-05-19T08:43:46.809Z</time>
      </trkpt>
      <trkpt lat="44.75803" lon="4.39737">
        <ele>784.25</ele>
        <time>2021-05-19T08:43:56.788Z</time>
      </trkpt>
      <trkpt lat="44.75794" lon="4.39735">
        <ele>782.79</ele>
        <time>2021-05-19T08:44:06.219Z</time>
      </trkpt>
      <trkpt lat="44.75786" lon="4.39729">
        <ele>782.51</ele>
        <time>2021-05-19T08:44:15.771Z</time>
      </trkpt>
      <trkpt lat="44.75776" lon="4.39725">
        <ele>782.49</ele>
        <time>2021-05-19T08:44:25.058Z</time>
      </trkpt>
      <trkpt lat="44.75767" lon="4.39719">
        <ele>775.86</ele>
        <time>2021-05-19T08:44:34.489Z</time>
      </trkpt>
      <trkpt lat="44.75754" lon="4.39717">
        <ele>776.67</ele>
        <time>2021-05-19T08:44:44.295Z</time>
      </trkpt>
      <trkpt lat="44.75744" lon="4.39719">
        <ele>777.43</ele>
        <time>2021-05-19T08:44:53.834Z</time>
      </trkpt>
      <trkpt lat="44.75733" lon="4.39719">
        <ele>776.7</ele>
        <time>2021-05-19T08:45:03.092Z</time>
      </trkpt>
      <trkpt lat="44.75723" lon="4.39716">
        <ele>776</ele>
        <time>2021-05-19T08:45:12.330Z</time>
      </trkpt>
      <trkpt lat="44.75712" lon="4.39718">
        <ele>774.53</ele>
        <time>2021-05-19T08:45:21.550Z</time>
      </trkpt>
      <trkpt lat="44.757" lon="4.39722">
        <ele>773.9</ele>
        <time>2021-05-19T08:45:30.909Z</time>
      </trkpt>
      <trkpt lat="44.7569" lon="4.39714">
        <ele>773.32</ele>
        <time>2021-05-19T08:45:40.269Z</time>
      </trkpt>
      <trkpt lat="44.75682" lon="4.39703">
        <ele>772.96</ele>
        <time>2021-05-19T08:45:49.547Z</time>
      </trkpt>
      <trkpt lat="44.75673" lon="4.39697">
        <ele>771.66</ele>
        <time>2021-05-19T08:45:58.841Z</time>
      </trkpt>
      <trkpt lat="44.7566" lon="4.39696">
        <ele>770.03</ele>
        <time>2021-05-19T08:46:08.177Z</time>
      </trkpt>
      <trkpt lat="44.75648" lon="4.39699">
        <ele>769.93</ele>
        <time>2021-05-19T08:46:17.475Z</time>
      </trkpt>
      <trkpt lat="44.75637" lon="4.39698">
        <ele>768.85</ele>
        <time>2021-05-19T08:46:26.766Z</time>
      </trkpt>
      <trkpt lat="44.75626" lon="4.39698">
        <ele>768.41</ele>
        <time>2021-05-19T08:46:36.157Z</time>
      </trkpt>
      <trkpt lat="44.75616" lon="4.39699">
        <ele>767.72</ele>
        <time>2021-05-19T08:46:46.071Z</time>
      </trkpt>
      <trkpt lat="44.75604" lon="4.39699">
        <ele>767.72</ele>
        <time>2021-05-19T08:46:56.029Z</time>
      </trkpt>
      <trkpt lat="44.75591" lon="4.39703">
        <ele>767.09</ele>
        <time>2021-05-19T08:47:05.250Z</time>
      </trkpt>
      <trkpt lat="44.7558" lon="4.39706">
        <ele>764.68</ele>
        <time>2021-05-19T08:47:14.629Z</time>
      </trkpt>
      <trkpt lat="44.75568" lon="4.39714">
        <ele>767.56</ele>
        <time>2021-05-19T08:47:23.918Z</time>
      </trkpt>
      <trkpt lat="44.75557" lon="4.39716">
        <ele>764.78</ele>
        <time>2021-05-19T08:47:33.098Z</time>
      </trkpt>
      <trkpt lat="44.75545" lon="4.39718">
        <ele>763.69</ele>
        <time>2021-05-19T08:47:43.378Z</time>
      </trkpt>
      <trkpt lat="44.75532" lon="4.39714">
        <ele>761.69</ele>
        <time>2021-05-19T08:47:53.274Z</time>
      </trkpt>
      <trkpt lat="44.75523" lon="4.39705">
        <ele>760.85</ele>
        <time>2021-05-19T08:48:02.573Z</time>
      </trkpt>
      <trkpt lat="44.75515" lon="4.39698">
        <ele>760.64</ele>
        <time>2021-05-19T08:48:11.611Z</time>
      </trkpt>
      <trkpt lat="44.75507" lon="4.39694">
        <ele>760.35</ele>
        <time>2021-05-19T08:48:20.713Z</time>
      </trkpt>
      <trkpt lat="44.75499" lon="4.3969">
        <ele>759.46</ele>
        <time>2021-05-19T08:48:29.929Z</time>
      </trkpt>
      <trkpt lat="44.75498" lon="4.39677">
        <ele>759.16</ele>
        <time>2021-05-19T08:48:39.148Z</time>
      </trkpt>
      <trkpt lat="44.75499" lon="4.39664">
        <ele>757.7</ele>
        <time>2021-05-19T08:48:48.999Z</time>
      </trkpt>
      <trkpt lat="44.75499" lon="4.39662">
        <ele>757.83</ele>
        <time>2021-05-19T08:49:01.274Z</time>
      </trkpt>
      <trkpt lat="44.75501" lon="4.39644">
        <ele>756.04</ele>
        <time>2021-05-19T08:49:10.834Z</time>
      </trkpt>
      <trkpt lat="44.75502" lon="4.39629">
        <ele>754.96</ele>
        <time>2021-05-19T08:49:19.933Z</time>
      </trkpt>
      <trkpt lat="44.75502" lon="4.39615">
        <ele>753.33</ele>
        <time>2021-05-19T08:49:29.413Z</time>
      </trkpt>
      <trkpt lat="44.755" lon="4.39601">
        <ele>752.39</ele>
        <time>2021-05-19T08:49:38.999Z</time>
      </trkpt>
      <trkpt lat="44.75499" lon="4.39591">
        <ele>750.81</ele>
        <time>2021-05-19T08:49:48.511Z</time>
      </trkpt>
      <trkpt lat="44.75494" lon="4.39576">
        <ele>748.41</ele>
        <time>2021-05-19T08:49:58.131Z</time>
      </trkpt>
      <trkpt lat="44.75492" lon="4.3956">
        <ele>746.66</ele>
        <time>2021-05-19T08:50:08.391Z</time>
      </trkpt>
      <trkpt lat="44.75485" lon="4.39543">
        <ele>745.51</ele>
        <time>2021-05-19T08:50:18.139Z</time>
      </trkpt>
      <trkpt lat="44.75482" lon="4.39526">
        <ele>744.49</ele>
        <time>2021-05-19T08:50:27.377Z</time>
      </trkpt>
      <trkpt lat="44.7548" lon="4.39509">
        <ele>743.23</ele>
        <time>2021-05-19T08:50:37.197Z</time>
      </trkpt>
      <trkpt lat="44.75476" lon="4.39493">
        <ele>742.91</ele>
        <time>2021-05-19T08:50:46.396Z</time>
      </trkpt>
      <trkpt lat="44.75472" lon="4.39478">
        <ele>741.71</ele>
        <time>2021-05-19T08:50:56.215Z</time>
      </trkpt>
      <trkpt lat="44.75465" lon="4.39464">
        <ele>741.3</ele>
        <time>2021-05-19T08:51:05.692Z</time>
      </trkpt>
      <trkpt lat="44.75463" lon="4.3945">
        <ele>740.52</ele>
        <time>2021-05-19T08:51:14.999Z</time>
      </trkpt>
      <trkpt lat="44.75461" lon="4.39436">
        <ele>739.23</ele>
        <time>2021-05-19T08:51:24.251Z</time>
      </trkpt>
      <trkpt lat="44.75461" lon="4.3942">
        <ele>738.21</ele>
        <time>2021-05-19T08:51:33.570Z</time>
      </trkpt>
      <trkpt lat="44.7546" lon="4.39405">
        <ele>737.9</ele>
        <time>2021-05-19T08:51:42.850Z</time>
      </trkpt>
      <trkpt lat="44.75456" lon="4.3939">
        <ele>737.76</ele>
        <time>2021-05-19T08:51:52.070Z</time>
      </trkpt>
      <trkpt lat="44.75449" lon="4.39377">
        <ele>735.98</ele>
        <time>2021-05-19T08:52:01.517Z</time>
      </trkpt>
      <trkpt lat="44.75443" lon="4.39362">
        <ele>735.14</ele>
        <time>2021-05-19T08:52:10.878Z</time>
      </trkpt>
      <trkpt lat="44.75441" lon="4.39347">
        <ele>733.73</ele>
        <time>2021-05-19T08:52:20.236Z</time>
      </trkpt>
      <trkpt lat="44.75435" lon="4.39332">
        <ele>733.15</ele>
        <time>2021-05-19T08:52:30.036Z</time>
      </trkpt>
      <trkpt lat="44.75431" lon="4.39318">
        <ele>731.09</ele>
        <time>2021-05-19T08:52:39.095Z</time>
      </trkpt>
      <trkpt lat="44.75423" lon="4.39306">
        <ele>729.64</ele>
        <time>2021-05-19T08:52:48.433Z</time>
      </trkpt>
      <trkpt lat="44.75414" lon="4.393">
        <ele>729.17</ele>
        <time>2021-05-19T08:52:57.634Z</time>
      </trkpt>
      <trkpt lat="44.75403" lon="4.39293">
        <ele>727.81</ele>
        <time>2021-05-19T08:53:06.972Z</time>
      </trkpt>
      <trkpt lat="44.75393" lon="4.39285">
        <ele>726.06</ele>
        <time>2021-05-19T08:53:16.854Z</time>
      </trkpt>
      <trkpt lat="44.75381" lon="4.39277">
        <ele>726.32</ele>
        <time>2021-05-19T08:53:25.999Z</time>
      </trkpt>
      <trkpt lat="44.75371" lon="4.39274">
        <ele>725.94</ele>
        <time>2021-05-19T08:53:35.449Z</time>
      </trkpt>
      <trkpt lat="44.7536" lon="4.39267">
        <ele>724.97</ele>
        <time>2021-05-19T08:53:45.398Z</time>
      </trkpt>
      <trkpt lat="44.7535" lon="4.39264">
        <ele>722.94</ele>
        <time>2021-05-19T08:53:54.577Z</time>
      </trkpt>
      <trkpt lat="44.75339" lon="4.39262">
        <ele>722.14</ele>
        <time>2021-05-19T08:54:03.817Z</time>
      </trkpt>
      <trkpt lat="44.7533" lon="4.39261">
        <ele>721.29</ele>
        <time>2021-05-19T08:54:13.059Z</time>
      </trkpt>
      <trkpt lat="44.75321" lon="4.39252">
        <ele>719.84</ele>
        <time>2021-05-19T08:54:22.358Z</time>
      </trkpt>
      <trkpt lat="44.7531" lon="4.39245">
        <ele>718.73</ele>
        <time>2021-05-19T08:54:31.766Z</time>
      </trkpt>
      <trkpt lat="44.753" lon="4.39242">
        <ele>718.69</ele>
        <time>2021-05-19T08:54:41.034Z</time>
      </trkpt>
      <trkpt lat="44.7529" lon="4.39233">
        <ele>717.01</ele>
        <time>2021-05-19T08:54:51.372Z</time>
      </trkpt>
      <trkpt lat="44.7528" lon="4.39226">
        <ele>715.74</ele>
        <time>2021-05-19T08:55:00.714Z</time>
      </trkpt>
      <trkpt lat="44.75271" lon="4.39216">
        <ele>714.75</ele>
        <time>2021-05-19T08:55:09.934Z</time>
      </trkpt>
      <trkpt lat="44.75263" lon="4.39202">
        <ele>712.67</ele>
        <time>2021-05-19T08:55:19.273Z</time>
      </trkpt>
      <trkpt lat="44.75256" lon="4.39188">
        <ele>711.54</ele>
        <time>2021-05-19T08:55:28.469Z</time>
      </trkpt>
      <trkpt lat="44.75252" lon="4.39173">
        <ele>710.71</ele>
        <time>2021-05-19T08:55:38.010Z</time>
      </trkpt>
      <trkpt lat="44.75249" lon="4.3917">
        <ele>709.2</ele>
        <time>2021-05-19T08:55:47.296Z</time>
      </trkpt>
      <trkpt lat="44.75239" lon="4.39158">
        <ele>709.09</ele>
        <time>2021-05-19T08:55:56.498Z</time>
      </trkpt>
      <trkpt lat="44.75232" lon="4.39147">
        <ele>709</ele>
        <time>2021-05-19T08:56:06.100Z</time>
      </trkpt>
      <trkpt lat="44.75226" lon="4.39136">
        <ele>707.86</ele>
        <time>2021-05-19T08:56:15.236Z</time>
      </trkpt>
      <trkpt lat="44.7522" lon="4.39127">
        <ele>706.8</ele>
        <time>2021-05-19T08:56:24.999Z</time>
      </trkpt>
      <trkpt lat="44.75223" lon="4.39126">
        <ele>704.65</ele>
        <time>2021-05-19T08:56:51.791Z</time>
      </trkpt>
      <trkpt lat="44.75223" lon="4.39121">
        <ele>706.21</ele>
        <time>2021-05-19T08:57:48.000Z</time>
      </trkpt>
      <trkpt lat="44.75222" lon="4.39121">
        <ele>705.86</ele>
        <time>2021-05-19T08:57:58.000Z</time>
      </trkpt>
      <trkpt lat="44.75225" lon="4.39124">
        <ele>707.07</ele>
        <time>2021-05-19T09:00:41.517Z</time>
      </trkpt>
      <trkpt lat="44.75222" lon="4.39127">
        <ele>706.45</ele>
        <time>2021-05-19T09:01:02.255Z</time>
      </trkpt>
      <trkpt lat="44.75221" lon="4.39128">
        <ele>706.43</ele>
        <time>2021-05-19T09:01:12.000Z</time>
      </trkpt>
      <trkpt lat="44.75221" lon="4.39128">
        <ele>705.87</ele>
        <time>2021-05-19T09:01:23.511Z</time>
      </trkpt>
      <trkpt lat="44.75221" lon="4.39117">
        <ele>705.93</ele>
        <time>2021-05-19T09:01:32.532Z</time>
      </trkpt>
      <trkpt lat="44.75218" lon="4.39101">
        <ele>706.99</ele>
        <time>2021-05-19T09:01:42.000Z</time>
      </trkpt>
      <trkpt lat="44.75222" lon="4.39111">
        <ele>704.38</ele>
        <time>2021-05-19T09:01:51.574Z</time>
      </trkpt>
      <trkpt lat="44.75222" lon="4.39128">
        <ele>706.58</ele>
        <time>2021-05-19T09:02:01.350Z</time>
      </trkpt>
      <trkpt lat="44.75221" lon="4.39131">
        <ele>706.43</ele>
        <time>2021-05-19T09:02:11.000Z</time>
      </trkpt>
      <trkpt lat="44.7522" lon="4.39133">
        <ele>707.24</ele>
        <time>2021-05-19T09:02:23.477Z</time>
      </trkpt>
      <trkpt lat="44.75221" lon="4.39139">
        <ele>708.33</ele>
        <time>2021-05-19T09:02:37.456Z</time>
      </trkpt>
      <trkpt lat="44.7522" lon="4.39139">
        <ele>709.05</ele>
        <time>2021-05-19T09:02:48.078Z</time>
      </trkpt>
      <trkpt lat="44.75221" lon="4.39134">
        <ele>708.55</ele>
        <time>2021-05-19T09:02:59.480Z</time>
      </trkpt>
      <trkpt lat="44.75217" lon="4.39133">
        <ele>706.69</ele>
        <time>2021-05-19T09:03:08.538Z</time>
      </trkpt>
      <trkpt lat="44.7521" lon="4.39139">
        <ele>708.32</ele>
        <time>2021-05-19T09:03:18.461Z</time>
      </trkpt>
      <trkpt lat="44.75201" lon="4.39135">
        <ele>707.37</ele>
        <time>2021-05-19T09:03:28.054Z</time>
      </trkpt>
      <trkpt lat="44.75195" lon="4.39128">
        <ele>704.42</ele>
        <time>2021-05-19T09:03:37.233Z</time>
      </trkpt>
      <trkpt lat="44.75187" lon="4.39132">
        <ele>703.05</ele>
        <time>2021-05-19T09:03:46.441Z</time>
      </trkpt>
      <trkpt lat="44.7518" lon="4.39139">
        <ele>701.95</ele>
        <time>2021-05-19T09:03:55.449Z</time>
      </trkpt>
      <trkpt lat="44.75174" lon="4.39141">
        <ele>699.63</ele>
        <time>2021-05-19T09:04:05.249Z</time>
      </trkpt>
      <trkpt lat="44.75166" lon="4.39139">
        <ele>700.44</ele>
        <time>2021-05-19T09:04:14.481Z</time>
      </trkpt>
      <trkpt lat="44.7516" lon="4.39146">
        <ele>697.74</ele>
        <time>2021-05-19T09:04:24.058Z</time>
      </trkpt>
      <trkpt lat="44.75152" lon="4.39146">
        <ele>697.64</ele>
        <time>2021-05-19T09:04:33.097Z</time>
      </trkpt>
      <trkpt lat="44.75144" lon="4.3915">
        <ele>695.04</ele>
        <time>2021-05-19T09:04:42.276Z</time>
      </trkpt>
      <trkpt lat="44.75138" lon="4.39157">
        <ele>694.71</ele>
        <time>2021-05-19T09:04:52.395Z</time>
      </trkpt>
      <trkpt lat="44.7514" lon="4.39164">
        <ele>693.03</ele>
        <time>2021-05-19T09:05:02.375Z</time>
      </trkpt>
      <trkpt lat="44.75144" lon="4.39174">
        <ele>691.31</ele>
        <time>2021-05-19T09:05:12.053Z</time>
      </trkpt>
      <trkpt lat="44.75143" lon="4.39183">
        <ele>687.28</ele>
        <time>2021-05-19T09:05:21.112Z</time>
      </trkpt>
      <trkpt lat="44.75137" lon="4.39194">
        <ele>688.69</ele>
        <time>2021-05-19T09:05:31.031Z</time>
      </trkpt>
      <trkpt lat="44.75127" lon="4.39197">
        <ele>687.48</ele>
        <time>2021-05-19T09:05:41.199Z</time>
      </trkpt>
      <trkpt lat="44.75117" lon="4.39203">
        <ele>686.44</ele>
        <time>2021-05-19T09:05:50.636Z</time>
      </trkpt>
      <trkpt lat="44.75117" lon="4.39193">
        <ele>682.24</ele>
        <time>2021-05-19T09:06:40.000Z</time>
      </trkpt>
      <trkpt lat="44.75115" lon="4.39194">
        <ele>680.82</ele>
        <time>2021-05-19T09:06:50.000Z</time>
      </trkpt>
      <trkpt lat="44.75111" lon="4.39192">
        <ele>683.12</ele>
        <time>2021-05-19T09:07:05.379Z</time>
      </trkpt>
      <trkpt lat="44.75105" lon="4.3919">
        <ele>684.74</ele>
        <time>2021-05-19T09:07:16.217Z</time>
      </trkpt>
      <trkpt lat="44.75095" lon="4.39178">
        <ele>685.21</ele>
        <time>2021-05-19T09:07:25.436Z</time>
      </trkpt>
      <trkpt lat="44.75089" lon="4.39173">
        <ele>686.3</ele>
        <time>2021-05-19T09:07:34.772Z</time>
      </trkpt>
      <trkpt lat="44.75084" lon="4.39169">
        <ele>686.87</ele>
        <time>2021-05-19T09:07:48.353Z</time>
      </trkpt>
      <trkpt lat="44.75065" lon="4.39158">
        <ele>687.47</ele>
        <time>2021-05-19T09:07:57.810Z</time>
      </trkpt>
      <trkpt lat="44.75052" lon="4.39156">
        <ele>688.03</ele>
        <time>2021-05-19T09:08:06.829Z</time>
      </trkpt>
      <trkpt lat="44.75042" lon="4.39155">
        <ele>688.94</ele>
        <time>2021-05-19T09:08:15.999Z</time>
      </trkpt>
      <trkpt lat="44.75035" lon="4.39156">
        <ele>689.72</ele>
        <time>2021-05-19T09:08:25.296Z</time>
      </trkpt>
      <trkpt lat="44.75025" lon="4.39156">
        <ele>690.29</ele>
        <time>2021-05-19T09:08:34.758Z</time>
      </trkpt>
      <trkpt lat="44.75022" lon="4.39158">
        <ele>691.75</ele>
        <time>2021-05-19T09:08:47.074Z</time>
      </trkpt>
      <trkpt lat="44.75015" lon="4.39163">
        <ele>692.93</ele>
        <time>2021-05-19T09:08:56.491Z</time>
      </trkpt>
      <trkpt lat="44.75008" lon="4.3916">
        <ele>693.39</ele>
        <time>2021-05-19T09:09:06.331Z</time>
      </trkpt>
      <trkpt lat="44.75004" lon="4.39155">
        <ele>694.54</ele>
        <time>2021-05-19T09:09:18.210Z</time>
      </trkpt>
      <trkpt lat="44.74999" lon="4.39143">
        <ele>695.36</ele>
        <time>2021-05-19T09:09:27.949Z</time>
      </trkpt>
      <trkpt lat="44.74989" lon="4.39122">
        <ele>695.83</ele>
        <time>2021-05-19T09:09:36.978Z</time>
      </trkpt>
      <trkpt lat="44.7498" lon="4.39104">
        <ele>696.37</ele>
        <time>2021-05-19T09:09:46.158Z</time>
      </trkpt>
      <trkpt lat="44.74971" lon="4.39089">
        <ele>698.54</ele>
        <time>2021-05-19T09:09:55.198Z</time>
      </trkpt>
      <trkpt lat="44.74962" lon="4.39081">
        <ele>700.43</ele>
        <time>2021-05-19T09:10:04.417Z</time>
      </trkpt>
      <trkpt lat="44.74953" lon="4.39072">
        <ele>700.89</ele>
        <time>2021-05-19T09:10:13.514Z</time>
      </trkpt>
      <trkpt lat="44.74937" lon="4.39053">
        <ele>703.01</ele>
        <time>2021-05-19T09:10:57.009Z</time>
      </trkpt>
      <trkpt lat="44.74919" lon="4.39037">
        <ele>704.59</ele>
        <time>2021-05-19T09:11:07.210Z</time>
      </trkpt>
      <trkpt lat="44.74908" lon="4.3903">
        <ele>705.88</ele>
        <time>2021-05-19T09:11:17.297Z</time>
      </trkpt>
      <trkpt lat="44.74896" lon="4.39024">
        <ele>707.82</ele>
        <time>2021-05-19T09:11:27.516Z</time>
      </trkpt>
      <trkpt lat="44.74889" lon="4.39019">
        <ele>710.23</ele>
        <time>2021-05-19T09:11:43.999Z</time>
      </trkpt>
      <trkpt lat="44.74873" lon="4.39011">
        <ele>711.87</ele>
        <time>2021-05-19T09:11:53.436Z</time>
      </trkpt>
      <trkpt lat="44.74861" lon="4.38997">
        <ele>714.85</ele>
        <time>2021-05-19T09:12:02.999Z</time>
      </trkpt>
      <trkpt lat="44.74856" lon="4.38993">
        <ele>717.44</ele>
        <time>2021-05-19T09:12:17.991Z</time>
      </trkpt>
      <trkpt lat="44.7484" lon="4.38979">
        <ele>718.96</ele>
        <time>2021-05-19T09:12:27.412Z</time>
      </trkpt>
      <trkpt lat="44.74831" lon="4.38967">
        <ele>720.57</ele>
        <time>2021-05-19T09:12:36.588Z</time>
      </trkpt>
      <trkpt lat="44.74826" lon="4.3895">
        <ele>725.1</ele>
        <time>2021-05-19T09:12:45.842Z</time>
      </trkpt>
      <trkpt lat="44.74823" lon="4.38938">
        <ele>722.22</ele>
        <time>2021-05-19T09:12:55.498Z</time>
      </trkpt>
      <trkpt lat="44.7482" lon="4.38927">
        <ele>720.08</ele>
        <time>2021-05-19T09:13:05.139Z</time>
      </trkpt>
      <trkpt lat="44.74814" lon="4.38915">
        <ele>719.97</ele>
        <time>2021-05-19T09:13:14.278Z</time>
      </trkpt>
      <trkpt lat="44.7481" lon="4.38911">
        <ele>718.58</ele>
        <time>2021-05-19T09:13:24.295Z</time>
      </trkpt>
      <trkpt lat="44.74803" lon="4.389">
        <ele>718.16</ele>
        <time>2021-05-19T09:13:33.794Z</time>
      </trkpt>
      <trkpt lat="44.748" lon="4.38895">
        <ele>717.25</ele>
        <time>2021-05-19T09:13:42.973Z</time>
      </trkpt>
      <trkpt lat="44.74796" lon="4.38878">
        <ele>716.63</ele>
        <time>2021-05-19T09:13:52.011Z</time>
      </trkpt>
      <trkpt lat="44.74792" lon="4.38867">
        <ele>716.46</ele>
        <time>2021-05-19T09:14:02.372Z</time>
      </trkpt>
      <trkpt lat="44.74786" lon="4.38857">
        <ele>716.71</ele>
        <time>2021-05-19T09:14:12.310Z</time>
      </trkpt>
      <trkpt lat="44.74774" lon="4.38845">
        <ele>717.55</ele>
        <time>2021-05-19T09:14:21.597Z</time>
      </trkpt>
      <trkpt lat="44.74764" lon="4.38839">
        <ele>717.85</ele>
        <time>2021-05-19T09:14:30.857Z</time>
      </trkpt>
      <trkpt lat="44.74754" lon="4.38838">
        <ele>718.37</ele>
        <time>2021-05-19T09:14:39.916Z</time>
      </trkpt>
      <trkpt lat="44.74746" lon="4.38841">
        <ele>718.9</ele>
        <time>2021-05-19T09:14:49.133Z</time>
      </trkpt>
      <trkpt lat="44.74741" lon="4.38842">
        <ele>719.27</ele>
        <time>2021-05-19T09:14:58.354Z</time>
      </trkpt>
      <trkpt lat="44.74735" lon="4.38847">
        <ele>718.04</ele>
        <time>2021-05-19T09:15:15.171Z</time>
      </trkpt>
      <trkpt lat="44.74726" lon="4.38861">
        <ele>718.06</ele>
        <time>2021-05-19T09:15:25.070Z</time>
      </trkpt>
      <trkpt lat="44.74721" lon="4.3887">
        <ele>718.28</ele>
        <time>2021-05-19T09:15:40.530Z</time>
      </trkpt>
      <trkpt lat="44.74712" lon="4.38881">
        <ele>718.84</ele>
        <time>2021-05-19T09:15:50.211Z</time>
      </trkpt>
      <trkpt lat="44.74704" lon="4.38891">
        <ele>720.37</ele>
        <time>2021-05-19T09:16:14.999Z</time>
      </trkpt>
      <trkpt lat="44.74694" lon="4.38903">
        <ele>721.56</ele>
        <time>2021-05-19T09:16:25.458Z</time>
      </trkpt>
      <trkpt lat="44.74689" lon="4.38903">
        <ele>721.54</ele>
        <time>2021-05-19T09:16:49.999Z</time>
      </trkpt>
      <trkpt lat="44.74685" lon="4.3891">
        <ele>720.65</ele>
        <time>2021-05-19T09:16:59.395Z</time>
      </trkpt>
      <trkpt lat="44.74675" lon="4.3892">
        <ele>720.86</ele>
        <time>2021-05-19T09:17:08.693Z</time>
      </trkpt>
      <trkpt lat="44.74671" lon="4.38925">
        <ele>720.34</ele>
        <time>2021-05-19T09:17:17.933Z</time>
      </trkpt>
      <trkpt lat="44.74664" lon="4.3893">
        <ele>719.95</ele>
        <time>2021-05-19T09:17:27.131Z</time>
      </trkpt>
      <trkpt lat="44.74659" lon="4.38921">
        <ele>722.03</ele>
        <time>2021-05-19T09:17:36.450Z</time>
      </trkpt>
      <trkpt lat="44.7465" lon="4.38901">
        <ele>722.85</ele>
        <time>2021-05-19T09:17:45.999Z</time>
      </trkpt>
      <trkpt lat="44.74642" lon="4.38892">
        <ele>723.62</ele>
        <time>2021-05-19T09:17:56.458Z</time>
      </trkpt>
      <trkpt lat="44.74636" lon="4.38883">
        <ele>723.89</ele>
        <time>2021-05-19T09:18:06.569Z</time>
      </trkpt>
      <trkpt lat="44.74631" lon="4.3888">
        <ele>722.23</ele>
        <time>2021-05-19T09:18:16.398Z</time>
      </trkpt>
      <trkpt lat="44.74628" lon="4.3887">
        <ele>724.19</ele>
        <time>2021-05-19T09:18:25.957Z</time>
      </trkpt>
      <trkpt lat="44.74621" lon="4.38861">
        <ele>727.39</ele>
        <time>2021-05-19T09:18:35.415Z</time>
      </trkpt>
      <trkpt lat="44.74615" lon="4.38858">
        <ele>727.76</ele>
        <time>2021-05-19T09:18:44.457Z</time>
      </trkpt>
      <trkpt lat="44.74608" lon="4.38853">
        <ele>728.93</ele>
        <time>2021-05-19T09:18:53.573Z</time>
      </trkpt>
      <trkpt lat="44.74599" lon="4.38845">
        <ele>731.28</ele>
        <time>2021-05-19T09:19:03.071Z</time>
      </trkpt>
      <trkpt lat="44.74593" lon="4.38838">
        <ele>731.99</ele>
        <time>2021-05-19T09:19:12.432Z</time>
      </trkpt>
      <trkpt lat="44.74593" lon="4.38827">
        <ele>733.51</ele>
        <time>2021-05-19T09:19:22.009Z</time>
      </trkpt>
      <trkpt lat="44.74587" lon="4.38811">
        <ele>735</ele>
        <time>2021-05-19T09:19:31.178Z</time>
      </trkpt>
      <trkpt lat="44.7458" lon="4.38804">
        <ele>735.17</ele>
        <time>2021-05-19T09:19:40.297Z</time>
      </trkpt>
      <trkpt lat="44.74572" lon="4.38795">
        <ele>738.4</ele>
        <time>2021-05-19T09:19:50.376Z</time>
      </trkpt>
      <trkpt lat="44.74571" lon="4.38793">
        <ele>739.72</ele>
        <time>2021-05-19T09:20:01.574Z</time>
      </trkpt>
      <trkpt lat="44.74559" lon="4.38786">
        <ele>740.73</ele>
        <time>2021-05-19T09:20:10.953Z</time>
      </trkpt>
      <trkpt lat="44.74551" lon="4.38781">
        <ele>741</ele>
        <time>2021-05-19T09:20:20.132Z</time>
      </trkpt>
      <trkpt lat="44.74542" lon="4.38781">
        <ele>743.18</ele>
        <time>2021-05-19T09:20:29.212Z</time>
      </trkpt>
      <trkpt lat="44.74534" lon="4.38784">
        <ele>743.06</ele>
        <time>2021-05-19T09:20:38.430Z</time>
      </trkpt>
      <trkpt lat="44.74527" lon="4.38787">
        <ele>743.49</ele>
        <time>2021-05-19T09:20:47.488Z</time>
      </trkpt>
      <trkpt lat="44.74517" lon="4.38791">
        <ele>741.82</ele>
        <time>2021-05-19T09:20:56.617Z</time>
      </trkpt>
      <trkpt lat="44.74507" lon="4.38794">
        <ele>743.04</ele>
        <time>2021-05-19T09:21:06.000Z</time>
      </trkpt>
      <trkpt lat="44.74498" lon="4.38797">
        <ele>743.56</ele>
        <time>2021-05-19T09:21:15.296Z</time>
      </trkpt>
      <trkpt lat="44.74489" lon="4.38799">
        <ele>744.73</ele>
        <time>2021-05-19T09:21:24.645Z</time>
      </trkpt>
      <trkpt lat="44.74479" lon="4.38801">
        <ele>745.38</ele>
        <time>2021-05-19T09:21:34.235Z</time>
      </trkpt>
      <trkpt lat="44.74468" lon="4.38803">
        <ele>745.76</ele>
        <time>2021-05-19T09:21:43.757Z</time>
      </trkpt>
      <trkpt lat="44.74458" lon="4.38801">
        <ele>748.72</ele>
        <time>2021-05-19T09:21:53.273Z</time>
      </trkpt>
      <trkpt lat="44.74447" lon="4.38801">
        <ele>747.69</ele>
        <time>2021-05-19T09:22:02.412Z</time>
      </trkpt>
      <trkpt lat="44.74437" lon="4.38802">
        <ele>748.29</ele>
        <time>2021-05-19T09:22:11.472Z</time>
      </trkpt>
      <trkpt lat="44.74427" lon="4.38801">
        <ele>748.24</ele>
        <time>2021-05-19T09:22:21.179Z</time>
      </trkpt>
      <trkpt lat="44.74421" lon="4.38801">
        <ele>750.21</ele>
        <time>2021-05-19T09:22:31.459Z</time>
      </trkpt>
      <trkpt lat="44.74411" lon="4.38803">
        <ele>750.49</ele>
        <time>2021-05-19T09:22:40.775Z</time>
      </trkpt>
      <trkpt lat="44.74401" lon="4.38808">
        <ele>750.75</ele>
        <time>2021-05-19T09:22:50.473Z</time>
      </trkpt>
      <trkpt lat="44.74394" lon="4.38814">
        <ele>751.81</ele>
        <time>2021-05-19T09:23:00.233Z</time>
      </trkpt>
      <trkpt lat="44.74385" lon="4.38826">
        <ele>752.59</ele>
        <time>2021-05-19T09:23:09.412Z</time>
      </trkpt>
      <trkpt lat="44.7438" lon="4.38834">
        <ele>753.18</ele>
        <time>2021-05-19T09:23:18.491Z</time>
      </trkpt>
      <trkpt lat="44.74377" lon="4.38844">
        <ele>752.79</ele>
        <time>2021-05-19T09:23:28.232Z</time>
      </trkpt>
      <trkpt lat="44.74372" lon="4.38856">
        <ele>750.34</ele>
        <time>2021-05-19T09:23:37.668Z</time>
      </trkpt>
      <trkpt lat="44.74367" lon="4.38866">
        <ele>752.66</ele>
        <time>2021-05-19T09:23:47.289Z</time>
      </trkpt>
      <trkpt lat="44.74362" lon="4.38879">
        <ele>754.6</ele>
        <time>2021-05-19T09:23:56.551Z</time>
      </trkpt>
      <trkpt lat="44.74357" lon="4.38893">
        <ele>756.25</ele>
        <time>2021-05-19T09:24:06.370Z</time>
      </trkpt>
      <trkpt lat="44.74354" lon="4.38902">
        <ele>758.03</ele>
        <time>2021-05-19T09:24:16.448Z</time>
      </trkpt>
      <trkpt lat="44.74352" lon="4.3891">
        <ele>759.75</ele>
        <time>2021-05-19T09:24:26.000Z</time>
      </trkpt>
      <trkpt lat="44.74351" lon="4.3892">
        <ele>761.59</ele>
        <time>2021-05-19T09:24:36.397Z</time>
      </trkpt>
      <trkpt lat="44.74351" lon="4.38933">
        <ele>764.71</ele>
        <time>2021-05-19T09:24:46.058Z</time>
      </trkpt>
      <trkpt lat="44.7435" lon="4.38943">
        <ele>765.4</ele>
        <time>2021-05-19T09:24:56.338Z</time>
      </trkpt>
      <trkpt lat="44.74343" lon="4.38945">
        <ele>766.09</ele>
        <time>2021-05-19T09:25:05.895Z</time>
      </trkpt>
      <trkpt lat="44.74335" lon="4.38947">
        <ele>766.1</ele>
        <time>2021-05-19T09:25:14.974Z</time>
      </trkpt>
      <trkpt lat="44.74327" lon="4.38952">
        <ele>767.43</ele>
        <time>2021-05-19T09:25:24.000Z</time>
      </trkpt>
      <trkpt lat="44.7432" lon="4.38961">
        <ele>768.25</ele>
        <time>2021-05-19T09:25:33.494Z</time>
      </trkpt>
      <trkpt lat="44.74312" lon="4.38969">
        <ele>768.83</ele>
        <time>2021-05-19T09:25:43.413Z</time>
      </trkpt>
      <trkpt lat="44.74307" lon="4.38975">
        <ele>769.9</ele>
        <time>2021-05-19T09:25:52.531Z</time>
      </trkpt>
      <trkpt lat="44.74298" lon="4.38989">
        <ele>770.68</ele>
        <time>2021-05-19T09:26:02.150Z</time>
      </trkpt>
      <trkpt lat="44.74293" lon="4.38993">
        <ele>769.97</ele>
        <time>2021-05-19T09:26:11.990Z</time>
      </trkpt>
      <trkpt lat="44.74287" lon="4.38991">
        <ele>770.11</ele>
        <time>2021-05-19T09:26:21.018Z</time>
      </trkpt>
      <trkpt lat="44.74279" lon="4.38984">
        <ele>768.84</ele>
        <time>2021-05-19T09:26:30.378Z</time>
      </trkpt>
      <trkpt lat="44.74272" lon="4.38977">
        <ele>770.02</ele>
        <time>2021-05-19T09:26:40.000Z</time>
      </trkpt>
      <trkpt lat="44.74265" lon="4.38971">
        <ele>769.16</ele>
        <time>2021-05-19T09:26:49.441Z</time>
      </trkpt>
      <trkpt lat="44.74257" lon="4.38968">
        <ele>771.52</ele>
        <time>2021-05-19T09:26:58.613Z</time>
      </trkpt>
      <trkpt lat="44.74247" lon="4.38966">
        <ele>771.85</ele>
        <time>2021-05-19T09:27:08.000Z</time>
      </trkpt>
      <trkpt lat="44.74241" lon="4.38965">
        <ele>772.35</ele>
        <time>2021-05-19T09:27:18.232Z</time>
      </trkpt>
      <trkpt lat="44.74237" lon="4.38964">
        <ele>772.54</ele>
        <time>2021-05-19T09:27:27.770Z</time>
      </trkpt>
      <trkpt lat="44.74228" lon="4.38966">
        <ele>772.28</ele>
        <time>2021-05-19T09:27:37.009Z</time>
      </trkpt>
      <trkpt lat="44.74218" lon="4.38965">
        <ele>774.08</ele>
        <time>2021-05-19T09:27:46.517Z</time>
      </trkpt>
      <trkpt lat="44.74212" lon="4.38966">
        <ele>774.35</ele>
        <time>2021-05-19T09:28:08.534Z</time>
      </trkpt>
      <trkpt lat="44.742" lon="4.38967">
        <ele>774.6</ele>
        <time>2021-05-19T09:28:17.674Z</time>
      </trkpt>
      <trkpt lat="44.74189" lon="4.38968">
        <ele>774.09</ele>
        <time>2021-05-19T09:28:27.394Z</time>
      </trkpt>
      <trkpt lat="44.7418" lon="4.38971">
        <ele>772.09</ele>
        <time>2021-05-19T09:28:36.937Z</time>
      </trkpt>
      <trkpt lat="44.74172" lon="4.38978">
        <ele>775.82</ele>
        <time>2021-05-19T09:28:46.071Z</time>
      </trkpt>
      <trkpt lat="44.74164" lon="4.38986">
        <ele>775.69</ele>
        <time>2021-05-19T09:28:56.170Z</time>
      </trkpt>
      <trkpt lat="44.74158" lon="4.38989">
        <ele>774.44</ele>
        <time>2021-05-19T09:29:06.312Z</time>
      </trkpt>
      <trkpt lat="44.74136" lon="4.38988">
        <ele>767.75</ele>
        <time>2021-05-19T09:30:20.212Z</time>
      </trkpt>
      <trkpt lat="44.74138" lon="4.38978">
        <ele>767.87</ele>
        <time>2021-05-19T09:30:29.390Z</time>
      </trkpt>
      <trkpt lat="44.7414" lon="4.38962">
        <ele>767.87</ele>
        <time>2021-05-19T09:30:38.858Z</time>
      </trkpt>
      <trkpt lat="44.74135" lon="4.38944">
        <ele>769.35</ele>
        <time>2021-05-19T09:30:47.916Z</time>
      </trkpt>
      <trkpt lat="44.74128" lon="4.38927">
        <ele>768.37</ele>
        <time>2021-05-19T09:30:57.357Z</time>
      </trkpt>
      <trkpt lat="44.74124" lon="4.38913">
        <ele>769.58</ele>
        <time>2021-05-19T09:31:06.456Z</time>
      </trkpt>
      <trkpt lat="44.74118" lon="4.38904">
        <ele>770.25</ele>
        <time>2021-05-19T09:31:15.774Z</time>
      </trkpt>
      <trkpt lat="44.74117" lon="4.3889">
        <ele>769.7</ele>
        <time>2021-05-19T09:31:25.236Z</time>
      </trkpt>
      <trkpt lat="44.74113" lon="4.3888">
        <ele>772.62</ele>
        <time>2021-05-19T09:31:34.354Z</time>
      </trkpt>
      <trkpt lat="44.74107" lon="4.38869">
        <ele>774.81</ele>
        <time>2021-05-19T09:31:43.492Z</time>
      </trkpt>
      <trkpt lat="44.74106" lon="4.3887">
        <ele>775.55</ele>
        <time>2021-05-19T09:31:55.293Z</time>
      </trkpt>
      <trkpt lat="44.74096" lon="4.38869">
        <ele>775.38</ele>
        <time>2021-05-19T09:32:04.999Z</time>
      </trkpt>
      <trkpt lat="44.74086" lon="4.38865">
        <ele>776.06</ele>
        <time>2021-05-19T09:32:14.999Z</time>
      </trkpt>
      <trkpt lat="44.74082" lon="4.38865">
        <ele>776.99</ele>
        <time>2021-05-19T09:32:24.828Z</time>
      </trkpt>
      <trkpt lat="44.74073" lon="4.38865">
        <ele>777.21</ele>
        <time>2021-05-19T09:32:33.871Z</time>
      </trkpt>
      <trkpt lat="44.74064" lon="4.38865">
        <ele>778.11</ele>
        <time>2021-05-19T09:32:43.348Z</time>
      </trkpt>
      <trkpt lat="44.74053" lon="4.38865">
        <ele>778.28</ele>
        <time>2021-05-19T09:32:53.398Z</time>
      </trkpt>
      <trkpt lat="44.74045" lon="4.38864">
        <ele>778.93</ele>
        <time>2021-05-19T09:33:02.817Z</time>
      </trkpt>
      <trkpt lat="44.74035" lon="4.3886">
        <ele>779.93</ele>
        <time>2021-05-19T09:33:12.495Z</time>
      </trkpt>
      <trkpt lat="44.74027" lon="4.38855">
        <ele>780.56</ele>
        <time>2021-05-19T09:33:22.419Z</time>
      </trkpt>
      <trkpt lat="44.74019" lon="4.38852">
        <ele>780.49</ele>
        <time>2021-05-19T09:33:32.456Z</time>
      </trkpt>
      <trkpt lat="44.7401" lon="4.38847">
        <ele>780.21</ele>
        <time>2021-05-19T09:33:42.014Z</time>
      </trkpt>
      <trkpt lat="44.73999" lon="4.38843">
        <ele>780.42</ele>
        <time>2021-05-19T09:33:51.533Z</time>
      </trkpt>
      <trkpt lat="44.73991" lon="4.38838">
        <ele>780.16</ele>
        <time>2021-05-19T09:34:01.113Z</time>
      </trkpt>
      <trkpt lat="44.73982" lon="4.38831">
        <ele>782.53</ele>
        <time>2021-05-19T09:34:10.332Z</time>
      </trkpt>
      <trkpt lat="44.73972" lon="4.3883">
        <ele>782.22</ele>
        <time>2021-05-19T09:34:19.831Z</time>
      </trkpt>
      <trkpt lat="44.73966" lon="4.38825">
        <ele>782.65</ele>
        <time>2021-05-19T09:34:28.999Z</time>
      </trkpt>
      <trkpt lat="44.73967" lon="4.38827">
        <ele>781.96</ele>
        <time>2021-05-19T09:34:49.999Z</time>
      </trkpt>
      <trkpt lat="44.7396" lon="4.38821">
        <ele>781.97</ele>
        <time>2021-05-19T09:34:59.534Z</time>
      </trkpt>
      <trkpt lat="44.73948" lon="4.38822">
        <ele>783.99</ele>
        <time>2021-05-19T09:35:08.772Z</time>
      </trkpt>
      <trkpt lat="44.7394" lon="4.38827">
        <ele>784.46</ele>
        <time>2021-05-19T09:35:18.016Z</time>
      </trkpt>
      <trkpt lat="44.73932" lon="4.38829">
        <ele>783.28</ele>
        <time>2021-05-19T09:35:27.056Z</time>
      </trkpt>
      <trkpt lat="44.73926" lon="4.38832">
        <ele>782.37</ele>
        <time>2021-05-19T09:35:36.489Z</time>
      </trkpt>
      <trkpt lat="44.73923" lon="4.38835">
        <ele>783.55</ele>
        <time>2021-05-19T09:35:47.999Z</time>
      </trkpt>
      <trkpt lat="44.73917" lon="4.38839">
        <ele>783.16</ele>
        <time>2021-05-19T09:35:57.032Z</time>
      </trkpt>
      <trkpt lat="44.73913" lon="4.38843">
        <ele>782.93</ele>
        <time>2021-05-19T09:36:06.999Z</time>
      </trkpt>
      <trkpt lat="44.73912" lon="4.38844">
        <ele>782.58</ele>
        <time>2021-05-19T09:36:30.859Z</time>
      </trkpt>
      <trkpt lat="44.73905" lon="4.38853">
        <ele>782.26</ele>
        <time>2021-05-19T09:36:39.917Z</time>
      </trkpt>
      <trkpt lat="44.73896" lon="4.38865">
        <ele>783.98</ele>
        <time>2021-05-19T09:36:49.118Z</time>
      </trkpt>
      <trkpt lat="44.73888" lon="4.38873">
        <ele>784.11</ele>
        <time>2021-05-19T09:36:58.339Z</time>
      </trkpt>
      <trkpt lat="44.73882" lon="4.3888">
        <ele>783.49</ele>
        <time>2021-05-19T09:37:07.428Z</time>
      </trkpt>
      <trkpt lat="44.73877" lon="4.3889">
        <ele>782.26</ele>
        <time>2021-05-19T09:37:16.514Z</time>
      </trkpt>
      <trkpt lat="44.7387" lon="4.38901">
        <ele>782.72</ele>
        <time>2021-05-19T09:37:25.978Z</time>
      </trkpt>
      <trkpt lat="44.73861" lon="4.3891">
        <ele>782.14</ele>
        <time>2021-05-19T09:37:35.318Z</time>
      </trkpt>
      <trkpt lat="44.73852" lon="4.38924">
        <ele>780.4</ele>
        <time>2021-05-19T09:37:45.337Z</time>
      </trkpt>
      <trkpt lat="44.73841" lon="4.38933">
        <ele>780.32</ele>
        <time>2021-05-19T09:37:54.496Z</time>
      </trkpt>
      <trkpt lat="44.73835" lon="4.38944">
        <ele>778.81</ele>
        <time>2021-05-19T09:38:03.759Z</time>
      </trkpt>
      <trkpt lat="44.73833" lon="4.38953">
        <ele>776.7</ele>
        <time>2021-05-19T09:38:13.519Z</time>
      </trkpt>
      <trkpt lat="44.73829" lon="4.38963">
        <ele>777.74</ele>
        <time>2021-05-19T09:38:23.394Z</time>
      </trkpt>
      <trkpt lat="44.73823" lon="4.38976">
        <ele>777.72</ele>
        <time>2021-05-19T09:38:33.312Z</time>
      </trkpt>
      <trkpt lat="44.73818" lon="4.38992">
        <ele>777.25</ele>
        <time>2021-05-19T09:38:42.331Z</time>
      </trkpt>
      <trkpt lat="44.73813" lon="4.38998">
        <ele>777.01</ele>
        <time>2021-05-19T09:38:51.553Z</time>
      </trkpt>
      <trkpt lat="44.73807" lon="4.39011">
        <ele>777.06</ele>
        <time>2021-05-19T09:39:01.119Z</time>
      </trkpt>
      <trkpt lat="44.73799" lon="4.39024">
        <ele>776.45</ele>
        <time>2021-05-19T09:39:10.476Z</time>
      </trkpt>
      <trkpt lat="44.7379" lon="4.39033">
        <ele>776.62</ele>
        <time>2021-05-19T09:39:19.761Z</time>
      </trkpt>
      <trkpt lat="44.73783" lon="4.39041">
        <ele>777.53</ele>
        <time>2021-05-19T09:39:29.016Z</time>
      </trkpt>
      <trkpt lat="44.73777" lon="4.39045">
        <ele>776.25</ele>
        <time>2021-05-19T09:39:41.094Z</time>
      </trkpt>
      <trkpt lat="44.73764" lon="4.39059">
        <ele>775.6</ele>
        <time>2021-05-19T09:39:51.013Z</time>
      </trkpt>
      <trkpt lat="44.73759" lon="4.39064">
        <ele>774.84</ele>
        <time>2021-05-19T09:40:00.953Z</time>
      </trkpt>
      <trkpt lat="44.73752" lon="4.39058">
        <ele>773.89</ele>
        <time>2021-05-19T09:40:10.000Z</time>
      </trkpt>
      <trkpt lat="44.7375" lon="4.39064">
        <ele>772.47</ele>
        <time>2021-05-19T09:40:32.393Z</time>
      </trkpt>
      <trkpt lat="44.73751" lon="4.39066">
        <ele>772.08</ele>
        <time>2021-05-19T09:40:43.270Z</time>
      </trkpt>
      <trkpt lat="44.73748" lon="4.39077">
        <ele>772.09</ele>
        <time>2021-05-19T09:40:52.530Z</time>
      </trkpt>
      <trkpt lat="44.7374" lon="4.39092">
        <ele>772.82</ele>
        <time>2021-05-19T09:41:01.970Z</time>
      </trkpt>
      <trkpt lat="44.73734" lon="4.39104">
        <ele>775.49</ele>
        <time>2021-05-19T09:41:11.000Z</time>
      </trkpt>
      <trkpt lat="44.73733" lon="4.39104">
        <ele>775.23</ele>
        <time>2021-05-19T09:41:33.438Z</time>
      </trkpt>
      <trkpt lat="44.73726" lon="4.39113">
        <ele>777.4</ele>
        <time>2021-05-19T09:41:43.214Z</time>
      </trkpt>
      <trkpt lat="44.73719" lon="4.39122">
        <ele>776.8</ele>
        <time>2021-05-19T09:41:52.476Z</time>
      </trkpt>
      <trkpt lat="44.73712" lon="4.39129">
        <ele>776.87</ele>
        <time>2021-05-19T09:42:01.713Z</time>
      </trkpt>
      <trkpt lat="44.73701" lon="4.39128">
        <ele>777.89</ele>
        <time>2021-05-19T09:42:10.936Z</time>
      </trkpt>
      <trkpt lat="44.73691" lon="4.39122">
        <ele>778.58</ele>
        <time>2021-05-19T09:42:20.236Z</time>
      </trkpt>
      <trkpt lat="44.73683" lon="4.39116">
        <ele>778.57</ele>
        <time>2021-05-19T09:42:30.454Z</time>
      </trkpt>
      <trkpt lat="44.73677" lon="4.39111">
        <ele>779.18</ele>
        <time>2021-05-19T09:42:40.352Z</time>
      </trkpt>
      <trkpt lat="44.73671" lon="4.391">
        <ele>784.15</ele>
        <time>2021-05-19T09:42:50.000Z</time>
      </trkpt>
      <trkpt lat="44.73668" lon="4.391">
        <ele>784.84</ele>
        <time>2021-05-19T09:42:59.129Z</time>
      </trkpt>
      <trkpt lat="44.7366" lon="4.39097">
        <ele>783.46</ele>
        <time>2021-05-19T09:43:08.218Z</time>
      </trkpt>
      <trkpt lat="44.73651" lon="4.39094">
        <ele>784.05</ele>
        <time>2021-05-19T09:43:17.597Z</time>
      </trkpt>
      <trkpt lat="44.73645" lon="4.39089">
        <ele>782.3</ele>
        <time>2021-05-19T09:43:27.536Z</time>
      </trkpt>
      <trkpt lat="44.73637" lon="4.39083">
        <ele>784.01</ele>
        <time>2021-05-19T09:43:37.553Z</time>
      </trkpt>
      <trkpt lat="44.73627" lon="4.39082">
        <ele>787.82</ele>
        <time>2021-05-19T09:43:46.756Z</time>
      </trkpt>
      <trkpt lat="44.73618" lon="4.39083">
        <ele>787.79</ele>
        <time>2021-05-19T09:43:56.000Z</time>
      </trkpt>
      <trkpt lat="44.73612" lon="4.39091">
        <ele>789.04</ele>
        <time>2021-05-19T09:44:05.313Z</time>
      </trkpt>
      <trkpt lat="44.73604" lon="4.39096">
        <ele>788.93</ele>
        <time>2021-05-19T09:44:14.511Z</time>
      </trkpt>
      <trkpt lat="44.73594" lon="4.39099">
        <ele>790.45</ele>
        <time>2021-05-19T09:44:23.772Z</time>
      </trkpt>
      <trkpt lat="44.73583" lon="4.39099">
        <ele>792.69</ele>
        <time>2021-05-19T09:44:33.138Z</time>
      </trkpt>
      <trkpt lat="44.73573" lon="4.39102">
        <ele>792.02</ele>
        <time>2021-05-19T09:44:42.238Z</time>
      </trkpt>
      <trkpt lat="44.73562" lon="4.39107">
        <ele>790.85</ele>
        <time>2021-05-19T09:44:51.515Z</time>
      </trkpt>
      <trkpt lat="44.73551" lon="4.3911">
        <ele>792.19</ele>
        <time>2021-05-19T09:45:00.696Z</time>
      </trkpt>
      <trkpt lat="44.7354" lon="4.39112">
        <ele>792.58</ele>
        <time>2021-05-19T09:45:10.554Z</time>
      </trkpt>
      <trkpt lat="44.73528" lon="4.39115">
        <ele>792.53</ele>
        <time>2021-05-19T09:45:20.553Z</time>
      </trkpt>
      <trkpt lat="44.73517" lon="4.39117">
        <ele>792.78</ele>
        <time>2021-05-19T09:45:29.622Z</time>
      </trkpt>
      <trkpt lat="44.73506" lon="4.39118">
        <ele>792.5</ele>
        <time>2021-05-19T09:45:38.952Z</time>
      </trkpt>
      <trkpt lat="44.73495" lon="4.3912">
        <ele>792.44</ele>
        <time>2021-05-19T09:45:48.111Z</time>
      </trkpt>
      <trkpt lat="44.73484" lon="4.39123">
        <ele>793.12</ele>
        <time>2021-05-19T09:45:57.452Z</time>
      </trkpt>
      <trkpt lat="44.73474" lon="4.39126">
        <ele>794.47</ele>
        <time>2021-05-19T09:46:06.832Z</time>
      </trkpt>
      <trkpt lat="44.73462" lon="4.39127">
        <ele>793.99</ele>
        <time>2021-05-19T09:46:15.890Z</time>
      </trkpt>
      <trkpt lat="44.73451" lon="4.39118">
        <ele>796.78</ele>
        <time>2021-05-19T09:46:24.908Z</time>
      </trkpt>
      <trkpt lat="44.73439" lon="4.39111">
        <ele>794.77</ele>
        <time>2021-05-19T09:46:35.317Z</time>
      </trkpt>
      <trkpt lat="44.73429" lon="4.39104">
        <ele>794.32</ele>
        <time>2021-05-19T09:46:44.958Z</time>
      </trkpt>
      <trkpt lat="44.7342" lon="4.39098">
        <ele>795.96</ele>
        <time>2021-05-19T09:46:54.476Z</time>
      </trkpt>
      <trkpt lat="44.7341" lon="4.39092">
        <ele>794.64</ele>
        <time>2021-05-19T09:47:03.773Z</time>
      </trkpt>
      <trkpt lat="44.73398" lon="4.39088">
        <ele>793.84</ele>
        <time>2021-05-19T09:47:13.000Z</time>
      </trkpt>
      <trkpt lat="44.73387" lon="4.39093">
        <ele>793.68</ele>
        <time>2021-05-19T09:47:22.136Z</time>
      </trkpt>
      <trkpt lat="44.73375" lon="4.39097">
        <ele>792.98</ele>
        <time>2021-05-19T09:47:32.494Z</time>
      </trkpt>
      <trkpt lat="44.73364" lon="4.39106">
        <ele>793.91</ele>
        <time>2021-05-19T09:47:42.314Z</time>
      </trkpt>
      <trkpt lat="44.73351" lon="4.3911">
        <ele>796.48</ele>
        <time>2021-05-19T09:47:52.192Z</time>
      </trkpt>
      <trkpt lat="44.73341" lon="4.39116">
        <ele>795.51</ele>
        <time>2021-05-19T09:48:01.473Z</time>
      </trkpt>
      <trkpt lat="44.73334" lon="4.39126">
        <ele>795.19</ele>
        <time>2021-05-19T09:48:11.191Z</time>
      </trkpt>
      <trkpt lat="44.73324" lon="4.39123">
        <ele>794.35</ele>
        <time>2021-05-19T09:48:20.420Z</time>
      </trkpt>
      <trkpt lat="44.73312" lon="4.39124">
        <ele>794.54</ele>
        <time>2021-05-19T09:48:30.438Z</time>
      </trkpt>
      <trkpt lat="44.73304" lon="4.39129">
        <ele>791.16</ele>
        <time>2021-05-19T09:48:39.796Z</time>
      </trkpt>
      <trkpt lat="44.73301" lon="4.39131">
        <ele>787.91</ele>
        <time>2021-05-19T09:48:49.075Z</time>
      </trkpt>
      <trkpt lat="44.73287" lon="4.39135">
        <ele>787.31</ele>
        <time>2021-05-19T09:48:58.513Z</time>
      </trkpt>
      <trkpt lat="44.73275" lon="4.39141">
        <ele>786.41</ele>
        <time>2021-05-19T09:49:07.914Z</time>
      </trkpt>
      <trkpt lat="44.73264" lon="4.39146">
        <ele>785.54</ele>
        <time>2021-05-19T09:49:17.353Z</time>
      </trkpt>
      <trkpt lat="44.73252" lon="4.39151">
        <ele>784.49</ele>
        <time>2021-05-19T09:49:27.192Z</time>
      </trkpt>
      <trkpt lat="44.73242" lon="4.39153">
        <ele>782.93</ele>
        <time>2021-05-19T09:49:36.456Z</time>
      </trkpt>
      <trkpt lat="44.73233" lon="4.39154">
        <ele>782.22</ele>
        <time>2021-05-19T09:49:45.790Z</time>
      </trkpt>
      <trkpt lat="44.73221" lon="4.39158">
        <ele>781.48</ele>
        <time>2021-05-19T09:49:55.000Z</time>
      </trkpt>
      <trkpt lat="44.73211" lon="4.39163">
        <ele>780.39</ele>
        <time>2021-05-19T09:50:04.337Z</time>
      </trkpt>
      <trkpt lat="44.73199" lon="4.39168">
        <ele>778.61</ele>
        <time>2021-05-19T09:50:13.554Z</time>
      </trkpt>
      <trkpt lat="44.7319" lon="4.39176">
        <ele>777.93</ele>
        <time>2021-05-19T09:50:22.853Z</time>
      </trkpt>
      <trkpt lat="44.7318" lon="4.39182">
        <ele>777.41</ele>
        <time>2021-05-19T09:50:32.174Z</time>
      </trkpt>
      <trkpt lat="44.73167" lon="4.39189">
        <ele>777.82</ele>
        <time>2021-05-19T09:50:41.999Z</time>
      </trkpt>
      <trkpt lat="44.73156" lon="4.39191">
        <ele>775.71</ele>
        <time>2021-05-19T09:50:51.292Z</time>
      </trkpt>
      <trkpt lat="44.73146" lon="4.39188">
        <ele>775.06</ele>
        <time>2021-05-19T09:51:01.150Z</time>
      </trkpt>
      <trkpt lat="44.73137" lon="4.39188">
        <ele>775.19</ele>
        <time>2021-05-19T09:51:10.456Z</time>
      </trkpt>
      <trkpt lat="44.73124" lon="4.39191">
        <ele>775.2</ele>
        <time>2021-05-19T09:51:20.280Z</time>
      </trkpt>
      <trkpt lat="44.73112" lon="4.39198">
        <ele>775.13</ele>
        <time>2021-05-19T09:51:29.999Z</time>
      </trkpt>
      <trkpt lat="44.73102" lon="4.39204">
        <ele>775.2</ele>
        <time>2021-05-19T09:51:40.078Z</time>
      </trkpt>
      <trkpt lat="44.73094" lon="4.39214">
        <ele>774.49</ele>
        <time>2021-05-19T09:51:49.515Z</time>
      </trkpt>
      <trkpt lat="44.73081" lon="4.39223">
        <ele>773.27</ele>
        <time>2021-05-19T09:51:59.396Z</time>
      </trkpt>
      <trkpt lat="44.7307" lon="4.39218">
        <ele>774.58</ele>
        <time>2021-05-19T09:52:08.793Z</time>
      </trkpt>
      <trkpt lat="44.73064" lon="4.39207">
        <ele>772.02</ele>
        <time>2021-05-19T09:52:17.852Z</time>
      </trkpt>
      <trkpt lat="44.7306" lon="4.39196">
        <ele>771.29</ele>
        <time>2021-05-19T09:52:26.999Z</time>
      </trkpt>
      <trkpt lat="44.73055" lon="4.39186">
        <ele>771.69</ele>
        <time>2021-05-19T09:52:36.186Z</time>
      </trkpt>
      <trkpt lat="44.73045" lon="4.39174">
        <ele>770.97</ele>
        <time>2021-05-19T09:52:45.559Z</time>
      </trkpt>
      <trkpt lat="44.73042" lon="4.39172">
        <ele>771.64</ele>
        <time>2021-05-19T09:52:54.962Z</time>
      </trkpt>
      <trkpt lat="44.73033" lon="4.39162">
        <ele>770.51</ele>
        <time>2021-05-19T09:53:04.417Z</time>
      </trkpt>
      <trkpt lat="44.73027" lon="4.39154">
        <ele>767.33</ele>
        <time>2021-05-19T09:53:13.837Z</time>
      </trkpt>
      <trkpt lat="44.73022" lon="4.39146">
        <ele>766.44</ele>
        <time>2021-05-19T09:53:22.995Z</time>
      </trkpt>
      <trkpt lat="44.73018" lon="4.39135">
        <ele>765.03</ele>
        <time>2021-05-19T09:53:32.354Z</time>
      </trkpt>
      <trkpt lat="44.7301" lon="4.39125">
        <ele>764.25</ele>
        <time>2021-05-19T09:53:42.218Z</time>
      </trkpt>
      <trkpt lat="44.73001" lon="4.39117">
        <ele>763.37</ele>
        <time>2021-05-19T09:53:51.553Z</time>
      </trkpt>
      <trkpt lat="44.72992" lon="4.39111">
        <ele>761.89</ele>
        <time>2021-05-19T09:54:00.992Z</time>
      </trkpt>
      <trkpt lat="44.72981" lon="4.391">
        <ele>761.14</ele>
        <time>2021-05-19T09:54:10.870Z</time>
      </trkpt>
      <trkpt lat="44.7297" lon="4.39096">
        <ele>759.76</ele>
        <time>2021-05-19T09:54:20.810Z</time>
      </trkpt>
      <trkpt lat="44.72958" lon="4.39105">
        <ele>760</ele>
        <time>2021-05-19T09:54:29.999Z</time>
      </trkpt>
      <trkpt lat="44.72949" lon="4.39109">
        <ele>758.93</ele>
        <time>2021-05-19T09:54:39.298Z</time>
      </trkpt>
      <trkpt lat="44.72938" lon="4.3911">
        <ele>756.78</ele>
        <time>2021-05-19T09:54:48.561Z</time>
      </trkpt>
      <trkpt lat="44.72928" lon="4.39113">
        <ele>756.31</ele>
        <time>2021-05-19T09:54:57.838Z</time>
      </trkpt>
      <trkpt lat="44.72917" lon="4.39116">
        <ele>755.61</ele>
        <time>2021-05-19T09:55:07.196Z</time>
      </trkpt>
      <trkpt lat="44.72905" lon="4.39117">
        <ele>753.81</ele>
        <time>2021-05-19T09:55:16.716Z</time>
      </trkpt>
      <trkpt lat="44.72894" lon="4.39114">
        <ele>753.08</ele>
        <time>2021-05-19T09:55:25.975Z</time>
      </trkpt>
      <trkpt lat="44.72883" lon="4.39111">
        <ele>751.51</ele>
        <time>2021-05-19T09:55:35.293Z</time>
      </trkpt>
      <trkpt lat="44.72872" lon="4.39107">
        <ele>750.71</ele>
        <time>2021-05-19T09:55:44.764Z</time>
      </trkpt>
      <trkpt lat="44.72863" lon="4.39103">
        <ele>749.28</ele>
        <time>2021-05-19T09:55:54.151Z</time>
      </trkpt>
      <trkpt lat="44.72855" lon="4.39095">
        <ele>750.25</ele>
        <time>2021-05-19T09:56:03.999Z</time>
      </trkpt>
      <trkpt lat="44.72856" lon="4.39092">
        <ele>749.27</ele>
        <time>2021-05-19T09:56:27.417Z</time>
      </trkpt>
      <trkpt lat="44.72856" lon="4.39081">
        <ele>744.5</ele>
        <time>2021-05-19T09:56:37.215Z</time>
      </trkpt>
      <trkpt lat="44.72849" lon="4.39069">
        <ele>744.85</ele>
        <time>2021-05-19T09:56:46.593Z</time>
      </trkpt>
      <trkpt lat="44.72843" lon="4.3906">
        <ele>744.92</ele>
        <time>2021-05-19T09:56:55.674Z</time>
      </trkpt>
      <trkpt lat="44.72838" lon="4.39048">
        <ele>743.6</ele>
        <time>2021-05-19T09:57:04.954Z</time>
      </trkpt>
      <trkpt lat="44.72834" lon="4.39032">
        <ele>741.41</ele>
        <time>2021-05-19T09:57:14.334Z</time>
      </trkpt>
      <trkpt lat="44.72826" lon="4.39038">
        <ele>740.21</ele>
        <time>2021-05-19T09:57:24.332Z</time>
      </trkpt>
      <trkpt lat="44.72823" lon="4.39053">
        <ele>739.04</ele>
        <time>2021-05-19T09:57:33.831Z</time>
      </trkpt>
      <trkpt lat="44.72817" lon="4.39059">
        <ele>737.93</ele>
        <time>2021-05-19T09:57:43.070Z</time>
      </trkpt>
      <trkpt lat="44.7282" lon="4.39057">
        <ele>736.97</ele>
        <time>2021-05-19T09:58:03.999Z</time>
      </trkpt>
      <trkpt lat="44.72819" lon="4.3906">
        <ele>737.26</ele>
        <time>2021-05-19T09:58:53.999Z</time>
      </trkpt>
      <trkpt lat="44.7282" lon="4.39061">
        <ele>736.65</ele>
        <time>2021-05-19T10:01:36.000Z</time>
      </trkpt>
      <trkpt lat="44.72822" lon="4.39056">
        <ele>738.93</ele>
        <time>2021-05-19T10:04:01.479Z</time>
      </trkpt>
      <trkpt lat="44.72816" lon="4.3905">
        <ele>737.71</ele>
        <time>2021-05-19T10:04:10.975Z</time>
      </trkpt>
      <trkpt lat="44.72814" lon="4.39036">
        <ele>736.86</ele>
        <time>2021-05-19T10:04:20.154Z</time>
      </trkpt>
      <trkpt lat="44.72805" lon="4.39025">
        <ele>735.86</ele>
        <time>2021-05-19T10:04:29.555Z</time>
      </trkpt>
      <trkpt lat="44.7279" lon="4.39025">
        <ele>736.74</ele>
        <time>2021-05-19T10:04:39.194Z</time>
      </trkpt>
      <trkpt lat="44.72777" lon="4.39024">
        <ele>735.68</ele>
        <time>2021-05-19T10:04:49.174Z</time>
      </trkpt>
      <trkpt lat="44.7277" lon="4.39022">
        <ele>734.92</ele>
        <time>2021-05-19T10:04:58.434Z</time>
      </trkpt>
      <trkpt lat="44.7276" lon="4.39023">
        <ele>735.87</ele>
        <time>2021-05-19T10:05:08.150Z</time>
      </trkpt>
      <trkpt lat="44.72758" lon="4.39019">
        <ele>733.86</ele>
        <time>2021-05-19T10:05:17.688Z</time>
      </trkpt>
      <trkpt lat="44.72747" lon="4.39022">
        <ele>732.86</ele>
        <time>2021-05-19T10:05:27.517Z</time>
      </trkpt>
      <trkpt lat="44.72736" lon="4.39018">
        <ele>730.64</ele>
        <time>2021-05-19T10:05:37.058Z</time>
      </trkpt>
      <trkpt lat="44.72724" lon="4.39024">
        <ele>732.28</ele>
        <time>2021-05-19T10:05:47.257Z</time>
      </trkpt>
      <trkpt lat="44.72722" lon="4.39023">
        <ele>732.6</ele>
        <time>2021-05-19T10:05:58.058Z</time>
      </trkpt>
      <trkpt lat="44.72708" lon="4.39018">
        <ele>733.16</ele>
        <time>2021-05-19T10:06:07.537Z</time>
      </trkpt>
      <trkpt lat="44.72695" lon="4.39014">
        <ele>733.09</ele>
        <time>2021-05-19T10:06:16.974Z</time>
      </trkpt>
      <trkpt lat="44.72682" lon="4.39014">
        <ele>732.86</ele>
        <time>2021-05-19T10:06:26.532Z</time>
      </trkpt>
      <trkpt lat="44.72671" lon="4.39018">
        <ele>732.07</ele>
        <time>2021-05-19T10:06:35.791Z</time>
      </trkpt>
      <trkpt lat="44.7266" lon="4.39021">
        <ele>730.99</ele>
        <time>2021-05-19T10:06:45.053Z</time>
      </trkpt>
      <trkpt lat="44.72649" lon="4.39021">
        <ele>731.16</ele>
        <time>2021-05-19T10:06:54.491Z</time>
      </trkpt>
      <trkpt lat="44.72637" lon="4.39021">
        <ele>730.67</ele>
        <time>2021-05-19T10:07:04.029Z</time>
      </trkpt>
      <trkpt lat="44.72623" lon="4.39022">
        <ele>729.36</ele>
        <time>2021-05-19T10:07:13.508Z</time>
      </trkpt>
      <trkpt lat="44.72611" lon="4.39018">
        <ele>728.86</ele>
        <time>2021-05-19T10:07:22.989Z</time>
      </trkpt>
      <trkpt lat="44.72597" lon="4.39018">
        <ele>727.12</ele>
        <time>2021-05-19T10:07:32.438Z</time>
      </trkpt>
      <trkpt lat="44.72588" lon="4.39013">
        <ele>725.66</ele>
        <time>2021-05-19T10:07:41.440Z</time>
      </trkpt>
      <trkpt lat="44.72578" lon="4.3901">
        <ele>724.5</ele>
        <time>2021-05-19T10:07:50.716Z</time>
      </trkpt>
      <trkpt lat="44.72568" lon="4.39009">
        <ele>726.68</ele>
        <time>2021-05-19T10:07:59.935Z</time>
      </trkpt>
      <trkpt lat="44.72556" lon="4.39013">
        <ele>724.6</ele>
        <time>2021-05-19T10:08:08.994Z</time>
      </trkpt>
      <trkpt lat="44.72543" lon="4.39015">
        <ele>721.73</ele>
        <time>2021-05-19T10:08:18.111Z</time>
      </trkpt>
      <trkpt lat="44.72533" lon="4.39011">
        <ele>721.33</ele>
        <time>2021-05-19T10:08:27.291Z</time>
      </trkpt>
      <trkpt lat="44.72523" lon="4.3901">
        <ele>721.03</ele>
        <time>2021-05-19T10:08:36.410Z</time>
      </trkpt>
      <trkpt lat="44.72512" lon="4.39009">
        <ele>720.95</ele>
        <time>2021-05-19T10:08:46.089Z</time>
      </trkpt>
      <trkpt lat="44.725" lon="4.39009">
        <ele>719.74</ele>
        <time>2021-05-19T10:08:55.271Z</time>
      </trkpt>
      <trkpt lat="44.72491" lon="4.39007">
        <ele>719.26</ele>
        <time>2021-05-19T10:09:05.237Z</time>
      </trkpt>
      <trkpt lat="44.72479" lon="4.39004">
        <ele>718.38</ele>
        <time>2021-05-19T10:09:14.421Z</time>
      </trkpt>
      <trkpt lat="44.72466" lon="4.39003">
        <ele>717.48</ele>
        <time>2021-05-19T10:09:23.979Z</time>
      </trkpt>
      <trkpt lat="44.72455" lon="4.39006">
        <ele>717.17</ele>
        <time>2021-05-19T10:09:33.076Z</time>
      </trkpt>
      <trkpt lat="44.72445" lon="4.39009">
        <ele>716.15</ele>
        <time>2021-05-19T10:09:42.295Z</time>
      </trkpt>
      <trkpt lat="44.72435" lon="4.39015">
        <ele>715.86</ele>
        <time>2021-05-19T10:09:51.876Z</time>
      </trkpt>
      <trkpt lat="44.72423" lon="4.39021">
        <ele>714.79</ele>
        <time>2021-05-19T10:10:01.476Z</time>
      </trkpt>
      <trkpt lat="44.72411" lon="4.39027">
        <ele>714.25</ele>
        <time>2021-05-19T10:10:11.093Z</time>
      </trkpt>
      <trkpt lat="44.72398" lon="4.3904">
        <ele>714.92</ele>
        <time>2021-05-19T10:10:21.211Z</time>
      </trkpt>
      <trkpt lat="44.72389" lon="4.39047">
        <ele>711.91</ele>
        <time>2021-05-19T10:10:30.434Z</time>
      </trkpt>
      <trkpt lat="44.7238" lon="4.39055">
        <ele>711.7</ele>
        <time>2021-05-19T10:10:40.190Z</time>
      </trkpt>
      <trkpt lat="44.7237" lon="4.39064">
        <ele>711.43</ele>
        <time>2021-05-19T10:10:49.388Z</time>
      </trkpt>
      <trkpt lat="44.7236" lon="4.39076">
        <ele>711.7</ele>
        <time>2021-05-19T10:10:58.618Z</time>
      </trkpt>
      <trkpt lat="44.72349" lon="4.39089">
        <ele>710.57</ele>
        <time>2021-05-19T10:11:07.858Z</time>
      </trkpt>
      <trkpt lat="44.72342" lon="4.39104">
        <ele>709.82</ele>
        <time>2021-05-19T10:11:17.177Z</time>
      </trkpt>
      <trkpt lat="44.72334" lon="4.39122">
        <ele>709.29</ele>
        <time>2021-05-19T10:11:27.395Z</time>
      </trkpt>
      <trkpt lat="44.72326" lon="4.39137">
        <ele>708.81</ele>
        <time>2021-05-19T10:11:37.072Z</time>
      </trkpt>
      <trkpt lat="44.72319" lon="4.39148">
        <ele>707.94</ele>
        <time>2021-05-19T10:11:46.292Z</time>
      </trkpt>
      <trkpt lat="44.72311" lon="4.39157">
        <ele>706.4</ele>
        <time>2021-05-19T10:11:56.050Z</time>
      </trkpt>
      <trkpt lat="44.72306" lon="4.39174">
        <ele>707.25</ele>
        <time>2021-05-19T10:12:05.819Z</time>
      </trkpt>
      <trkpt lat="44.72302" lon="4.39193">
        <ele>708.04</ele>
        <time>2021-05-19T10:12:15.597Z</time>
      </trkpt>
      <trkpt lat="44.72294" lon="4.39205">
        <ele>706.5</ele>
        <time>2021-05-19T10:12:25.498Z</time>
      </trkpt>
      <trkpt lat="44.7229" lon="4.39221">
        <ele>705.62</ele>
        <time>2021-05-19T10:12:35.275Z</time>
      </trkpt>
      <trkpt lat="44.72288" lon="4.39236">
        <ele>704.8</ele>
        <time>2021-05-19T10:12:44.476Z</time>
      </trkpt>
      <trkpt lat="44.72284" lon="4.39249">
        <ele>703.55</ele>
        <time>2021-05-19T10:12:53.537Z</time>
      </trkpt>
      <trkpt lat="44.7228" lon="4.39264">
        <ele>702.71</ele>
        <time>2021-05-19T10:13:03.275Z</time>
      </trkpt>
      <trkpt lat="44.72277" lon="4.3928">
        <ele>702.06</ele>
        <time>2021-05-19T10:13:12.498Z</time>
      </trkpt>
      <trkpt lat="44.72273" lon="4.39296">
        <ele>702.16</ele>
        <time>2021-05-19T10:13:22.315Z</time>
      </trkpt>
      <trkpt lat="44.72269" lon="4.39313">
        <ele>700.11</ele>
        <time>2021-05-19T10:13:31.673Z</time>
      </trkpt>
      <trkpt lat="44.72265" lon="4.39328">
        <ele>700.17</ele>
        <time>2021-05-19T10:13:41.452Z</time>
      </trkpt>
      <trkpt lat="44.72263" lon="4.39345">
        <ele>699.76</ele>
        <time>2021-05-19T10:13:50.618Z</time>
      </trkpt>
      <trkpt lat="44.7226" lon="4.39359">
        <ele>698.88</ele>
        <time>2021-05-19T10:13:59.933Z</time>
      </trkpt>
      <trkpt lat="44.72256" lon="4.39374">
        <ele>697.61</ele>
        <time>2021-05-19T10:14:09.148Z</time>
      </trkpt>
      <trkpt lat="44.72254" lon="4.3939">
        <ele>697.05</ele>
        <time>2021-05-19T10:14:18.519Z</time>
      </trkpt>
      <trkpt lat="44.72256" lon="4.39406">
        <ele>696.21</ele>
        <time>2021-05-19T10:14:27.783Z</time>
      </trkpt>
      <trkpt lat="44.72263" lon="4.39419">
        <ele>695</ele>
        <time>2021-05-19T10:14:37.077Z</time>
      </trkpt>
      <trkpt lat="44.72271" lon="4.39432">
        <ele>693.98</ele>
        <time>2021-05-19T10:14:46.896Z</time>
      </trkpt>
      <trkpt lat="44.72279" lon="4.39445">
        <ele>693.7</ele>
        <time>2021-05-19T10:14:56.174Z</time>
      </trkpt>
      <trkpt lat="44.72281" lon="4.39462">
        <ele>693.72</ele>
        <time>2021-05-19T10:15:05.999Z</time>
      </trkpt>
      <trkpt lat="44.72273" lon="4.39473">
        <ele>693</ele>
        <time>2021-05-19T10:15:15.032Z</time>
      </trkpt>
      <trkpt lat="44.72261" lon="4.39476">
        <ele>693.12</ele>
        <time>2021-05-19T10:15:25.113Z</time>
      </trkpt>
      <trkpt lat="44.72253" lon="4.39469">
        <ele>691.19</ele>
        <time>2021-05-19T10:15:34.508Z</time>
      </trkpt>
      <trkpt lat="44.72244" lon="4.39459">
        <ele>690.94</ele>
        <time>2021-05-19T10:15:44.017Z</time>
      </trkpt>
      <trkpt lat="44.72235" lon="4.39451">
        <ele>690.1</ele>
        <time>2021-05-19T10:15:53.415Z</time>
      </trkpt>
      <trkpt lat="44.72228" lon="4.3944">
        <ele>690.23</ele>
        <time>2021-05-19T10:16:03.056Z</time>
      </trkpt>
      <trkpt lat="44.72219" lon="4.3943">
        <ele>689.71</ele>
        <time>2021-05-19T10:16:12.296Z</time>
      </trkpt>
      <trkpt lat="44.7221" lon="4.39419">
        <ele>689.68</ele>
        <time>2021-05-19T10:16:21.633Z</time>
      </trkpt>
      <trkpt lat="44.72199" lon="4.3941">
        <ele>689.26</ele>
        <time>2021-05-19T10:16:30.873Z</time>
      </trkpt>
      <trkpt lat="44.72189" lon="4.39403">
        <ele>688.76</ele>
        <time>2021-05-19T10:16:40.072Z</time>
      </trkpt>
      <trkpt lat="44.72178" lon="4.39397">
        <ele>687.65</ele>
        <time>2021-05-19T10:16:49.350Z</time>
      </trkpt>
      <trkpt lat="44.72166" lon="4.39394">
        <ele>687.12</ele>
        <time>2021-05-19T10:16:59.210Z</time>
      </trkpt>
      <trkpt lat="44.72157" lon="4.39391">
        <ele>686.93</ele>
        <time>2021-05-19T10:17:08.699Z</time>
      </trkpt>
      <trkpt lat="44.72146" lon="4.39395">
        <ele>686.43</ele>
        <time>2021-05-19T10:17:18.096Z</time>
      </trkpt>
      <trkpt lat="44.72134" lon="4.39393">
        <ele>685.23</ele>
        <time>2021-05-19T10:17:27.355Z</time>
      </trkpt>
      <trkpt lat="44.72124" lon="4.39394">
        <ele>684.19</ele>
        <time>2021-05-19T10:17:36.794Z</time>
      </trkpt>
      <trkpt lat="44.72114" lon="4.3939">
        <ele>683.38</ele>
        <time>2021-05-19T10:17:46.154Z</time>
      </trkpt>
      <trkpt lat="44.72105" lon="4.39384">
        <ele>682.57</ele>
        <time>2021-05-19T10:17:55.392Z</time>
      </trkpt>
      <trkpt lat="44.72095" lon="4.39383">
        <ele>681.89</ele>
        <time>2021-05-19T10:18:04.999Z</time>
      </trkpt>
      <trkpt lat="44.72087" lon="4.39377">
        <ele>680.19</ele>
        <time>2021-05-19T10:18:14.250Z</time>
      </trkpt>
      <trkpt lat="44.72075" lon="4.39373">
        <ele>678.34</ele>
        <time>2021-05-19T10:18:23.370Z</time>
      </trkpt>
      <trkpt lat="44.72064" lon="4.39375">
        <ele>677.91</ele>
        <time>2021-05-19T10:18:32.676Z</time>
      </trkpt>
      <trkpt lat="44.72052" lon="4.39382">
        <ele>678.34</ele>
        <time>2021-05-19T10:18:41.878Z</time>
      </trkpt>
      <trkpt lat="44.7204" lon="4.39391">
        <ele>677.12</ele>
        <time>2021-05-19T10:18:51.037Z</time>
      </trkpt>
      <trkpt lat="44.72029" lon="4.39397">
        <ele>676.53</ele>
        <time>2021-05-19T10:19:00.157Z</time>
      </trkpt>
      <trkpt lat="44.72019" lon="4.39404">
        <ele>674.83</ele>
        <time>2021-05-19T10:19:09.238Z</time>
      </trkpt>
      <trkpt lat="44.72006" lon="4.39408">
        <ele>673.72</ele>
        <time>2021-05-19T10:19:18.999Z</time>
      </trkpt>
      <trkpt lat="44.71994" lon="4.3941">
        <ele>672.33</ele>
        <time>2021-05-19T10:19:28.999Z</time>
      </trkpt>
      <trkpt lat="44.71985" lon="4.39412">
        <ele>671.93</ele>
        <time>2021-05-19T10:19:38.437Z</time>
      </trkpt>
      <trkpt lat="44.71975" lon="4.39416">
        <ele>671.61</ele>
        <time>2021-05-19T10:19:48.235Z</time>
      </trkpt>
      <trkpt lat="44.7196" lon="4.39425">
        <ele>671.79</ele>
        <time>2021-05-19T10:19:58.054Z</time>
      </trkpt>
      <trkpt lat="44.71951" lon="4.39426">
        <ele>670.64</ele>
        <time>2021-05-19T10:20:07.993Z</time>
      </trkpt>
      <trkpt lat="44.71941" lon="4.39427">
        <ele>669.89</ele>
        <time>2021-05-19T10:20:17.033Z</time>
      </trkpt>
      <trkpt lat="44.71931" lon="4.39423">
        <ele>671.05</ele>
        <time>2021-05-19T10:20:26.553Z</time>
      </trkpt>
      <trkpt lat="44.71926" lon="4.39418">
        <ele>668.96</ele>
        <time>2021-05-19T10:20:36.570Z</time>
      </trkpt>
      <trkpt lat="44.71922" lon="4.39413">
        <ele>668.83</ele>
        <time>2021-05-19T10:20:58.440Z</time>
      </trkpt>
      <trkpt lat="44.71911" lon="4.3941">
        <ele>666.97</ele>
        <time>2021-05-19T10:21:07.977Z</time>
      </trkpt>
      <trkpt lat="44.7191" lon="4.39412">
        <ele>667.94</ele>
        <time>2021-05-19T10:21:17.000Z</time>
      </trkpt>
      <trkpt lat="44.7191" lon="4.3941">
        <ele>667.53</ele>
        <time>2021-05-19T10:21:30.835Z</time>
      </trkpt>
      <trkpt lat="44.71907" lon="4.39406">
        <ele>665.15</ele>
        <time>2021-05-19T10:21:41.000Z</time>
      </trkpt>
      <trkpt lat="44.71906" lon="4.39405">
        <ele>665.71</ele>
        <time>2021-05-19T10:21:51.114Z</time>
      </trkpt>
      <trkpt lat="44.71895" lon="4.39394">
        <ele>665.26</ele>
        <time>2021-05-19T10:22:00.275Z</time>
      </trkpt>
      <trkpt lat="44.71883" lon="4.39383">
        <ele>663.93</ele>
        <time>2021-05-19T10:22:10.032Z</time>
      </trkpt>
      <trkpt lat="44.71874" lon="4.39376">
        <ele>662.68</ele>
        <time>2021-05-19T10:22:19.432Z</time>
      </trkpt>
      <trkpt lat="44.71867" lon="4.39368">
        <ele>661.99</ele>
        <time>2021-05-19T10:22:29.460Z</time>
      </trkpt>
      <trkpt lat="44.7186" lon="4.39355">
        <ele>660.6</ele>
        <time>2021-05-19T10:22:39.421Z</time>
      </trkpt>
      <trkpt lat="44.71858" lon="4.3934">
        <ele>659.77</ele>
        <time>2021-05-19T10:22:48.856Z</time>
      </trkpt>
      <trkpt lat="44.7186" lon="4.39328">
        <ele>658.79</ele>
        <time>2021-05-19T10:22:58.054Z</time>
      </trkpt>
      <trkpt lat="44.71862" lon="4.39298">
        <ele>657.1</ele>
      </trkpt>
      <trkpt lat="44.71856" lon="4.39302">
        <ele>655.9</ele>
      </trkpt>
      <trkpt lat="44.71856" lon="4.39303">
        <ele>659.68</ele>
        <time>2021-05-19T12:22:36.032Z</time>
      </trkpt>
      <trkpt lat="44.71849" lon="4.39313">
        <ele>659.48</ele>
        <time>2021-05-19T12:22:45.388Z</time>
      </trkpt>
      <trkpt lat="44.71845" lon="4.39323">
        <ele>659.99</ele>
        <time>2021-05-19T12:22:54.450Z</time>
      </trkpt>
      <trkpt lat="44.71842" lon="4.39334">
        <ele>659.53</ele>
        <time>2021-05-19T12:23:04.000Z</time>
      </trkpt>
      <trkpt lat="44.7184" lon="4.39338">
        <ele>659.87</ele>
        <time>2021-05-19T12:23:14.307Z</time>
      </trkpt>
      <trkpt lat="44.71837" lon="4.39351">
        <ele>659.34</ele>
        <time>2021-05-19T12:23:24.000Z</time>
      </trkpt>
      <trkpt lat="44.71833" lon="4.39358">
        <ele>660.66</ele>
        <time>2021-05-19T12:23:33.395Z</time>
      </trkpt>
      <trkpt lat="44.71826" lon="4.39376">
        <ele>658.13</ele>
        <time>2021-05-19T12:23:42.854Z</time>
      </trkpt>
      <trkpt lat="44.71826" lon="4.39388">
        <ele>657.36</ele>
        <time>2021-05-19T12:23:52.254Z</time>
      </trkpt>
      <trkpt lat="44.71832" lon="4.39403">
        <ele>657.92</ele>
        <time>2021-05-19T12:24:01.694Z</time>
      </trkpt>
      <trkpt lat="44.71841" lon="4.39413">
        <ele>656.91</ele>
        <time>2021-05-19T12:24:11.000Z</time>
      </trkpt>
      <trkpt lat="44.71838" lon="4.39413">
        <ele>657.01</ele>
        <time>2021-05-19T12:24:24.000Z</time>
      </trkpt>
      <trkpt lat="44.71837" lon="4.39417">
        <ele>656.61</ele>
        <time>2021-05-19T12:24:38.000Z</time>
      </trkpt>
      <trkpt lat="44.71839" lon="4.39417">
        <ele>655.73</ele>
        <time>2021-05-19T12:24:49.000Z</time>
      </trkpt>
      <trkpt lat="44.71842" lon="4.39418">
        <ele>654.85</ele>
        <time>2021-05-19T12:24:58.213Z</time>
      </trkpt>
      <trkpt lat="44.71844" lon="4.39417">
        <ele>654.38</ele>
        <time>2021-05-19T12:25:18.000Z</time>
      </trkpt>
      <trkpt lat="44.71848" lon="4.39421">
        <ele>653.88</ele>
        <time>2021-05-19T12:25:28.000Z</time>
      </trkpt>
      <trkpt lat="44.71853" lon="4.39427">
        <ele>654.75</ele>
        <time>2021-05-19T12:25:37.571Z</time>
      </trkpt>
      <trkpt lat="44.71855" lon="4.39429">
        <ele>654.37</ele>
        <time>2021-05-19T12:25:47.369Z</time>
      </trkpt>
      <trkpt lat="44.71861" lon="4.39436">
        <ele>654.44</ele>
        <time>2021-05-19T12:25:57.449Z</time>
      </trkpt>
      <trkpt lat="44.71869" lon="4.39445">
        <ele>654.86</ele>
        <time>2021-05-19T12:26:07.228Z</time>
      </trkpt>
      <trkpt lat="44.71877" lon="4.39452">
        <ele>654.21</ele>
        <time>2021-05-19T12:26:16.358Z</time>
      </trkpt>
      <trkpt lat="44.71888" lon="4.3946">
        <ele>654.14</ele>
        <time>2021-05-19T12:26:25.816Z</time>
      </trkpt>
      <trkpt lat="44.71898" lon="4.39465">
        <ele>651.41</ele>
        <time>2021-05-19T12:26:34.835Z</time>
      </trkpt>
      <trkpt lat="44.71907" lon="4.39473">
        <ele>651.37</ele>
        <time>2021-05-19T12:26:44.355Z</time>
      </trkpt>
      <trkpt lat="44.71917" lon="4.39478">
        <ele>651.02</ele>
        <time>2021-05-19T12:26:53.795Z</time>
      </trkpt>
      <trkpt lat="44.71926" lon="4.39486">
        <ele>650.34</ele>
        <time>2021-05-19T12:27:03.354Z</time>
      </trkpt>
      <trkpt lat="44.71935" lon="4.39493">
        <ele>649.28</ele>
        <time>2021-05-19T12:27:13.134Z</time>
      </trkpt>
      <trkpt lat="44.71935" lon="4.39496">
        <ele>650.44</ele>
        <time>2021-05-19T12:27:23.471Z</time>
      </trkpt>
      <trkpt lat="44.71936" lon="4.39498">
        <ele>647.68</ele>
        <time>2021-05-19T12:27:54.377Z</time>
      </trkpt>
      <trkpt lat="44.71941" lon="4.395">
        <ele>648.15</ele>
        <time>2021-05-19T12:28:05.076Z</time>
      </trkpt>
      <trkpt lat="44.71941" lon="4.39497">
        <ele>647.38</ele>
        <time>2021-05-19T12:28:15.194Z</time>
      </trkpt>
      <trkpt lat="44.7195" lon="4.39504">
        <ele>646.88</ele>
        <time>2021-05-19T12:28:25.177Z</time>
      </trkpt>
      <trkpt lat="44.71959" lon="4.39517">
        <ele>646.58</ele>
        <time>2021-05-19T12:28:34.211Z</time>
      </trkpt>
      <trkpt lat="44.71967" lon="4.39519">
        <ele>643.8</ele>
        <time>2021-05-19T12:28:43.421Z</time>
      </trkpt>
      <trkpt lat="44.71974" lon="4.39527">
        <ele>642.61</ele>
        <time>2021-05-19T12:28:52.432Z</time>
      </trkpt>
      <trkpt lat="44.71985" lon="4.39531">
        <ele>641.02</ele>
        <time>2021-05-19T12:29:01.989Z</time>
      </trkpt>
      <trkpt lat="44.71989" lon="4.39541">
        <ele>638.86</ele>
        <time>2021-05-19T12:29:11.229Z</time>
      </trkpt>
      <trkpt lat="44.71996" lon="4.39549">
        <ele>637.65</ele>
        <time>2021-05-19T12:29:20.650Z</time>
      </trkpt>
      <trkpt lat="44.72" lon="4.39558">
        <ele>635.36</ele>
        <time>2021-05-19T12:29:29.679Z</time>
      </trkpt>
      <trkpt lat="44.72009" lon="4.39562">
        <ele>633.19</ele>
        <time>2021-05-19T12:29:38.777Z</time>
      </trkpt>
      <trkpt lat="44.72018" lon="4.3956">
        <ele>631.86</ele>
        <time>2021-05-19T12:29:47.819Z</time>
      </trkpt>
      <trkpt lat="44.72022" lon="4.3956">
        <ele>630.57</ele>
        <time>2021-05-19T12:29:57.516Z</time>
      </trkpt>
      <trkpt lat="44.7202" lon="4.3956">
        <ele>628.51</ele>
        <time>2021-05-19T12:30:25.374Z</time>
      </trkpt>
      <trkpt lat="44.72021" lon="4.3955">
        <ele>628.67</ele>
        <time>2021-05-19T12:30:34.999Z</time>
      </trkpt>
      <trkpt lat="44.72026" lon="4.39538">
        <ele>628.93</ele>
        <time>2021-05-19T12:30:44.170Z</time>
      </trkpt>
      <trkpt lat="44.72033" lon="4.39531">
        <ele>629.17</ele>
        <time>2021-05-19T12:30:53.531Z</time>
      </trkpt>
      <trkpt lat="44.72037" lon="4.39522">
        <ele>629.9</ele>
        <time>2021-05-19T12:31:03.338Z</time>
      </trkpt>
      <trkpt lat="44.72045" lon="4.39512">
        <ele>629.16</ele>
        <time>2021-05-19T12:31:13.357Z</time>
      </trkpt>
      <trkpt lat="44.72055" lon="4.39511">
        <ele>627.9</ele>
        <time>2021-05-19T12:31:22.836Z</time>
      </trkpt>
      <trkpt lat="44.72067" lon="4.39517">
        <ele>627.2</ele>
        <time>2021-05-19T12:31:32.295Z</time>
      </trkpt>
      <trkpt lat="44.72079" lon="4.39528">
        <ele>627.16</ele>
        <time>2021-05-19T12:31:41.632Z</time>
      </trkpt>
      <trkpt lat="44.72085" lon="4.39538">
        <ele>628.52</ele>
        <time>2021-05-19T12:31:50.912Z</time>
      </trkpt>
      <trkpt lat="44.72092" lon="4.39539">
        <ele>627.09</ele>
        <time>2021-05-19T12:32:00.510Z</time>
      </trkpt>
      <trkpt lat="44.72106" lon="4.39542">
        <ele>624.35</ele>
        <time>2021-05-19T12:32:10.109Z</time>
      </trkpt>
      <trkpt lat="44.72115" lon="4.39543">
        <ele>624.11</ele>
        <time>2021-05-19T12:32:19.718Z</time>
      </trkpt>
      <trkpt lat="44.72123" lon="4.39544">
        <ele>621.94</ele>
        <time>2021-05-19T12:32:29.197Z</time>
      </trkpt>
      <trkpt lat="44.72127" lon="4.39558">
        <ele>623.26</ele>
        <time>2021-05-19T12:32:38.496Z</time>
      </trkpt>
      <trkpt lat="44.72122" lon="4.39574">
        <ele>623.2</ele>
        <time>2021-05-19T12:32:47.573Z</time>
      </trkpt>
      <trkpt lat="44.72121" lon="4.39586">
        <ele>622.59</ele>
        <time>2021-05-19T12:32:56.612Z</time>
      </trkpt>
      <trkpt lat="44.72129" lon="4.39594">
        <ele>622.04</ele>
        <time>2021-05-19T12:33:06.153Z</time>
      </trkpt>
      <trkpt lat="44.72127" lon="4.39609">
        <ele>619.97</ele>
        <time>2021-05-19T12:33:15.449Z</time>
      </trkpt>
      <trkpt lat="44.72126" lon="4.39629">
        <ele>619.88</ele>
        <time>2021-05-19T12:33:25.389Z</time>
      </trkpt>
      <trkpt lat="44.72117" lon="4.39644">
        <ele>620.77</ele>
        <time>2021-05-19T12:33:35.378Z</time>
      </trkpt>
      <trkpt lat="44.72105" lon="4.39643">
        <ele>619.53</ele>
        <time>2021-05-19T12:33:44.438Z</time>
      </trkpt>
      <trkpt lat="44.72096" lon="4.39644">
        <ele>618.16</ele>
        <time>2021-05-19T12:33:54.515Z</time>
      </trkpt>
      <trkpt lat="44.72093" lon="4.39658">
        <ele>618.12</ele>
        <time>2021-05-19T12:34:04.075Z</time>
      </trkpt>
      <trkpt lat="44.72092" lon="4.3967">
        <ele>619.82</ele>
        <time>2021-05-19T12:34:13.260Z</time>
      </trkpt>
      <trkpt lat="44.7209" lon="4.39684">
        <ele>620.64</ele>
        <time>2021-05-19T12:34:22.832Z</time>
      </trkpt>
      <trkpt lat="44.72088" lon="4.39694">
        <ele>620.82</ele>
        <time>2021-05-19T12:34:32.052Z</time>
      </trkpt>
      <trkpt lat="44.72085" lon="4.397">
        <ele>621.5</ele>
        <time>2021-05-19T12:34:41.453Z</time>
      </trkpt>
      <trkpt lat="44.7208" lon="4.39713">
        <ele>620.62</ele>
        <time>2021-05-19T12:34:50.992Z</time>
      </trkpt>
      <trkpt lat="44.72073" lon="4.39725">
        <ele>619.74</ele>
        <time>2021-05-19T12:35:00.170Z</time>
      </trkpt>
      <trkpt lat="44.72072" lon="4.39738">
        <ele>618.6</ele>
        <time>2021-05-19T12:35:09.419Z</time>
      </trkpt>
      <trkpt lat="44.72071" lon="4.39749">
        <ele>617.53</ele>
        <time>2021-05-19T12:35:19.298Z</time>
      </trkpt>
      <trkpt lat="44.72071" lon="4.39757">
        <ele>616.44</ele>
        <time>2021-05-19T12:35:28.999Z</time>
      </trkpt>
      <trkpt lat="44.72072" lon="4.39763">
        <ele>616.2</ele>
        <time>2021-05-19T12:35:45.555Z</time>
      </trkpt>
      <trkpt lat="44.72071" lon="4.39777">
        <ele>616.18</ele>
        <time>2021-05-19T12:35:55.353Z</time>
      </trkpt>
      <trkpt lat="44.72065" lon="4.3979">
        <ele>616.17</ele>
        <time>2021-05-19T12:36:05.309Z</time>
      </trkpt>
      <trkpt lat="44.7206" lon="4.39799">
        <ele>615.43</ele>
        <time>2021-05-19T12:36:15.010Z</time>
      </trkpt>
      <trkpt lat="44.72057" lon="4.39802">
        <ele>615.1</ele>
        <time>2021-05-19T12:36:26.229Z</time>
      </trkpt>
      <trkpt lat="44.72045" lon="4.39809">
        <ele>615.32</ele>
        <time>2021-05-19T12:36:35.410Z</time>
      </trkpt>
      <trkpt lat="44.72038" lon="4.39818">
        <ele>614.91</ele>
        <time>2021-05-19T12:36:45.197Z</time>
      </trkpt>
      <trkpt lat="44.7203" lon="4.39827">
        <ele>612.71</ele>
        <time>2021-05-19T12:36:54.417Z</time>
      </trkpt>
      <trkpt lat="44.7202" lon="4.39837">
        <ele>611.34</ele>
        <time>2021-05-19T12:37:04.155Z</time>
      </trkpt>
      <trkpt lat="44.72014" lon="4.39847">
        <ele>605.88</ele>
        <time>2021-05-19T12:37:13.378Z</time>
      </trkpt>
      <trkpt lat="44.72014" lon="4.39855">
        <ele>607.63</ele>
        <time>2021-05-19T12:37:22.774Z</time>
      </trkpt>
      <trkpt lat="44.72008" lon="4.39872">
        <ele>606.86</ele>
        <time>2021-05-19T12:37:32.193Z</time>
      </trkpt>
      <trkpt lat="44.72006" lon="4.39879">
        <ele>604.06</ele>
        <time>2021-05-19T12:37:41.692Z</time>
      </trkpt>
      <trkpt lat="44.72003" lon="4.39894">
        <ele>602.76</ele>
        <time>2021-05-19T12:37:51.051Z</time>
      </trkpt>
      <trkpt lat="44.72003" lon="4.39901">
        <ele>601.5</ele>
        <time>2021-05-19T12:38:00.453Z</time>
      </trkpt>
      <trkpt lat="44.71995" lon="4.39914">
        <ele>600.93</ele>
        <time>2021-05-19T12:38:09.769Z</time>
      </trkpt>
      <trkpt lat="44.71988" lon="4.39926">
        <ele>598.36</ele>
        <time>2021-05-19T12:38:19.170Z</time>
      </trkpt>
      <trkpt lat="44.71981" lon="4.3994">
        <ele>596.57</ele>
        <time>2021-05-19T12:38:28.949Z</time>
      </trkpt>
      <trkpt lat="44.71977" lon="4.39948">
        <ele>596.5</ele>
        <time>2021-05-19T12:38:39.356Z</time>
      </trkpt>
      <trkpt lat="44.71971" lon="4.3996">
        <ele>595.36</ele>
        <time>2021-05-19T12:38:49.076Z</time>
      </trkpt>
      <trkpt lat="44.71967" lon="4.39967">
        <ele>592.7</ele>
        <time>2021-05-19T12:39:00.976Z</time>
      </trkpt>
      <trkpt lat="44.71965" lon="4.39975">
        <ele>591.67</ele>
        <time>2021-05-19T12:39:10.175Z</time>
      </trkpt>
      <trkpt lat="44.71961" lon="4.39991">
        <ele>591.59</ele>
        <time>2021-05-19T12:39:20.254Z</time>
      </trkpt>
      <trkpt lat="44.71953" lon="4.40002">
        <ele>590.43</ele>
        <time>2021-05-19T12:39:30.352Z</time>
      </trkpt>
      <trkpt lat="44.71945" lon="4.40009">
        <ele>588.43</ele>
        <time>2021-05-19T12:39:39.891Z</time>
      </trkpt>
      <trkpt lat="44.71936" lon="4.40018">
        <ele>585.29</ele>
        <time>2021-05-19T12:39:49.271Z</time>
      </trkpt>
      <trkpt lat="44.71934" lon="4.40017">
        <ele>584.4</ele>
        <time>2021-05-19T12:39:59.070Z</time>
      </trkpt>
      <trkpt lat="44.71935" lon="4.40016">
        <ele>583.58</ele>
        <time>2021-05-19T12:40:10.237Z</time>
      </trkpt>
      <trkpt lat="44.71937" lon="4.40018">
        <ele>582.99</ele>
        <time>2021-05-19T12:40:22.000Z</time>
      </trkpt>
      <trkpt lat="44.71938" lon="4.40018">
        <ele>580.91</ele>
        <time>2021-05-19T12:43:09.136Z</time>
      </trkpt>
      <trkpt lat="44.71929" lon="4.40035">
        <ele>580.22</ele>
        <time>2021-05-19T12:43:18.373Z</time>
      </trkpt>
      <trkpt lat="44.7193" lon="4.4005">
        <ele>579.77</ele>
        <time>2021-05-19T12:43:27.994Z</time>
      </trkpt>
      <trkpt lat="44.71928" lon="4.40064">
        <ele>578.08</ele>
        <time>2021-05-19T12:43:37.000Z</time>
      </trkpt>
      <trkpt lat="44.71923" lon="4.40069">
        <ele>577.59</ele>
        <time>2021-05-19T12:43:47.000Z</time>
      </trkpt>
      <trkpt lat="44.71918" lon="4.40064">
        <ele>578.37</ele>
        <time>2021-05-19T12:43:56.310Z</time>
      </trkpt>
      <trkpt lat="44.71909" lon="4.40064">
        <ele>577</ele>
        <time>2021-05-19T12:44:05.441Z</time>
      </trkpt>
      <trkpt lat="44.71901" lon="4.40073">
        <ele>574.7</ele>
        <time>2021-05-19T12:44:14.998Z</time>
      </trkpt>
      <trkpt lat="44.71894" lon="4.40086">
        <ele>572.6</ele>
        <time>2021-05-19T12:44:24.556Z</time>
      </trkpt>
      <trkpt lat="44.71887" lon="4.40095">
        <ele>570.86</ele>
        <time>2021-05-19T12:44:34.000Z</time>
      </trkpt>
      <trkpt lat="44.71884" lon="4.40106">
        <ele>569.91</ele>
        <time>2021-05-19T12:44:43.414Z</time>
      </trkpt>
      <trkpt lat="44.71878" lon="4.40118">
        <ele>567.43</ele>
        <time>2021-05-19T12:44:53.353Z</time>
      </trkpt>
      <trkpt lat="44.71874" lon="4.40131">
        <ele>565.66</ele>
        <time>2021-05-19T12:45:02.688Z</time>
      </trkpt>
      <trkpt lat="44.71871" lon="4.40147">
        <ele>564.02</ele>
        <time>2021-05-19T12:45:12.169Z</time>
      </trkpt>
      <trkpt lat="44.71864" lon="4.40156">
        <ele>562.15</ele>
        <time>2021-05-19T12:45:21.391Z</time>
      </trkpt>
      <trkpt lat="44.71858" lon="4.40169">
        <ele>559.37</ele>
        <time>2021-05-19T12:45:30.879Z</time>
      </trkpt>
      <trkpt lat="44.71861" lon="4.4018">
        <ele>558.42</ele>
        <time>2021-05-19T12:45:40.438Z</time>
      </trkpt>
      <trkpt lat="44.71872" lon="4.40187">
        <ele>555.14</ele>
        <time>2021-05-19T12:45:49.476Z</time>
      </trkpt>
      <trkpt lat="44.71876" lon="4.40203">
        <ele>553.47</ele>
        <time>2021-05-19T12:45:59.332Z</time>
      </trkpt>
      <trkpt lat="44.71872" lon="4.40208">
        <ele>552.65</ele>
        <time>2021-05-19T12:46:08.453Z</time>
      </trkpt>
      <trkpt lat="44.71868" lon="4.40212">
        <ele>551.26</ele>
        <time>2021-05-19T12:46:35.999Z</time>
      </trkpt>
      <trkpt lat="44.71868" lon="4.4022">
        <ele>549.95</ele>
        <time>2021-05-19T12:46:45.889Z</time>
      </trkpt>
      <trkpt lat="44.71865" lon="4.40233">
        <ele>548.51</ele>
        <time>2021-05-19T12:46:54.929Z</time>
      </trkpt>
      <trkpt lat="44.7187" lon="4.40251">
        <ele>546.09</ele>
        <time>2021-05-19T12:47:03.997Z</time>
      </trkpt>
      <trkpt lat="44.71869" lon="4.40268">
        <ele>544.08</ele>
        <time>2021-05-19T12:47:12.999Z</time>
      </trkpt>
      <trkpt lat="44.71878" lon="4.40282">
        <ele>540.95</ele>
        <time>2021-05-19T12:47:23.239Z</time>
      </trkpt>
      <trkpt lat="44.71873" lon="4.40295">
        <ele>539.56</ele>
        <time>2021-05-19T12:47:33.056Z</time>
      </trkpt>
      <trkpt lat="44.71864" lon="4.40301">
        <ele>538.7</ele>
        <time>2021-05-19T12:47:42.216Z</time>
      </trkpt>
      <trkpt lat="44.71867" lon="4.40307">
        <ele>536.77</ele>
        <time>2021-05-19T12:47:51.595Z</time>
      </trkpt>
      <trkpt lat="44.71876" lon="4.40307">
        <ele>534.6</ele>
        <time>2021-05-19T12:48:00.766Z</time>
      </trkpt>
      <trkpt lat="44.71882" lon="4.40313">
        <ele>532.8</ele>
        <time>2021-05-19T12:48:09.792Z</time>
      </trkpt>
      <trkpt lat="44.71883" lon="4.40321">
        <ele>530.11</ele>
        <time>2021-05-19T12:48:18.999Z</time>
      </trkpt>
      <trkpt lat="44.71881" lon="4.40326">
        <ele>529.07</ele>
        <time>2021-05-19T12:48:28.029Z</time>
      </trkpt>
      <trkpt lat="44.71881" lon="4.40337">
        <ele>526.43</ele>
        <time>2021-05-19T12:48:37.209Z</time>
      </trkpt>
      <trkpt lat="44.71885" lon="4.40343">
        <ele>527.24</ele>
        <time>2021-05-19T12:48:47.131Z</time>
      </trkpt>
      <trkpt lat="44.7189" lon="4.40354">
        <ele>524</ele>
        <time>2021-05-19T12:48:57.338Z</time>
      </trkpt>
      <trkpt lat="44.71887" lon="4.40364">
        <ele>524.62</ele>
        <time>2021-05-19T12:49:06.957Z</time>
      </trkpt>
      <trkpt lat="44.71882" lon="4.40385">
        <ele>522.77</ele>
        <time>2021-05-19T12:49:16.496Z</time>
      </trkpt>
      <trkpt lat="44.71892" lon="4.40396">
        <ele>520.46</ele>
        <time>2021-05-19T12:49:26.354Z</time>
      </trkpt>
      <trkpt lat="44.71891" lon="4.40396">
        <ele>519.45</ele>
        <time>2021-05-19T12:49:42.999Z</time>
      </trkpt>
      <trkpt lat="44.71889" lon="4.40399">
        <ele>519.12</ele>
        <time>2021-05-19T12:49:53.999Z</time>
      </trkpt>
      <trkpt lat="44.71886" lon="4.40407">
        <ele>517.69</ele>
        <time>2021-05-19T12:50:04.152Z</time>
      </trkpt>
      <trkpt lat="44.71883" lon="4.40414">
        <ele>515.5</ele>
        <time>2021-05-19T12:50:14.192Z</time>
      </trkpt>
      <trkpt lat="44.71878" lon="4.40425">
        <ele>514.23</ele>
        <time>2021-05-19T12:50:23.269Z</time>
      </trkpt>
      <trkpt lat="44.71878" lon="4.40429">
        <ele>513.77</ele>
        <time>2021-05-19T12:50:32.350Z</time>
      </trkpt>
      <trkpt lat="44.71877" lon="4.40437">
        <ele>508.2</ele>
        <time>2021-05-19T12:50:42.230Z</time>
      </trkpt>
      <trkpt lat="44.7187" lon="4.40448">
        <ele>508.17</ele>
        <time>2021-05-19T12:50:51.368Z</time>
      </trkpt>
      <trkpt lat="44.71866" lon="4.4046">
        <ele>508.02</ele>
        <time>2021-05-19T12:51:00.999Z</time>
      </trkpt>
      <trkpt lat="44.71864" lon="4.4046">
        <ele>508.06</ele>
        <time>2021-05-19T12:51:13.999Z</time>
      </trkpt>
      <trkpt lat="44.71868" lon="4.4047">
        <ele>507.91</ele>
        <time>2021-05-19T12:51:23.296Z</time>
      </trkpt>
      <trkpt lat="44.71872" lon="4.4049">
        <ele>507.58</ele>
        <time>2021-05-19T12:51:33.176Z</time>
      </trkpt>
      <trkpt lat="44.71873" lon="4.40507">
        <ele>506.96</ele>
        <time>2021-05-19T12:51:43.214Z</time>
      </trkpt>
      <trkpt lat="44.71873" lon="4.40522">
        <ele>507.92</ele>
        <time>2021-05-19T12:51:52.999Z</time>
      </trkpt>
      <trkpt lat="44.71883" lon="4.40539">
        <ele>508.32</ele>
        <time>2021-05-19T12:52:02.999Z</time>
      </trkpt>
      <trkpt lat="44.71889" lon="4.40546">
        <ele>508.55</ele>
        <time>2021-05-19T12:52:12.290Z</time>
      </trkpt>
      <trkpt lat="44.71897" lon="4.40547">
        <ele>509.24</ele>
        <time>2021-05-19T12:52:21.398Z</time>
      </trkpt>
      <trkpt lat="44.71905" lon="4.4055">
        <ele>510.11</ele>
        <time>2021-05-19T12:52:31.236Z</time>
      </trkpt>
      <trkpt lat="44.71911" lon="4.40556">
        <ele>511.24</ele>
        <time>2021-05-19T12:52:40.999Z</time>
      </trkpt>
      <trkpt lat="44.71905" lon="4.4056">
        <ele>511.37</ele>
        <time>2021-05-19T12:52:50.999Z</time>
      </trkpt>
      <trkpt lat="44.71898" lon="4.4056">
        <ele>512.62</ele>
        <time>2021-05-19T12:53:00.293Z</time>
      </trkpt>
      <trkpt lat="44.71887" lon="4.40562">
        <ele>514.13</ele>
        <time>2021-05-19T12:53:09.552Z</time>
      </trkpt>
      <trkpt lat="44.71879" lon="4.40562">
        <ele>516.7</ele>
        <time>2021-05-19T12:53:18.763Z</time>
      </trkpt>
      <trkpt lat="44.7187" lon="4.40565">
        <ele>517.73</ele>
        <time>2021-05-19T12:53:28.153Z</time>
      </trkpt>
      <trkpt lat="44.7186" lon="4.40573">
        <ele>517.86</ele>
        <time>2021-05-19T12:53:38.530Z</time>
      </trkpt>
      <trkpt lat="44.71856" lon="4.40574">
        <ele>517.53</ele>
        <time>2021-05-19T12:53:48.109Z</time>
      </trkpt>
      <trkpt lat="44.71853" lon="4.40577">
        <ele>519.24</ele>
        <time>2021-05-19T12:53:57.118Z</time>
      </trkpt>
      <trkpt lat="44.71845" lon="4.40578">
        <ele>520.28</ele>
        <time>2021-05-19T12:54:06.356Z</time>
      </trkpt>
      <trkpt lat="44.71836" lon="4.40571">
        <ele>522.95</ele>
        <time>2021-05-19T12:54:16.538Z</time>
      </trkpt>
      <trkpt lat="44.71828" lon="4.40564">
        <ele>524.95</ele>
        <time>2021-05-19T12:54:26.154Z</time>
      </trkpt>
      <trkpt lat="44.71821" lon="4.40558">
        <ele>526.6</ele>
        <time>2021-05-19T12:54:35.551Z</time>
      </trkpt>
      <trkpt lat="44.71815" lon="4.40551">
        <ele>526.97</ele>
        <time>2021-05-19T12:54:45.531Z</time>
      </trkpt>
      <trkpt lat="44.71809" lon="4.40547">
        <ele>529.15</ele>
        <time>2021-05-19T12:54:54.890Z</time>
      </trkpt>
      <trkpt lat="44.71802" lon="4.40545">
        <ele>530.04</ele>
        <time>2021-05-19T12:55:04.098Z</time>
      </trkpt>
      <trkpt lat="44.71796" lon="4.40545">
        <ele>533.31</ele>
        <time>2021-05-19T12:55:13.237Z</time>
      </trkpt>
      <trkpt lat="44.71789" lon="4.40544">
        <ele>534.45</ele>
        <time>2021-05-19T12:55:22.999Z</time>
      </trkpt>
      <trkpt lat="44.71786" lon="4.40538">
        <ele>536.25</ele>
        <time>2021-05-19T12:55:32.419Z</time>
      </trkpt>
      <trkpt lat="44.71785" lon="4.40541">
        <ele>537.73</ele>
        <time>2021-05-19T12:55:42.497Z</time>
      </trkpt>
      <trkpt lat="44.71784" lon="4.40549">
        <ele>539.62</ele>
        <time>2021-05-19T12:55:52.314Z</time>
      </trkpt>
      <trkpt lat="44.71786" lon="4.40559">
        <ele>541.29</ele>
        <time>2021-05-19T12:56:01.999Z</time>
      </trkpt>
      <trkpt lat="44.71787" lon="4.40563">
        <ele>543.02</ele>
        <time>2021-05-19T12:56:11.075Z</time>
      </trkpt>
      <trkpt lat="44.71788" lon="4.40572">
        <ele>545.11</ele>
        <time>2021-05-19T12:56:21.000Z</time>
      </trkpt>
      <trkpt lat="44.71789" lon="4.40581">
        <ele>546.19</ele>
        <time>2021-05-19T12:56:30.051Z</time>
      </trkpt>
      <trkpt lat="44.71791" lon="4.40594">
        <ele>548.29</ele>
        <time>2021-05-19T12:56:40.370Z</time>
      </trkpt>
      <trkpt lat="44.71791" lon="4.40605">
        <ele>551.67</ele>
        <time>2021-05-19T12:56:59.837Z</time>
      </trkpt>
      <trkpt lat="44.71788" lon="4.40621">
        <ele>552.88</ele>
        <time>2021-05-19T12:57:09.000Z</time>
      </trkpt>
      <trkpt lat="44.71789" lon="4.40628">
        <ele>553.14</ele>
        <time>2021-05-19T12:57:18.294Z</time>
      </trkpt>
      <trkpt lat="44.71789" lon="4.40628">
        <ele>552.1</ele>
        <time>2021-05-19T12:57:28.000Z</time>
      </trkpt>
      <trkpt lat="44.71792" lon="4.40632">
        <ele>554.87</ele>
        <time>2021-05-19T12:58:22.975Z</time>
      </trkpt>
      <trkpt lat="44.71803" lon="4.40641">
        <ele>553.5</ele>
        <time>2021-05-19T12:58:32.196Z</time>
      </trkpt>
      <trkpt lat="44.71811" lon="4.40646">
        <ele>555.03</ele>
        <time>2021-05-19T12:58:41.213Z</time>
      </trkpt>
      <trkpt lat="44.71818" lon="4.40652">
        <ele>553.96</ele>
        <time>2021-05-19T12:58:50.292Z</time>
      </trkpt>
      <trkpt lat="44.71827" lon="4.40655">
        <ele>554.18</ele>
        <time>2021-05-19T12:59:00.000Z</time>
      </trkpt>
      <trkpt lat="44.71835" lon="4.40658">
        <ele>552.93</ele>
        <time>2021-05-19T12:59:09.072Z</time>
      </trkpt>
      <trkpt lat="44.7184" lon="4.40659">
        <ele>551.47</ele>
        <time>2021-05-19T12:59:18.111Z</time>
      </trkpt>
      <trkpt lat="44.71851" lon="4.40665">
        <ele>551.47</ele>
        <time>2021-05-19T12:59:27.627Z</time>
      </trkpt>
      <trkpt lat="44.71865" lon="4.40673">
        <ele>550.72</ele>
        <time>2021-05-19T12:59:37.099Z</time>
      </trkpt>
      <trkpt lat="44.71875" lon="4.4068">
        <ele>549.77</ele>
        <time>2021-05-19T12:59:46.557Z</time>
      </trkpt>
      <trkpt lat="44.71877" lon="4.4069">
        <ele>550.71</ele>
        <time>2021-05-19T12:59:56.096Z</time>
      </trkpt>
      <trkpt lat="44.71883" lon="4.40706">
        <ele>548.54</ele>
        <time>2021-05-19T13:00:05.440Z</time>
      </trkpt>
      <trkpt lat="44.71895" lon="4.4071">
        <ele>548.09</ele>
        <time>2021-05-19T13:00:32.195Z</time>
      </trkpt>
      <trkpt lat="44.7191" lon="4.40715">
        <ele>545.29</ele>
        <time>2021-05-19T13:00:42.135Z</time>
      </trkpt>
      <trkpt lat="44.71917" lon="4.40719">
        <ele>546.16</ele>
        <time>2021-05-19T13:00:53.196Z</time>
      </trkpt>
      <trkpt lat="44.71927" lon="4.40719">
        <ele>544.61</ele>
        <time>2021-05-19T13:01:18.171Z</time>
      </trkpt>
      <trkpt lat="44.7194" lon="4.40722">
        <ele>542.69</ele>
        <time>2021-05-19T13:01:27.566Z</time>
      </trkpt>
      <trkpt lat="44.71955" lon="4.4073">
        <ele>543.39</ele>
        <time>2021-05-19T13:01:37.390Z</time>
      </trkpt>
      <trkpt lat="44.71962" lon="4.40741">
        <ele>542.82</ele>
        <time>2021-05-19T13:01:46.399Z</time>
      </trkpt>
      <trkpt lat="44.71965" lon="4.40751">
        <ele>540.33</ele>
        <time>2021-05-19T13:01:55.936Z</time>
      </trkpt>
      <trkpt lat="44.7197" lon="4.40765">
        <ele>541.41</ele>
        <time>2021-05-19T13:02:05.453Z</time>
      </trkpt>
      <trkpt lat="44.71971" lon="4.4078">
        <ele>540.91</ele>
        <time>2021-05-19T13:02:14.773Z</time>
      </trkpt>
      <trkpt lat="44.7197" lon="4.40788">
        <ele>540.55</ele>
        <time>2021-05-19T13:02:24.134Z</time>
      </trkpt>
      <trkpt lat="44.7197" lon="4.40793">
        <ele>541.55</ele>
        <time>2021-05-19T13:02:34.510Z</time>
      </trkpt>
      <trkpt lat="44.71973" lon="4.40811">
        <ele>542.45</ele>
        <time>2021-05-19T13:02:43.790Z</time>
      </trkpt>
      <trkpt lat="44.71978" lon="4.40821">
        <ele>544.32</ele>
        <time>2021-05-19T13:02:53.467Z</time>
      </trkpt>
      <trkpt lat="44.71983" lon="4.40831">
        <ele>548.7</ele>
        <time>2021-05-19T13:03:03.000Z</time>
      </trkpt>
      <trkpt lat="44.71978" lon="4.40832">
        <ele>547.8</ele>
        <time>2021-05-19T13:03:12.437Z</time>
      </trkpt>
      <trkpt lat="44.7197" lon="4.40834">
        <ele>549.39</ele>
        <time>2021-05-19T13:03:22.474Z</time>
      </trkpt>
      <trkpt lat="44.71961" lon="4.40828">
        <ele>548.92</ele>
        <time>2021-05-19T13:03:32.000Z</time>
      </trkpt>
      <trkpt lat="44.71961" lon="4.4083">
        <ele>548.85</ele>
        <time>2021-05-19T13:03:41.152Z</time>
      </trkpt>
      <trkpt lat="44.71957" lon="4.40833">
        <ele>548.58</ele>
        <time>2021-05-19T13:03:50.291Z</time>
      </trkpt>
      <trkpt lat="44.71949" lon="4.40833">
        <ele>549.94</ele>
        <time>2021-05-19T13:04:00.373Z</time>
      </trkpt>
      <trkpt lat="44.71944" lon="4.40812">
        <ele>555.08</ele>
        <time>2021-05-19T13:04:09.831Z</time>
      </trkpt>
      <trkpt lat="44.71942" lon="4.40805">
        <ele>554.31</ele>
        <time>2021-05-19T13:04:19.000Z</time>
      </trkpt>
      <trkpt lat="44.71938" lon="4.40796">
        <ele>556.26</ele>
        <time>2021-05-19T13:04:28.029Z</time>
      </trkpt>
      <trkpt lat="44.71932" lon="4.40782">
        <ele>557.2</ele>
        <time>2021-05-19T13:04:38.276Z</time>
      </trkpt>
      <trkpt lat="44.71924" lon="4.40775">
        <ele>557.67</ele>
        <time>2021-05-19T13:04:47.476Z</time>
      </trkpt>
      <trkpt lat="44.71921" lon="4.4078">
        <ele>559.02</ele>
        <time>2021-05-19T13:04:59.236Z</time>
      </trkpt>
      <trkpt lat="44.71919" lon="4.40784">
        <ele>561.72</ele>
        <time>2021-05-19T13:05:12.437Z</time>
      </trkpt>
      <trkpt lat="44.71914" lon="4.40788">
        <ele>560.55</ele>
        <time>2021-05-19T13:05:21.954Z</time>
      </trkpt>
      <trkpt lat="44.71911" lon="4.40795">
        <ele>563.19</ele>
        <time>2021-05-19T13:05:31.214Z</time>
      </trkpt>
      <trkpt lat="44.71906" lon="4.40797">
        <ele>562.86</ele>
        <time>2021-05-19T13:05:41.191Z</time>
      </trkpt>
      <trkpt lat="44.71906" lon="4.40801">
        <ele>562.71</ele>
        <time>2021-05-19T13:05:56.171Z</time>
      </trkpt>
      <trkpt lat="44.71911" lon="4.4081">
        <ele>563.94</ele>
        <time>2021-05-19T13:06:05.300Z</time>
      </trkpt>
      <trkpt lat="44.71919" lon="4.40828">
        <ele>567.11</ele>
        <time>2021-05-19T13:06:14.921Z</time>
      </trkpt>
      <trkpt lat="44.71922" lon="4.40837">
        <ele>566.65</ele>
        <time>2021-05-19T13:06:24.056Z</time>
      </trkpt>
      <trkpt lat="44.71925" lon="4.40849">
        <ele>567.81</ele>
        <time>2021-05-19T13:06:33.585Z</time>
      </trkpt>
      <trkpt lat="44.71927" lon="4.40866">
        <ele>569.58</ele>
        <time>2021-05-19T13:06:43.212Z</time>
      </trkpt>
      <trkpt lat="44.7193" lon="4.40877">
        <ele>570.29</ele>
        <time>2021-05-19T13:06:52.333Z</time>
      </trkpt>
      <trkpt lat="44.71927" lon="4.40879">
        <ele>571.65</ele>
        <time>2021-05-19T13:07:01.391Z</time>
      </trkpt>
      <trkpt lat="44.71921" lon="4.40885">
        <ele>572.46</ele>
        <time>2021-05-19T13:07:11.432Z</time>
      </trkpt>
      <trkpt lat="44.71923" lon="4.40896">
        <ele>575.68</ele>
        <time>2021-05-19T13:07:21.038Z</time>
      </trkpt>
      <trkpt lat="44.71927" lon="4.40907">
        <ele>576.14</ele>
        <time>2021-05-19T13:07:30.477Z</time>
      </trkpt>
      <trkpt lat="44.71927" lon="4.40916">
        <ele>579.25</ele>
        <time>2021-05-19T13:07:40.356Z</time>
      </trkpt>
      <trkpt lat="44.7192" lon="4.40923">
        <ele>581.78</ele>
        <time>2021-05-19T13:07:50.134Z</time>
      </trkpt>
      <trkpt lat="44.71915" lon="4.40926">
        <ele>582.94</ele>
        <time>2021-05-19T13:07:59.413Z</time>
      </trkpt>
      <trkpt lat="44.71911" lon="4.40928">
        <ele>584.56</ele>
        <time>2021-05-19T13:08:09.551Z</time>
      </trkpt>
      <trkpt lat="44.71908" lon="4.4093">
        <ele>586.54</ele>
        <time>2021-05-19T13:08:18.971Z</time>
      </trkpt>
      <trkpt lat="44.71902" lon="4.4093">
        <ele>587.18</ele>
        <time>2021-05-19T13:08:28.050Z</time>
      </trkpt>
      <trkpt lat="44.71899" lon="4.40934">
        <ele>587.19</ele>
        <time>2021-05-19T13:08:42.999Z</time>
      </trkpt>
      <trkpt lat="44.719" lon="4.40939">
        <ele>590.22</ele>
        <time>2021-05-19T13:09:03.495Z</time>
      </trkpt>
      <trkpt lat="44.71904" lon="4.40958">
        <ele>590.51</ele>
        <time>2021-05-19T13:09:13.315Z</time>
      </trkpt>
      <trkpt lat="44.71907" lon="4.40971">
        <ele>592.1</ele>
        <time>2021-05-19T13:09:22.355Z</time>
      </trkpt>
      <trkpt lat="44.71914" lon="4.40982">
        <ele>593.26</ele>
        <time>2021-05-19T13:09:31.953Z</time>
      </trkpt>
      <trkpt lat="44.71918" lon="4.40996">
        <ele>593.27</ele>
        <time>2021-05-19T13:09:41.472Z</time>
      </trkpt>
      <trkpt lat="44.7192" lon="4.41011">
        <ele>593.34</ele>
        <time>2021-05-19T13:09:50.831Z</time>
      </trkpt>
      <trkpt lat="44.71925" lon="4.41021">
        <ele>592.43</ele>
        <time>2021-05-19T13:10:00.212Z</time>
      </trkpt>
      <trkpt lat="44.71923" lon="4.41024">
        <ele>593.67</ele>
        <time>2021-05-19T13:10:13.371Z</time>
      </trkpt>
      <trkpt lat="44.71923" lon="4.4104">
        <ele>594.07</ele>
        <time>2021-05-19T13:10:22.999Z</time>
      </trkpt>
      <trkpt lat="44.71922" lon="4.41057">
        <ele>596.91</ele>
        <time>2021-05-19T13:10:32.599Z</time>
      </trkpt>
      <trkpt lat="44.71924" lon="4.41069">
        <ele>598.02</ele>
        <time>2021-05-19T13:10:41.735Z</time>
      </trkpt>
      <trkpt lat="44.71927" lon="4.4108">
        <ele>599.47</ele>
        <time>2021-05-19T13:10:50.914Z</time>
      </trkpt>
      <trkpt lat="44.71928" lon="4.41096">
        <ele>600</ele>
        <time>2021-05-19T13:11:00.175Z</time>
      </trkpt>
      <trkpt lat="44.7193" lon="4.41108">
        <ele>600.57</ele>
        <time>2021-05-19T13:11:09.455Z</time>
      </trkpt>
      <trkpt lat="44.71931" lon="4.4112">
        <ele>604.68</ele>
        <time>2021-05-19T13:11:19.073Z</time>
      </trkpt>
      <trkpt lat="44.71932" lon="4.41129">
        <ele>604.84</ele>
        <time>2021-05-19T13:11:28.214Z</time>
      </trkpt>
      <trkpt lat="44.71934" lon="4.41142">
        <ele>607.17</ele>
        <time>2021-05-19T13:11:37.771Z</time>
      </trkpt>
      <trkpt lat="44.71934" lon="4.41155">
        <ele>608.7</ele>
        <time>2021-05-19T13:11:46.849Z</time>
      </trkpt>
      <trkpt lat="44.71931" lon="4.41164">
        <ele>611.32</ele>
        <time>2021-05-19T13:11:55.999Z</time>
      </trkpt>
      <trkpt lat="44.71929" lon="4.4117">
        <ele>610.32</ele>
        <time>2021-05-19T13:12:05.200Z</time>
      </trkpt>
      <trkpt lat="44.71926" lon="4.41176">
        <ele>610.28</ele>
        <time>2021-05-19T13:12:15.436Z</time>
      </trkpt>
      <trkpt lat="44.71926" lon="4.41186">
        <ele>612.56</ele>
        <time>2021-05-19T13:12:24.999Z</time>
      </trkpt>
      <trkpt lat="44.71925" lon="4.41195">
        <ele>613.68</ele>
        <time>2021-05-19T13:12:34.056Z</time>
      </trkpt>
      <trkpt lat="44.71922" lon="4.41204">
        <ele>611.08</ele>
        <time>2021-05-19T13:12:43.155Z</time>
      </trkpt>
      <trkpt lat="44.71919" lon="4.4121">
        <ele>614.72</ele>
        <time>2021-05-19T13:12:52.372Z</time>
      </trkpt>
      <trkpt lat="44.71915" lon="4.41223">
        <ele>617.09</ele>
        <time>2021-05-19T13:13:01.450Z</time>
      </trkpt>
      <trkpt lat="44.71909" lon="4.41228">
        <ele>618.61</ele>
        <time>2021-05-19T13:13:11.468Z</time>
      </trkpt>
      <trkpt lat="44.71908" lon="4.41235">
        <ele>619.81</ele>
        <time>2021-05-19T13:13:20.999Z</time>
      </trkpt>
      <trkpt lat="44.7191" lon="4.4124">
        <ele>620.71</ele>
        <time>2021-05-19T13:13:32.362Z</time>
      </trkpt>
      <trkpt lat="44.71909" lon="4.41252">
        <ele>620.8</ele>
        <time>2021-05-19T13:13:41.957Z</time>
      </trkpt>
      <trkpt lat="44.71908" lon="4.41265">
        <ele>620.52</ele>
        <time>2021-05-19T13:13:52.136Z</time>
      </trkpt>
      <trkpt lat="44.71912" lon="4.41275">
        <ele>621.38</ele>
        <time>2021-05-19T13:14:01.191Z</time>
      </trkpt>
      <trkpt lat="44.71915" lon="4.41285">
        <ele>617.51</ele>
        <time>2021-05-19T13:14:10.999Z</time>
      </trkpt>
      <trkpt lat="44.71916" lon="4.41295">
        <ele>619.24</ele>
        <time>2021-05-19T13:14:21.196Z</time>
      </trkpt>
      <trkpt lat="44.71921" lon="4.41305">
        <ele>621.8</ele>
        <time>2021-05-19T13:14:30.314Z</time>
      </trkpt>
      <trkpt lat="44.71927" lon="4.41315">
        <ele>623.22</ele>
        <time>2021-05-19T13:14:40.270Z</time>
      </trkpt>
      <trkpt lat="44.71932" lon="4.41322">
        <ele>625.33</ele>
        <time>2021-05-19T13:14:49.389Z</time>
      </trkpt>
      <trkpt lat="44.71937" lon="4.4133">
        <ele>627.19</ele>
        <time>2021-05-19T13:14:58.999Z</time>
      </trkpt>
      <trkpt lat="44.71938" lon="4.4133">
        <ele>628.57</ele>
        <time>2021-05-19T13:15:37.999Z</time>
      </trkpt>
      <trkpt lat="44.71942" lon="4.41337">
        <ele>628.88</ele>
        <time>2021-05-19T13:15:47.354Z</time>
      </trkpt>
      <trkpt lat="44.71951" lon="4.41348">
        <ele>630.36</ele>
        <time>2021-05-19T13:15:57.392Z</time>
      </trkpt>
      <trkpt lat="44.71956" lon="4.4136">
        <ele>631.12</ele>
        <time>2021-05-19T13:16:07.451Z</time>
      </trkpt>
      <trkpt lat="44.71958" lon="4.41367">
        <ele>632.3</ele>
        <time>2021-05-19T13:16:16.500Z</time>
      </trkpt>
      <trkpt lat="44.71962" lon="4.4138">
        <ele>633.8</ele>
        <time>2021-05-19T13:16:26.158Z</time>
      </trkpt>
      <trkpt lat="44.71966" lon="4.41389">
        <ele>634.88</ele>
        <time>2021-05-19T13:16:36.000Z</time>
      </trkpt>
      <trkpt lat="44.71966" lon="4.41392">
        <ele>635.93</ele>
        <time>2021-05-19T13:16:45.236Z</time>
      </trkpt>
      <trkpt lat="44.71969" lon="4.41403">
        <ele>636.95</ele>
        <time>2021-05-19T13:16:55.596Z</time>
      </trkpt>
      <trkpt lat="44.71972" lon="4.41414">
        <ele>638.63</ele>
        <time>2021-05-19T13:17:04.815Z</time>
      </trkpt>
      <trkpt lat="44.71976" lon="4.41425">
        <ele>639.43</ele>
        <time>2021-05-19T13:17:14.334Z</time>
      </trkpt>
      <trkpt lat="44.71978" lon="4.41435">
        <ele>640.85</ele>
        <time>2021-05-19T13:17:24.314Z</time>
      </trkpt>
      <trkpt lat="44.7198" lon="4.41447">
        <ele>639.47</ele>
        <time>2021-05-19T13:17:34.000Z</time>
      </trkpt>
      <trkpt lat="44.71977" lon="4.41445">
        <ele>640.5</ele>
        <time>2021-05-19T13:17:43.423Z</time>
      </trkpt>
      <trkpt lat="44.71971" lon="4.41436">
        <ele>642.52</ele>
        <time>2021-05-19T13:17:53.212Z</time>
      </trkpt>
      <trkpt lat="44.71965" lon="4.41427">
        <ele>646.13</ele>
        <time>2021-05-19T13:18:02.929Z</time>
      </trkpt>
      <trkpt lat="44.7196" lon="4.4142">
        <ele>645.42</ele>
        <time>2021-05-19T13:18:12.168Z</time>
      </trkpt>
      <trkpt lat="44.7195" lon="4.41414">
        <ele>647.67</ele>
        <time>2021-05-19T13:18:22.370Z</time>
      </trkpt>
      <trkpt lat="44.71946" lon="4.4141">
        <ele>644.61</ele>
        <time>2021-05-19T13:18:31.530Z</time>
      </trkpt>
      <trkpt lat="44.71941" lon="4.414">
        <ele>646.38</ele>
        <time>2021-05-19T13:18:41.121Z</time>
      </trkpt>
      <trkpt lat="44.71936" lon="4.41405">
        <ele>649.25</ele>
        <time>2021-05-19T13:19:01.356Z</time>
      </trkpt>
      <trkpt lat="44.71938" lon="4.41418">
        <ele>650.85</ele>
        <time>2021-05-19T13:19:11.402Z</time>
      </trkpt>
      <trkpt lat="44.71942" lon="4.41429">
        <ele>652.43</ele>
        <time>2021-05-19T13:19:21.371Z</time>
      </trkpt>
      <trkpt lat="44.71946" lon="4.41441">
        <ele>653.98</ele>
        <time>2021-05-19T13:19:31.000Z</time>
      </trkpt>
      <trkpt lat="44.7195" lon="4.41448">
        <ele>657.19</ele>
        <time>2021-05-19T13:19:40.033Z</time>
      </trkpt>
      <trkpt lat="44.71952" lon="4.41458">
        <ele>658.4</ele>
        <time>2021-05-19T13:19:49.398Z</time>
      </trkpt>
      <trkpt lat="44.71953" lon="4.41469">
        <ele>659.25</ele>
        <time>2021-05-19T13:19:58.536Z</time>
      </trkpt>
      <trkpt lat="44.71955" lon="4.41485">
        <ele>661.44</ele>
        <time>2021-05-19T13:20:07.556Z</time>
      </trkpt>
      <trkpt lat="44.71956" lon="4.41498">
        <ele>662.57</ele>
        <time>2021-05-19T13:20:16.895Z</time>
      </trkpt>
      <trkpt lat="44.71962" lon="4.41507">
        <ele>663.67</ele>
        <time>2021-05-19T13:20:26.219Z</time>
      </trkpt>
      <trkpt lat="44.71966" lon="4.41513">
        <ele>664.75</ele>
        <time>2021-05-19T13:20:36.432Z</time>
      </trkpt>
      <trkpt lat="44.71967" lon="4.4152">
        <ele>665.19</ele>
        <time>2021-05-19T13:20:46.330Z</time>
      </trkpt>
      <trkpt lat="44.71974" lon="4.41538">
        <ele>665.52</ele>
        <time>2021-05-19T13:20:55.529Z</time>
      </trkpt>
      <trkpt lat="44.71981" lon="4.4155">
        <ele>667.42</ele>
        <time>2021-05-19T13:21:04.850Z</time>
      </trkpt>
      <trkpt lat="44.71984" lon="4.41555">
        <ele>667.19</ele>
        <time>2021-05-19T13:21:18.000Z</time>
      </trkpt>
      <trkpt lat="44.71988" lon="4.41566">
        <ele>669.03</ele>
        <time>2021-05-19T13:21:27.017Z</time>
      </trkpt>
      <trkpt lat="44.71994" lon="4.41577">
        <ele>671.22</ele>
        <time>2021-05-19T13:21:36.576Z</time>
      </trkpt>
      <trkpt lat="44.71998" lon="4.41583">
        <ele>673.14</ele>
        <time>2021-05-19T13:21:46.094Z</time>
      </trkpt>
      <trkpt lat="44.72003" lon="4.4159">
        <ele>673.94</ele>
        <time>2021-05-19T13:21:55.214Z</time>
      </trkpt>
      <trkpt lat="44.72008" lon="4.41605">
        <ele>676.26</ele>
        <time>2021-05-19T13:22:05.000Z</time>
      </trkpt>
      <trkpt lat="44.7201" lon="4.41612">
        <ele>676.64</ele>
        <time>2021-05-19T13:22:14.192Z</time>
      </trkpt>
      <trkpt lat="44.72015" lon="4.41625">
        <ele>677.19</ele>
        <time>2021-05-19T13:22:24.488Z</time>
      </trkpt>
      <trkpt lat="44.7202" lon="4.41636">
        <ele>683.1</ele>
        <time>2021-05-19T13:22:34.038Z</time>
      </trkpt>
      <trkpt lat="44.72024" lon="4.41647">
        <ele>682.44</ele>
        <time>2021-05-19T13:22:43.259Z</time>
      </trkpt>
      <trkpt lat="44.72022" lon="4.41662">
        <ele>682.67</ele>
        <time>2021-05-19T13:22:53.000Z</time>
      </trkpt>
      <trkpt lat="44.72021" lon="4.41674">
        <ele>684.55</ele>
        <time>2021-05-19T13:23:12.916Z</time>
      </trkpt>
      <trkpt lat="44.72021" lon="4.41687">
        <ele>686.36</ele>
        <time>2021-05-19T13:23:22.000Z</time>
      </trkpt>
      <trkpt lat="44.7202" lon="4.41691">
        <ele>687.41</ele>
        <time>2021-05-19T13:25:03.475Z</time>
      </trkpt>
      <trkpt lat="44.72018" lon="4.41706">
        <ele>689.51</ele>
        <time>2021-05-19T13:25:13.077Z</time>
      </trkpt>
      <trkpt lat="44.72014" lon="4.4172">
        <ele>689.37</ele>
        <time>2021-05-19T13:25:22.432Z</time>
      </trkpt>
      <trkpt lat="44.72007" lon="4.41736">
        <ele>689.53</ele>
        <time>2021-05-19T13:25:31.770Z</time>
      </trkpt>
      <trkpt lat="44.72009" lon="4.41749">
        <ele>689.15</ele>
        <time>2021-05-19T13:25:40.972Z</time>
      </trkpt>
      <trkpt lat="44.72011" lon="4.41762">
        <ele>688.28</ele>
        <time>2021-05-19T13:25:50.999Z</time>
      </trkpt>
      <trkpt lat="44.7201" lon="4.41767">
        <ele>688.19</ele>
        <time>2021-05-19T13:26:01.551Z</time>
      </trkpt>
      <trkpt lat="44.72007" lon="4.41778">
        <ele>687.7</ele>
        <time>2021-05-19T13:26:11.038Z</time>
      </trkpt>
      <trkpt lat="44.72005" lon="4.41788">
        <ele>686.6</ele>
        <time>2021-05-19T13:26:20.496Z</time>
      </trkpt>
      <trkpt lat="44.72002" lon="4.41799">
        <ele>687.21</ele>
        <time>2021-05-19T13:26:29.999Z</time>
      </trkpt>
      <trkpt lat="44.72003" lon="4.41809">
        <ele>686.65</ele>
        <time>2021-05-19T13:26:40.055Z</time>
      </trkpt>
      <trkpt lat="44.72004" lon="4.41819">
        <ele>686.62</ele>
        <time>2021-05-19T13:26:50.113Z</time>
      </trkpt>
      <trkpt lat="44.72003" lon="4.41828">
        <ele>686.2</ele>
        <time>2021-05-19T13:26:59.999Z</time>
      </trkpt>
      <trkpt lat="44.72003" lon="4.4183">
        <ele>686.01</ele>
        <time>2021-05-19T13:29:01.999Z</time>
      </trkpt>
      <trkpt lat="44.72001" lon="4.41851">
        <ele>686.77</ele>
        <time>2021-05-19T13:29:11.999Z</time>
      </trkpt>
      <trkpt lat="44.72001" lon="4.41855">
        <ele>686.69</ele>
        <time>2021-05-19T13:29:21.096Z</time>
      </trkpt>
      <trkpt lat="44.72001" lon="4.41869">
        <ele>687.72</ele>
        <time>2021-05-19T13:29:30.453Z</time>
      </trkpt>
      <trkpt lat="44.72001" lon="4.41885">
        <ele>685.83</ele>
        <time>2021-05-19T13:29:40.052Z</time>
      </trkpt>
      <trkpt lat="44.71999" lon="4.41895">
        <ele>684.97</ele>
        <time>2021-05-19T13:29:49.999Z</time>
      </trkpt>
      <trkpt lat="44.72" lon="4.41895">
        <ele>684.93</ele>
        <time>2021-05-19T13:30:05.999Z</time>
      </trkpt>
      <trkpt lat="44.71997" lon="4.41912">
        <ele>686.08</ele>
        <time>2021-05-19T13:30:15.314Z</time>
      </trkpt>
      <trkpt lat="44.71994" lon="4.41929">
        <ele>684.59</ele>
        <time>2021-05-19T13:30:25.218Z</time>
      </trkpt>
      <trkpt lat="44.71991" lon="4.41941">
        <ele>685.06</ele>
        <time>2021-05-19T13:30:34.477Z</time>
      </trkpt>
      <trkpt lat="44.71991" lon="4.41948">
        <ele>684.31</ele>
        <time>2021-05-19T13:30:44.436Z</time>
      </trkpt>
      <trkpt lat="44.71993" lon="4.41957">
        <ele>684.11</ele>
        <time>2021-05-19T13:30:53.536Z</time>
      </trkpt>
      <trkpt lat="44.72001" lon="4.41953">
        <ele>684.42</ele>
        <time>2021-05-19T13:31:02.999Z</time>
      </trkpt>
      <trkpt lat="44.7201" lon="4.41964">
        <ele>686.8</ele>
        <time>2021-05-19T13:31:13.132Z</time>
      </trkpt>
      <trkpt lat="44.72012" lon="4.41977">
        <ele>687.84</ele>
        <time>2021-05-19T13:31:22.293Z</time>
      </trkpt>
      <trkpt lat="44.72015" lon="4.41986">
        <ele>688.02</ele>
        <time>2021-05-19T13:31:31.510Z</time>
      </trkpt>
      <trkpt lat="44.72015" lon="4.41997">
        <ele>690.89</ele>
        <time>2021-05-19T13:31:40.999Z</time>
      </trkpt>
      <trkpt lat="44.72013" lon="4.42011">
        <ele>690.42</ele>
        <time>2021-05-19T13:31:50.577Z</time>
      </trkpt>
      <trkpt lat="44.72018" lon="4.42025">
        <ele>689.7</ele>
        <time>2021-05-19T13:32:00.156Z</time>
      </trkpt>
      <trkpt lat="44.72019" lon="4.42039">
        <ele>691.65</ele>
        <time>2021-05-19T13:32:09.319Z</time>
      </trkpt>
      <trkpt lat="44.72019" lon="4.42056">
        <ele>687.85</ele>
        <time>2021-05-19T13:32:18.572Z</time>
      </trkpt>
      <trkpt lat="44.72027" lon="4.42069">
        <ele>689.95</ele>
        <time>2021-05-19T13:32:27.772Z</time>
      </trkpt>
      <trkpt lat="44.72032" lon="4.42081">
        <ele>691.63</ele>
        <time>2021-05-19T13:32:36.994Z</time>
      </trkpt>
      <trkpt lat="44.72034" lon="4.42094">
        <ele>693.71</ele>
        <time>2021-05-19T13:32:46.092Z</time>
      </trkpt>
      <trkpt lat="44.72038" lon="4.42109">
        <ele>694.43</ele>
        <time>2021-05-19T13:32:55.210Z</time>
      </trkpt>
      <trkpt lat="44.72044" lon="4.42124">
        <ele>697.04</ele>
        <time>2021-05-19T13:33:04.249Z</time>
      </trkpt>
      <trkpt lat="44.72049" lon="4.4214">
        <ele>697.7</ele>
        <time>2021-05-19T13:33:14.377Z</time>
      </trkpt>
      <trkpt lat="44.72053" lon="4.42155">
        <ele>699.75</ele>
        <time>2021-05-19T13:33:23.776Z</time>
      </trkpt>
      <trkpt lat="44.72056" lon="4.42169">
        <ele>698.94</ele>
        <time>2021-05-19T13:33:33.035Z</time>
      </trkpt>
      <trkpt lat="44.7206" lon="4.42183">
        <ele>700.54</ele>
        <time>2021-05-19T13:33:42.093Z</time>
      </trkpt>
      <trkpt lat="44.72064" lon="4.42199">
        <ele>700.92</ele>
        <time>2021-05-19T13:33:52.273Z</time>
      </trkpt>
      <trkpt lat="44.72071" lon="4.42205">
        <ele>701.33</ele>
        <time>2021-05-19T13:34:02.251Z</time>
      </trkpt>
      <trkpt lat="44.72081" lon="4.42217">
        <ele>703.62</ele>
        <time>2021-05-19T13:34:11.869Z</time>
      </trkpt>
      <trkpt lat="44.7209" lon="4.42217">
        <ele>701.85</ele>
        <time>2021-05-19T13:34:21.119Z</time>
      </trkpt>
      <trkpt lat="44.72093" lon="4.42215">
        <ele>703.4</ele>
        <time>2021-05-19T13:34:31.477Z</time>
      </trkpt>
      <trkpt lat="44.72103" lon="4.42211">
        <ele>704.49</ele>
        <time>2021-05-19T13:34:41.016Z</time>
      </trkpt>
      <trkpt lat="44.72114" lon="4.42207">
        <ele>706.83</ele>
        <time>2021-05-19T13:34:50.215Z</time>
      </trkpt>
      <trkpt lat="44.72124" lon="4.42199">
        <ele>706.46</ele>
        <time>2021-05-19T13:35:00.334Z</time>
      </trkpt>
      <trkpt lat="44.72128" lon="4.42185">
        <ele>706.13</ele>
        <time>2021-05-19T13:35:09.492Z</time>
      </trkpt>
      <trkpt lat="44.72133" lon="4.4217">
        <ele>705.02</ele>
        <time>2021-05-19T13:35:19.281Z</time>
      </trkpt>
      <trkpt lat="44.72139" lon="4.42157">
        <ele>704.43</ele>
        <time>2021-05-19T13:35:29.276Z</time>
      </trkpt>
      <trkpt lat="44.72147" lon="4.42146">
        <ele>703.99</ele>
        <time>2021-05-19T13:35:38.529Z</time>
      </trkpt>
      <trkpt lat="44.72155" lon="4.42137">
        <ele>704.42</ele>
        <time>2021-05-19T13:35:48.260Z</time>
      </trkpt>
      <trkpt lat="44.72162" lon="4.4213">
        <ele>704.63</ele>
        <time>2021-05-19T13:35:57.277Z</time>
      </trkpt>
      <trkpt lat="44.72169" lon="4.42125">
        <ele>705.71</ele>
        <time>2021-05-19T13:36:06.796Z</time>
      </trkpt>
      <trkpt lat="44.72175" lon="4.42115">
        <ele>705.95</ele>
        <time>2021-05-19T13:36:16.156Z</time>
      </trkpt>
      <trkpt lat="44.72183" lon="4.42106">
        <ele>706.92</ele>
        <time>2021-05-19T13:36:25.356Z</time>
      </trkpt>
      <trkpt lat="44.72197" lon="4.42105">
        <ele>709.36</ele>
        <time>2021-05-19T13:36:34.494Z</time>
      </trkpt>
      <trkpt lat="44.72206" lon="4.42107">
        <ele>708.78</ele>
        <time>2021-05-19T13:36:43.894Z</time>
      </trkpt>
      <trkpt lat="44.72215" lon="4.42109">
        <ele>710.21</ele>
        <time>2021-05-19T13:36:53.135Z</time>
      </trkpt>
      <trkpt lat="44.72225" lon="4.42109">
        <ele>712.52</ele>
        <time>2021-05-19T13:37:02.153Z</time>
      </trkpt>
      <trkpt lat="44.72233" lon="4.42112">
        <ele>713.96</ele>
        <time>2021-05-19T13:37:11.211Z</time>
      </trkpt>
      <trkpt lat="44.72241" lon="4.42113">
        <ele>714.98</ele>
        <time>2021-05-19T13:37:20.232Z</time>
      </trkpt>
      <trkpt lat="44.72249" lon="4.42114">
        <ele>716.16</ele>
        <time>2021-05-19T13:37:29.589Z</time>
      </trkpt>
      <trkpt lat="44.72256" lon="4.42117">
        <ele>716.92</ele>
        <time>2021-05-19T13:37:39.236Z</time>
      </trkpt>
      <trkpt lat="44.72264" lon="4.4212">
        <ele>717.85</ele>
        <time>2021-05-19T13:37:48.372Z</time>
      </trkpt>
      <trkpt lat="44.72274" lon="4.42126">
        <ele>719.08</ele>
        <time>2021-05-19T13:37:58.372Z</time>
      </trkpt>
      <trkpt lat="44.72283" lon="4.42131">
        <ele>720.02</ele>
        <time>2021-05-19T13:38:08.316Z</time>
      </trkpt>
      <trkpt lat="44.7229" lon="4.42135">
        <ele>720.63</ele>
        <time>2021-05-19T13:38:17.508Z</time>
      </trkpt>
      <trkpt lat="44.72299" lon="4.42141">
        <ele>722.21</ele>
        <time>2021-05-19T13:38:26.918Z</time>
      </trkpt>
      <trkpt lat="44.72307" lon="4.42144">
        <ele>723.46</ele>
        <time>2021-05-19T13:38:37.338Z</time>
      </trkpt>
      <trkpt lat="44.72315" lon="4.42145">
        <ele>724.22</ele>
        <time>2021-05-19T13:38:46.373Z</time>
      </trkpt>
      <trkpt lat="44.72325" lon="4.42143">
        <ele>726.22</ele>
        <time>2021-05-19T13:38:56.532Z</time>
      </trkpt>
      <trkpt lat="44.72334" lon="4.42143">
        <ele>728.68</ele>
        <time>2021-05-19T13:39:06.000Z</time>
      </trkpt>
      <trkpt lat="44.72335" lon="4.42143">
        <ele>729.34</ele>
        <time>2021-05-19T13:39:18.109Z</time>
      </trkpt>
      <trkpt lat="44.72345" lon="4.4214">
        <ele>729.58</ele>
        <time>2021-05-19T13:39:28.348Z</time>
      </trkpt>
      <trkpt lat="44.7235" lon="4.42137">
        <ele>730.49</ele>
        <time>2021-05-19T13:39:38.000Z</time>
      </trkpt>
      <trkpt lat="44.72356" lon="4.42134">
        <ele>731.18</ele>
        <time>2021-05-19T13:39:48.056Z</time>
      </trkpt>
      <trkpt lat="44.72362" lon="4.42131">
        <ele>730.95</ele>
        <time>2021-05-19T13:39:57.094Z</time>
      </trkpt>
      <trkpt lat="44.72371" lon="4.42126">
        <ele>731.71</ele>
        <time>2021-05-19T13:40:06.413Z</time>
      </trkpt>
      <trkpt lat="44.72381" lon="4.42122">
        <ele>732.5</ele>
        <time>2021-05-19T13:40:16.011Z</time>
      </trkpt>
      <trkpt lat="44.72391" lon="4.42117">
        <ele>733.03</ele>
        <time>2021-05-19T13:40:25.389Z</time>
      </trkpt>
      <trkpt lat="44.724" lon="4.42112">
        <ele>732.77</ele>
        <time>2021-05-19T13:40:34.910Z</time>
      </trkpt>
      <trkpt lat="44.72407" lon="4.42103">
        <ele>734.19</ele>
        <time>2021-05-19T13:40:44.419Z</time>
      </trkpt>
      <trkpt lat="44.72415" lon="4.42098">
        <ele>733.54</ele>
        <time>2021-05-19T13:40:54.034Z</time>
      </trkpt>
      <trkpt lat="44.72425" lon="4.42094">
        <ele>733.28</ele>
        <time>2021-05-19T13:41:03.216Z</time>
      </trkpt>
      <trkpt lat="44.72435" lon="4.42087">
        <ele>732.85</ele>
        <time>2021-05-19T13:41:12.294Z</time>
      </trkpt>
      <trkpt lat="44.72444" lon="4.42082">
        <ele>732.75</ele>
        <time>2021-05-19T13:41:21.794Z</time>
      </trkpt>
      <trkpt lat="44.72452" lon="4.42083">
        <ele>733.92</ele>
        <time>2021-05-19T13:41:31.000Z</time>
      </trkpt>
      <trkpt lat="44.72458" lon="4.42085">
        <ele>731.96</ele>
        <time>2021-05-19T13:41:40.870Z</time>
      </trkpt>
      <trkpt lat="44.7247" lon="4.42083">
        <ele>732.18</ele>
        <time>2021-05-19T13:41:50.331Z</time>
      </trkpt>
      <trkpt lat="44.72473" lon="4.42078">
        <ele>731.8</ele>
        <time>2021-05-19T13:42:00.189Z</time>
      </trkpt>
      <trkpt lat="44.72495" lon="4.42052">
        <ele>726.91</ele>
        <time>2021-05-19T13:43:15.329Z</time>
      </trkpt>
      <trkpt lat="44.72505" lon="4.42038">
        <ele>725.16</ele>
        <time>2021-05-19T13:43:25.097Z</time>
      </trkpt>
      <trkpt lat="44.72516" lon="4.42024">
        <ele>721.03</ele>
        <time>2021-05-19T13:43:53.772Z</time>
      </trkpt>
      <trkpt lat="44.72524" lon="4.42">
        <ele>719.49</ele>
        <time>2021-05-19T13:44:02.895Z</time>
      </trkpt>
      <trkpt lat="44.72535" lon="4.41985">
        <ele>715.22</ele>
        <time>2021-05-19T13:44:28.911Z</time>
      </trkpt>
      <trkpt lat="44.72549" lon="4.4196">
        <ele>706.7</ele>
        <time>2021-05-19T13:45:25.315Z</time>
      </trkpt>
      <trkpt lat="44.72557" lon="4.41932">
        <ele>703.01</ele>
        <time>2021-05-19T13:45:34.999Z</time>
      </trkpt>
      <trkpt lat="44.7256" lon="4.41915">
        <ele>703.27</ele>
        <time>2021-05-19T13:45:45.253Z</time>
      </trkpt>
      <trkpt lat="44.72565" lon="4.41909">
        <ele>701.07</ele>
        <time>2021-05-19T13:45:54.792Z</time>
      </trkpt>
      <trkpt lat="44.72569" lon="4.41906">
        <ele>699.4</ele>
        <time>2021-05-19T13:46:05.092Z</time>
      </trkpt>
      <trkpt lat="44.72574" lon="4.41899">
        <ele>697.59</ele>
        <time>2021-05-19T13:46:14.535Z</time>
      </trkpt>
      <trkpt lat="44.72575" lon="4.41888">
        <ele>696.08</ele>
        <time>2021-05-19T13:46:23.598Z</time>
      </trkpt>
      <trkpt lat="44.72579" lon="4.41874">
        <ele>692.35</ele>
        <time>2021-05-19T13:46:46.136Z</time>
      </trkpt>
      <trkpt lat="44.72588" lon="4.41854">
        <ele>688.2</ele>
        <time>2021-05-19T13:46:55.535Z</time>
      </trkpt>
      <trkpt lat="44.72592" lon="4.41839">
        <ele>687.03</ele>
        <time>2021-05-19T13:47:04.893Z</time>
      </trkpt>
      <trkpt lat="44.72602" lon="4.41824">
        <ele>683.77</ele>
        <time>2021-05-19T13:47:14.999Z</time>
      </trkpt>
      <trkpt lat="44.72606" lon="4.41818">
        <ele>682.65</ele>
        <time>2021-05-19T13:47:24.932Z</time>
      </trkpt>
      <trkpt lat="44.72614" lon="4.41799">
        <ele>677.15</ele>
        <time>2021-05-19T13:47:52.099Z</time>
      </trkpt>
      <trkpt lat="44.72621" lon="4.41784">
        <ele>676.28</ele>
        <time>2021-05-19T13:48:01.398Z</time>
      </trkpt>
      <trkpt lat="44.72624" lon="4.41767">
        <ele>673.3</ele>
        <time>2021-05-19T13:48:11.237Z</time>
      </trkpt>
      <trkpt lat="44.72633" lon="4.41758">
        <ele>671.35</ele>
        <time>2021-05-19T13:48:20.766Z</time>
      </trkpt>
      <trkpt lat="44.7266" lon="4.41708">
        <ele>648.11</ele>
        <time>2021-05-19T13:50:32.398Z</time>
      </trkpt>
      <trkpt lat="44.72674" lon="4.41684">
        <ele>645.06</ele>
        <time>2021-05-19T13:50:41.436Z</time>
      </trkpt>
      <trkpt lat="44.72683" lon="4.41665">
        <ele>641.95</ele>
        <time>2021-05-19T13:50:50.453Z</time>
      </trkpt>
      <trkpt lat="44.72694" lon="4.41651">
        <ele>640.56</ele>
        <time>2021-05-19T13:50:59.999Z</time>
      </trkpt>
      <trkpt lat="44.72705" lon="4.41642">
        <ele>636.68</ele>
        <time>2021-05-19T13:51:10.132Z</time>
      </trkpt>
      <trkpt lat="44.72707" lon="4.41633">
        <ele>635.34</ele>
        <time>2021-05-19T13:51:20.150Z</time>
      </trkpt>
      <trkpt lat="44.72706" lon="4.41628">
        <ele>634.2</ele>
        <time>2021-05-19T13:51:29.429Z</time>
      </trkpt>
      <trkpt lat="44.72711" lon="4.41626">
        <ele>632.02</ele>
        <time>2021-05-19T13:51:54.767Z</time>
      </trkpt>
      <trkpt lat="44.72725" lon="4.41629">
        <ele>630.62</ele>
        <time>2021-05-19T13:52:04.255Z</time>
      </trkpt>
      <trkpt lat="44.72733" lon="4.4163">
        <ele>629.28</ele>
        <time>2021-05-19T13:52:14.294Z</time>
      </trkpt>
      <trkpt lat="44.72741" lon="4.41633">
        <ele>626.43</ele>
        <time>2021-05-19T13:52:23.999Z</time>
      </trkpt>
      <trkpt lat="44.72748" lon="4.41636">
        <ele>624.84</ele>
        <time>2021-05-19T13:52:33.389Z</time>
      </trkpt>
      <trkpt lat="44.72748" lon="4.41642">
        <ele>623.57</ele>
        <time>2021-05-19T13:52:43.420Z</time>
      </trkpt>
      <trkpt lat="44.72752" lon="4.41653">
        <ele>621.94</ele>
        <time>2021-05-19T13:52:52.860Z</time>
      </trkpt>
      <trkpt lat="44.72756" lon="4.41663">
        <ele>621.93</ele>
        <time>2021-05-19T13:53:02.359Z</time>
      </trkpt>
      <trkpt lat="44.7276" lon="4.41672">
        <ele>621.87</ele>
        <time>2021-05-19T13:53:11.979Z</time>
      </trkpt>
      <trkpt lat="44.72766" lon="4.41668">
        <ele>621.3</ele>
        <time>2021-05-19T13:53:21.278Z</time>
      </trkpt>
      <trkpt lat="44.72773" lon="4.4166">
        <ele>620.33</ele>
        <time>2021-05-19T13:53:30.496Z</time>
      </trkpt>
      <trkpt lat="44.72785" lon="4.41647">
        <ele>619.02</ele>
        <time>2021-05-19T13:53:40.155Z</time>
      </trkpt>
      <trkpt lat="44.72793" lon="4.41635">
        <ele>616.42</ele>
        <time>2021-05-19T13:53:49.851Z</time>
      </trkpt>
      <trkpt lat="44.72803" lon="4.41632">
        <ele>616.04</ele>
        <time>2021-05-19T13:53:59.231Z</time>
      </trkpt>
      <trkpt lat="44.72813" lon="4.41626">
        <ele>615.45</ele>
        <time>2021-05-19T13:54:08.532Z</time>
      </trkpt>
      <trkpt lat="44.72817" lon="4.41622">
        <ele>614.83</ele>
        <time>2021-05-19T13:54:17.999Z</time>
      </trkpt>
      <trkpt lat="44.72819" lon="4.41618">
        <ele>614.89</ele>
        <time>2021-05-19T13:54:27.218Z</time>
      </trkpt>
      <trkpt lat="44.72828" lon="4.41611">
        <ele>613.37</ele>
        <time>2021-05-19T13:54:36.440Z</time>
      </trkpt>
      <trkpt lat="44.72831" lon="4.41606">
        <ele>613.03</ele>
        <time>2021-05-19T13:54:45.936Z</time>
      </trkpt>
      <trkpt lat="44.72841" lon="4.41593">
        <ele>611.75</ele>
        <time>2021-05-19T13:54:55.400Z</time>
      </trkpt>
      <trkpt lat="44.72849" lon="4.41587">
        <ele>610.35</ele>
        <time>2021-05-19T13:55:04.976Z</time>
      </trkpt>
      <trkpt lat="44.72859" lon="4.4158">
        <ele>611</ele>
        <time>2021-05-19T13:55:13.999Z</time>
      </trkpt>
      <trkpt lat="44.72866" lon="4.41578">
        <ele>608.17</ele>
        <time>2021-05-19T13:55:23.898Z</time>
      </trkpt>
      <trkpt lat="44.72872" lon="4.41578">
        <ele>606.61</ele>
        <time>2021-05-19T13:55:33.290Z</time>
      </trkpt>
      <trkpt lat="44.72884" lon="4.41575">
        <ele>604.81</ele>
        <time>2021-05-19T13:55:42.837Z</time>
      </trkpt>
      <trkpt lat="44.72892" lon="4.41574">
        <ele>605.16</ele>
        <time>2021-05-19T13:55:52.878Z</time>
      </trkpt>
      <trkpt lat="44.72901" lon="4.41567">
        <ele>605.04</ele>
        <time>2021-05-19T13:56:02.297Z</time>
      </trkpt>
      <trkpt lat="44.72915" lon="4.4156">
        <ele>602.6</ele>
        <time>2021-05-19T13:56:11.497Z</time>
      </trkpt>
      <trkpt lat="44.72928" lon="4.41553">
        <ele>600.99</ele>
        <time>2021-05-19T13:56:21.174Z</time>
      </trkpt>
      <trkpt lat="44.72937" lon="4.41547">
        <ele>600.3</ele>
        <time>2021-05-19T13:56:30.643Z</time>
      </trkpt>
      <trkpt lat="44.72947" lon="4.41545">
        <ele>596.92</ele>
        <time>2021-05-19T13:56:39.995Z</time>
      </trkpt>
      <trkpt lat="44.72953" lon="4.41552">
        <ele>597.18</ele>
        <time>2021-05-19T13:56:49.453Z</time>
      </trkpt>
      <trkpt lat="44.72965" lon="4.41552">
        <ele>594.99</ele>
        <time>2021-05-19T13:56:58.893Z</time>
      </trkpt>
      <trkpt lat="44.72976" lon="4.41557">
        <ele>594.17</ele>
        <time>2021-05-19T13:57:08.253Z</time>
      </trkpt>
      <trkpt lat="44.72983" lon="4.41565">
        <ele>592.46</ele>
        <time>2021-05-19T13:57:17.391Z</time>
      </trkpt>
      <trkpt lat="44.72994" lon="4.41575">
        <ele>590.55</ele>
        <time>2021-05-19T13:57:27.000Z</time>
      </trkpt>
      <trkpt lat="44.73002" lon="4.41583">
        <ele>586.96</ele>
        <time>2021-05-19T13:57:36.558Z</time>
      </trkpt>
      <trkpt lat="44.73009" lon="4.41594">
        <ele>587.91</ele>
        <time>2021-05-19T13:57:46.457Z</time>
      </trkpt>
      <trkpt lat="44.73019" lon="4.41603">
        <ele>589.22</ele>
        <time>2021-05-19T13:57:56.000Z</time>
      </trkpt>
      <trkpt lat="44.73023" lon="4.41608">
        <ele>587.72</ele>
        <time>2021-05-19T13:58:05.455Z</time>
      </trkpt>
      <trkpt lat="44.73028" lon="4.41611">
        <ele>587.35</ele>
        <time>2021-05-19T13:58:15.393Z</time>
      </trkpt>
      <trkpt lat="44.73034" lon="4.41612">
        <ele>585.47</ele>
        <time>2021-05-19T13:58:24.394Z</time>
      </trkpt>
      <trkpt lat="44.7305" lon="4.41607">
        <ele>588.94</ele>
        <time>2021-05-19T13:58:34.112Z</time>
      </trkpt>
      <trkpt lat="44.73062" lon="4.41604">
        <ele>583.39</ele>
        <time>2021-05-19T13:58:44.189Z</time>
      </trkpt>
      <trkpt lat="44.73071" lon="4.41601">
        <ele>581.61</ele>
        <time>2021-05-19T13:58:53.648Z</time>
      </trkpt>
      <trkpt lat="44.73079" lon="4.41601">
        <ele>579.28</ele>
        <time>2021-05-19T13:59:02.909Z</time>
      </trkpt>
      <trkpt lat="44.73083" lon="4.41598">
        <ele>578.3</ele>
        <time>2021-05-19T13:59:11.999Z</time>
      </trkpt>
      <trkpt lat="44.7309" lon="4.41594">
        <ele>577.75</ele>
        <time>2021-05-19T13:59:21.421Z</time>
      </trkpt>
      <trkpt lat="44.731" lon="4.4159">
        <ele>577.61</ele>
        <time>2021-05-19T13:59:31.335Z</time>
      </trkpt>
      <trkpt lat="44.73107" lon="4.41586">
        <ele>576.25</ele>
        <time>2021-05-19T13:59:40.953Z</time>
      </trkpt>
      <trkpt lat="44.73116" lon="4.41582">
        <ele>575.83</ele>
        <time>2021-05-19T13:59:50.294Z</time>
      </trkpt>
      <trkpt lat="44.73122" lon="4.41577">
        <ele>575.18</ele>
        <time>2021-05-19T13:59:59.455Z</time>
      </trkpt>
      <trkpt lat="44.73125" lon="4.41574">
        <ele>575.07</ele>
        <time>2021-05-19T14:00:09.491Z</time>
      </trkpt>
      <trkpt lat="44.73135" lon="4.41579">
        <ele>575.21</ele>
        <time>2021-05-19T14:00:19.348Z</time>
      </trkpt>
      <trkpt lat="44.73134" lon="4.41592">
        <ele>575.95</ele>
        <time>2021-05-19T14:00:28.414Z</time>
      </trkpt>
      <trkpt lat="44.73143" lon="4.41603">
        <ele>575.32</ele>
        <time>2021-05-19T14:00:37.778Z</time>
      </trkpt>
      <trkpt lat="44.73156" lon="4.4161">
        <ele>575.17</ele>
        <time>2021-05-19T14:00:47.076Z</time>
      </trkpt>
      <trkpt lat="44.73161" lon="4.41604">
        <ele>575.79</ele>
        <time>2021-05-19T14:00:57.095Z</time>
      </trkpt>
      <trkpt lat="44.73168" lon="4.41588">
        <ele>573.37</ele>
        <time>2021-05-19T14:01:06.195Z</time>
      </trkpt>
      <trkpt lat="44.73167" lon="4.41572">
        <ele>574.96</ele>
        <time>2021-05-19T14:02:00.000Z</time>
      </trkpt>
      <trkpt lat="44.73169" lon="4.4158">
        <ele>575.91</ele>
        <time>2021-05-19T14:04:11.310Z</time>
      </trkpt>
      <trkpt lat="44.7318" lon="4.41591">
        <ele>575.73</ele>
        <time>2021-05-19T14:04:20.899Z</time>
      </trkpt>
      <trkpt lat="44.73185" lon="4.41593">
        <ele>576</ele>
        <time>2021-05-19T14:04:30.000Z</time>
      </trkpt>
      <trkpt lat="44.73187" lon="4.41593">
        <ele>577.03</ele>
        <time>2021-05-19T14:04:42.516Z</time>
      </trkpt>
      <trkpt lat="44.73196" lon="4.416">
        <ele>578.57</ele>
        <time>2021-05-19T14:04:52.195Z</time>
      </trkpt>
      <trkpt lat="44.73203" lon="4.41608">
        <ele>579.15</ele>
        <time>2021-05-19T14:05:01.633Z</time>
      </trkpt>
      <trkpt lat="44.73206" lon="4.41613">
        <ele>580.27</ele>
        <time>2021-05-19T14:05:11.014Z</time>
      </trkpt>
      <trkpt lat="44.73212" lon="4.41617">
        <ele>580.1</ele>
        <time>2021-05-19T14:05:20.110Z</time>
      </trkpt>
      <trkpt lat="44.7322" lon="4.41623">
        <ele>581.88</ele>
        <time>2021-05-19T14:05:29.451Z</time>
      </trkpt>
      <trkpt lat="44.73227" lon="4.41626">
        <ele>583.87</ele>
        <time>2021-05-19T14:05:39.078Z</time>
      </trkpt>
      <trkpt lat="44.73242" lon="4.41636">
        <ele>588.32</ele>
        <time>2021-05-19T14:06:14.556Z</time>
      </trkpt>
      <trkpt lat="44.73254" lon="4.41647">
        <ele>590.46</ele>
        <time>2021-05-19T14:06:23.775Z</time>
      </trkpt>
      <trkpt lat="44.73262" lon="4.41658">
        <ele>593.06</ele>
        <time>2021-05-19T14:06:33.056Z</time>
      </trkpt>
      <trkpt lat="44.73266" lon="4.41661">
        <ele>595.26</ele>
        <time>2021-05-19T14:06:43.536Z</time>
      </trkpt>
      <trkpt lat="44.73273" lon="4.41671">
        <ele>595.76</ele>
        <time>2021-05-19T14:06:53.253Z</time>
      </trkpt>
      <trkpt lat="44.73276" lon="4.41679">
        <ele>598.09</ele>
        <time>2021-05-19T14:07:03.112Z</time>
      </trkpt>
      <trkpt lat="44.73283" lon="4.41683">
        <ele>600.84</ele>
        <time>2021-05-19T14:07:13.509Z</time>
      </trkpt>
      <trkpt lat="44.73291" lon="4.41694">
        <ele>602.36</ele>
        <time>2021-05-19T14:07:23.469Z</time>
      </trkpt>
      <trkpt lat="44.73296" lon="4.41704">
        <ele>604.36</ele>
        <time>2021-05-19T14:07:33.040Z</time>
      </trkpt>
      <trkpt lat="44.73302" lon="4.41715">
        <ele>605.45</ele>
        <time>2021-05-19T14:07:42.418Z</time>
      </trkpt>
      <trkpt lat="44.73305" lon="4.41726">
        <ele>605.19</ele>
        <time>2021-05-19T14:07:51.999Z</time>
      </trkpt>
      <trkpt lat="44.73306" lon="4.4173">
        <ele>604.92</ele>
        <time>2021-05-19T14:08:01.999Z</time>
      </trkpt>
      <trkpt lat="44.73311" lon="4.4173">
        <ele>605.74</ele>
        <time>2021-05-19T14:08:11.999Z</time>
      </trkpt>
      <trkpt lat="44.73311" lon="4.41732">
        <ele>607.57</ele>
        <time>2021-05-19T14:09:18.195Z</time>
      </trkpt>
      <trkpt lat="44.73322" lon="4.41737">
        <ele>606.78</ele>
        <time>2021-05-19T14:09:27.653Z</time>
      </trkpt>
      <trkpt lat="44.73329" lon="4.41748">
        <ele>607.59</ele>
        <time>2021-05-19T14:09:36.973Z</time>
      </trkpt>
      <trkpt lat="44.73339" lon="4.41759">
        <ele>607.44</ele>
        <time>2021-05-19T14:09:45.999Z</time>
      </trkpt>
      <trkpt lat="44.73348" lon="4.41768">
        <ele>606.85</ele>
        <time>2021-05-19T14:09:55.999Z</time>
      </trkpt>
      <trkpt lat="44.73351" lon="4.41772">
        <ele>606.66</ele>
        <time>2021-05-19T14:10:05.999Z</time>
      </trkpt>
      <trkpt lat="44.73354" lon="4.41769">
        <ele>606.51</ele>
        <time>2021-05-19T14:10:29.919Z</time>
      </trkpt>
      <trkpt lat="44.73357" lon="4.41785">
        <ele>607.08</ele>
        <time>2021-05-19T14:10:39.436Z</time>
      </trkpt>
      <trkpt lat="44.73361" lon="4.41794">
        <ele>606.68</ele>
        <time>2021-05-19T14:10:53.999Z</time>
      </trkpt>
      <trkpt lat="44.73362" lon="4.41795">
        <ele>606.14</ele>
        <time>2021-05-19T14:11:05.999Z</time>
      </trkpt>
      <trkpt lat="44.73368" lon="4.41806">
        <ele>605.89</ele>
        <time>2021-05-19T14:11:15.414Z</time>
      </trkpt>
      <trkpt lat="44.73373" lon="4.41813">
        <ele>605.26</ele>
        <time>2021-05-19T14:11:25.370Z</time>
      </trkpt>
      <trkpt lat="44.73385" lon="4.41818">
        <ele>604.89</ele>
        <time>2021-05-19T14:11:34.524Z</time>
      </trkpt>
      <trkpt lat="44.73395" lon="4.41818">
        <ele>605.37</ele>
        <time>2021-05-19T14:11:43.896Z</time>
      </trkpt>
      <trkpt lat="44.73407" lon="4.41816">
        <ele>605.02</ele>
        <time>2021-05-19T14:11:53.096Z</time>
      </trkpt>
      <trkpt lat="44.73418" lon="4.41814">
        <ele>604.03</ele>
        <time>2021-05-19T14:12:02.376Z</time>
      </trkpt>
      <trkpt lat="44.73431" lon="4.41817">
        <ele>604.38</ele>
        <time>2021-05-19T14:12:12.254Z</time>
      </trkpt>
      <trkpt lat="44.73443" lon="4.41821">
        <ele>603.29</ele>
        <time>2021-05-19T14:12:22.111Z</time>
      </trkpt>
      <trkpt lat="44.73455" lon="4.4182">
        <ele>604.09</ele>
        <time>2021-05-19T14:12:31.890Z</time>
      </trkpt>
      <trkpt lat="44.73459" lon="4.41819">
        <ele>604.35</ele>
        <time>2021-05-19T14:12:40.999Z</time>
      </trkpt>
      <trkpt lat="44.73465" lon="4.41821">
        <ele>603.57</ele>
        <time>2021-05-19T14:12:57.057Z</time>
      </trkpt>
      <trkpt lat="44.73486" lon="4.41827">
        <ele>602.6</ele>
        <time>2021-05-19T14:13:06.780Z</time>
      </trkpt>
      <trkpt lat="44.73502" lon="4.41833">
        <ele>602.45</ele>
        <time>2021-05-19T14:13:16.553Z</time>
      </trkpt>
      <trkpt lat="44.73514" lon="4.41839">
        <ele>603.23</ele>
        <time>2021-05-19T14:13:26.333Z</time>
      </trkpt>
      <trkpt lat="44.73521" lon="4.4184">
        <ele>603.01</ele>
        <time>2021-05-19T14:13:36.150Z</time>
      </trkpt>
      <trkpt lat="44.73527" lon="4.41842">
        <ele>602.31</ele>
        <time>2021-05-19T14:13:51.371Z</time>
      </trkpt>
      <trkpt lat="44.73545" lon="4.41846">
        <ele>601.03</ele>
        <time>2021-05-19T14:14:01.149Z</time>
      </trkpt>
      <trkpt lat="44.7356" lon="4.41845">
        <ele>602.31</ele>
        <time>2021-05-19T14:14:10.999Z</time>
      </trkpt>
      <trkpt lat="44.73578" lon="4.41846">
        <ele>601.44</ele>
        <time>2021-05-19T14:14:21.117Z</time>
      </trkpt>
      <trkpt lat="44.73596" lon="4.41847">
        <ele>602.45</ele>
        <time>2021-05-19T14:14:30.517Z</time>
      </trkpt>
      <trkpt lat="44.73612" lon="4.41851">
        <ele>601.97</ele>
        <time>2021-05-19T14:14:40.334Z</time>
      </trkpt>
      <trkpt lat="44.73624" lon="4.41853">
        <ele>601.31</ele>
        <time>2021-05-19T14:14:50.112Z</time>
      </trkpt>
      <trkpt lat="44.73635" lon="4.41853">
        <ele>600.96</ele>
        <time>2021-05-19T14:14:59.953Z</time>
      </trkpt>
      <trkpt lat="44.73644" lon="4.41853">
        <ele>601.3</ele>
        <time>2021-05-19T14:15:09.072Z</time>
      </trkpt>
      <trkpt lat="44.73657" lon="4.41855">
        <ele>600.81</ele>
        <time>2021-05-19T14:15:18.492Z</time>
      </trkpt>
      <trkpt lat="44.73671" lon="4.41859">
        <ele>599.81</ele>
        <time>2021-05-19T14:15:28.379Z</time>
      </trkpt>
      <trkpt lat="44.73686" lon="4.41866">
        <ele>600.44</ele>
        <time>2021-05-19T14:15:37.797Z</time>
      </trkpt>
      <trkpt lat="44.73696" lon="4.4187">
        <ele>599.99</ele>
        <time>2021-05-19T14:15:47.517Z</time>
      </trkpt>
      <trkpt lat="44.73709" lon="4.41877">
        <ele>601.29</ele>
        <time>2021-05-19T14:15:57.255Z</time>
      </trkpt>
      <trkpt lat="44.7372" lon="4.41882">
        <ele>602.04</ele>
        <time>2021-05-19T14:16:07.157Z</time>
      </trkpt>
      <trkpt lat="44.73728" lon="4.41888">
        <ele>602.51</ele>
        <time>2021-05-19T14:16:16.374Z</time>
      </trkpt>
      <trkpt lat="44.73735" lon="4.41887">
        <ele>601.43</ele>
        <time>2021-05-19T14:16:25.777Z</time>
      </trkpt>
      <trkpt lat="44.73744" lon="4.41888">
        <ele>601.47</ele>
        <time>2021-05-19T14:16:35.000Z</time>
      </trkpt>
      <trkpt lat="44.73737" lon="4.41886">
        <ele>601.52</ele>
        <time>2021-05-19T14:16:55.000Z</time>
      </trkpt>
      <trkpt lat="44.73739" lon="4.41889">
        <ele>600.87</ele>
        <time>2021-05-19T14:17:32.000Z</time>
      </trkpt>
      <trkpt lat="44.73745" lon="4.41899">
        <ele>601.33</ele>
        <time>2021-05-19T14:17:42.254Z</time>
      </trkpt>
      <trkpt lat="44.73747" lon="4.41899">
        <ele>602.61</ele>
        <time>2021-05-19T14:17:51.556Z</time>
      </trkpt>
      <trkpt lat="44.73743" lon="4.41897">
        <ele>602.2</ele>
        <time>2021-05-19T14:18:42.000Z</time>
      </trkpt>
      <trkpt lat="44.73743" lon="4.41901">
        <ele>601.6</ele>
        <time>2021-05-19T14:19:45.000Z</time>
      </trkpt>
      <trkpt lat="44.73741" lon="4.41897">
        <ele>601.45</ele>
        <time>2021-05-19T14:20:25.000Z</time>
      </trkpt>
      <trkpt lat="44.73742" lon="4.41901">
        <ele>598.76</ele>
        <time>2021-05-19T14:22:22.055Z</time>
      </trkpt>
      <trkpt lat="44.73749" lon="4.41915">
        <ele>599.89</ele>
        <time>2021-05-19T14:22:31.214Z</time>
      </trkpt>
      <trkpt lat="44.73755" lon="4.41926">
        <ele>601.16</ele>
        <time>2021-05-19T14:22:41.000Z</time>
      </trkpt>
      <trkpt lat="44.73752" lon="4.41924">
        <ele>601.76</ele>
        <time>2021-05-19T14:22:50.331Z</time>
      </trkpt>
      <trkpt lat="44.73754" lon="4.41924">
        <ele>601.78</ele>
        <time>2021-05-19T14:23:03.952Z</time>
      </trkpt>
      <trkpt lat="44.73763" lon="4.41937">
        <ele>600.58</ele>
        <time>2021-05-19T14:23:13.451Z</time>
      </trkpt>
      <trkpt lat="44.7377" lon="4.41944">
        <ele>600.54</ele>
        <time>2021-05-19T14:23:22.628Z</time>
      </trkpt>
      <trkpt lat="44.7378" lon="4.41952">
        <ele>601.99</ele>
        <time>2021-05-19T14:23:31.779Z</time>
      </trkpt>
      <trkpt lat="44.7379" lon="4.41956">
        <ele>601.26</ele>
        <time>2021-05-19T14:23:40.798Z</time>
      </trkpt>
      <trkpt lat="44.73796" lon="4.41967">
        <ele>601.94</ele>
        <time>2021-05-19T14:23:50.256Z</time>
      </trkpt>
      <trkpt lat="44.73805" lon="4.41972">
        <ele>603.17</ele>
        <time>2021-05-19T14:23:59.357Z</time>
      </trkpt>
      <trkpt lat="44.73813" lon="4.41974">
        <ele>604.57</ele>
        <time>2021-05-19T14:24:08.893Z</time>
      </trkpt>
      <trkpt lat="44.7382" lon="4.4198">
        <ele>604.91</ele>
        <time>2021-05-19T14:24:17.994Z</time>
      </trkpt>
      <trkpt lat="44.73827" lon="4.41982">
        <ele>605.2</ele>
        <time>2021-05-19T14:24:27.372Z</time>
      </trkpt>
      <trkpt lat="44.73836" lon="4.4199">
        <ele>605.84</ele>
        <time>2021-05-19T14:24:36.811Z</time>
      </trkpt>
      <trkpt lat="44.73848" lon="4.42003">
        <ele>605.59</ele>
        <time>2021-05-19T14:24:45.875Z</time>
      </trkpt>
      <trkpt lat="44.73858" lon="4.42014">
        <ele>605.59</ele>
        <time>2021-05-19T14:24:55.311Z</time>
      </trkpt>
      <trkpt lat="44.73867" lon="4.42012">
        <ele>606.24</ele>
        <time>2021-05-19T14:25:04.554Z</time>
      </trkpt>
      <trkpt lat="44.73875" lon="4.42">
        <ele>606.35</ele>
        <time>2021-05-19T14:25:14.090Z</time>
      </trkpt>
      <trkpt lat="44.73887" lon="4.41999">
        <ele>606.78</ele>
        <time>2021-05-19T14:25:23.210Z</time>
      </trkpt>
      <trkpt lat="44.739" lon="4.42005">
        <ele>607.67</ele>
        <time>2021-05-19T14:25:33.448Z</time>
      </trkpt>
      <trkpt lat="44.73913" lon="4.42011">
        <ele>610.61</ele>
        <time>2021-05-19T14:25:42.537Z</time>
      </trkpt>
      <trkpt lat="44.73922" lon="4.42017">
        <ele>608.71</ele>
        <time>2021-05-19T14:25:51.996Z</time>
      </trkpt>
      <trkpt lat="44.7393" lon="4.42029">
        <ele>609.56</ele>
        <time>2021-05-19T14:26:01.535Z</time>
      </trkpt>
      <trkpt lat="44.73937" lon="4.42038">
        <ele>611.42</ele>
        <time>2021-05-19T14:26:11.354Z</time>
      </trkpt>
      <trkpt lat="44.73947" lon="4.42044">
        <ele>613.25</ele>
        <time>2021-05-19T14:26:20.374Z</time>
      </trkpt>
      <trkpt lat="44.73957" lon="4.42046">
        <ele>614.95</ele>
        <time>2021-05-19T14:26:29.854Z</time>
      </trkpt>
      <trkpt lat="44.73967" lon="4.42052">
        <ele>614.28</ele>
        <time>2021-05-19T14:26:39.193Z</time>
      </trkpt>
      <trkpt lat="44.73976" lon="4.42063">
        <ele>615.83</ele>
        <time>2021-05-19T14:26:49.332Z</time>
      </trkpt>
      <trkpt lat="44.73986" lon="4.4207">
        <ele>615.42</ele>
        <time>2021-05-19T14:26:58.850Z</time>
      </trkpt>
      <trkpt lat="44.73997" lon="4.42075">
        <ele>615.84</ele>
        <time>2021-05-19T14:27:08.289Z</time>
      </trkpt>
      <trkpt lat="44.74007" lon="4.42078">
        <ele>617.69</ele>
        <time>2021-05-19T14:27:17.770Z</time>
      </trkpt>
      <trkpt lat="44.74018" lon="4.42081">
        <ele>618.41</ele>
        <time>2021-05-19T14:27:27.356Z</time>
      </trkpt>
      <trkpt lat="44.74028" lon="4.42082">
        <ele>619.13</ele>
        <time>2021-05-19T14:27:36.476Z</time>
      </trkpt>
      <trkpt lat="44.7404" lon="4.42086">
        <ele>622.09</ele>
        <time>2021-05-19T14:27:45.517Z</time>
      </trkpt>
      <trkpt lat="44.74052" lon="4.42089">
        <ele>621.85</ele>
        <time>2021-05-19T14:27:54.999Z</time>
      </trkpt>
      <trkpt lat="44.74055" lon="4.4209">
        <ele>621.99</ele>
        <time>2021-05-19T14:28:04.294Z</time>
      </trkpt>
      <trkpt lat="44.74067" lon="4.42099">
        <ele>621.31</ele>
        <time>2021-05-19T14:28:14.272Z</time>
      </trkpt>
      <trkpt lat="44.74075" lon="4.42109">
        <ele>622.11</ele>
        <time>2021-05-19T14:28:23.390Z</time>
      </trkpt>
      <trkpt lat="44.74083" lon="4.42114">
        <ele>622.65</ele>
        <time>2021-05-19T14:28:33.050Z</time>
      </trkpt>
      <trkpt lat="44.74093" lon="4.42122">
        <ele>624</ele>
        <time>2021-05-19T14:28:43.128Z</time>
      </trkpt>
      <trkpt lat="44.74103" lon="4.42128">
        <ele>624.95</ele>
        <time>2021-05-19T14:28:52.230Z</time>
      </trkpt>
      <trkpt lat="44.74116" lon="4.42131">
        <ele>628.15</ele>
        <time>2021-05-19T14:29:01.419Z</time>
      </trkpt>
      <trkpt lat="44.74126" lon="4.42126">
        <ele>626.05</ele>
        <time>2021-05-19T14:29:11.318Z</time>
      </trkpt>
      <trkpt lat="44.7413" lon="4.42114">
        <ele>626.63</ele>
        <time>2021-05-19T14:29:20.617Z</time>
      </trkpt>
      <trkpt lat="44.74136" lon="4.42099">
        <ele>627.15</ele>
        <time>2021-05-19T14:29:30.117Z</time>
      </trkpt>
      <trkpt lat="44.7414" lon="4.42088">
        <ele>626.63</ele>
        <time>2021-05-19T14:29:39.875Z</time>
      </trkpt>
      <trkpt lat="44.74143" lon="4.4207">
        <ele>624.82</ele>
        <time>2021-05-19T14:29:48.999Z</time>
      </trkpt>
      <trkpt lat="44.74146" lon="4.42052">
        <ele>624.44</ele>
        <time>2021-05-19T14:29:58.372Z</time>
      </trkpt>
      <trkpt lat="44.74148" lon="4.42033">
        <ele>624.8</ele>
        <time>2021-05-19T14:30:07.767Z</time>
      </trkpt>
      <trkpt lat="44.74153" lon="4.42019">
        <ele>624.56</ele>
        <time>2021-05-19T14:30:16.949Z</time>
      </trkpt>
      <trkpt lat="44.74161" lon="4.42006">
        <ele>624.42</ele>
        <time>2021-05-19T14:30:26.008Z</time>
      </trkpt>
      <trkpt lat="44.74168" lon="4.41994">
        <ele>625.86</ele>
        <time>2021-05-19T14:30:35.419Z</time>
      </trkpt>
      <trkpt lat="44.74177" lon="4.41993">
        <ele>625.39</ele>
        <time>2021-05-19T14:30:45.337Z</time>
      </trkpt>
      <trkpt lat="44.7419" lon="4.4199">
        <ele>625.24</ele>
        <time>2021-05-19T14:30:54.762Z</time>
      </trkpt>
      <trkpt lat="44.74206" lon="4.4199">
        <ele>625.24</ele>
        <time>2021-05-19T14:31:04.073Z</time>
      </trkpt>
      <trkpt lat="44.74219" lon="4.41989">
        <ele>625.84</ele>
        <time>2021-05-19T14:31:14.014Z</time>
      </trkpt>
      <trkpt lat="44.74232" lon="4.41992">
        <ele>625.59</ele>
        <time>2021-05-19T14:31:23.952Z</time>
      </trkpt>
      <trkpt lat="44.74244" lon="4.42">
        <ele>625.35</ele>
        <time>2021-05-19T14:31:33.194Z</time>
      </trkpt>
      <trkpt lat="44.74256" lon="4.41999">
        <ele>626.23</ele>
        <time>2021-05-19T14:31:43.149Z</time>
      </trkpt>
      <trkpt lat="44.74267" lon="4.41999">
        <ele>627.36</ele>
        <time>2021-05-19T14:31:52.188Z</time>
      </trkpt>
      <trkpt lat="44.74277" lon="4.42002">
        <ele>628.14</ele>
        <time>2021-05-19T14:32:01.537Z</time>
      </trkpt>
      <trkpt lat="44.74291" lon="4.42007">
        <ele>628.82</ele>
        <time>2021-05-19T14:32:11.518Z</time>
      </trkpt>
      <trkpt lat="44.74305" lon="4.42004">
        <ele>629.76</ele>
        <time>2021-05-19T14:32:21.496Z</time>
      </trkpt>
      <trkpt lat="44.74319" lon="4.42004">
        <ele>630.66</ele>
        <time>2021-05-19T14:32:31.076Z</time>
      </trkpt>
      <trkpt lat="44.7433" lon="4.41998">
        <ele>631.41</ele>
        <time>2021-05-19T14:32:40.334Z</time>
      </trkpt>
      <trkpt lat="44.74338" lon="4.4199">
        <ele>632.76</ele>
        <time>2021-05-19T14:32:49.373Z</time>
      </trkpt>
      <trkpt lat="44.74347" lon="4.41978">
        <ele>633.5</ele>
        <time>2021-05-19T14:32:59.209Z</time>
      </trkpt>
      <trkpt lat="44.74358" lon="4.41965">
        <ele>636.46</ele>
        <time>2021-05-19T14:33:08.830Z</time>
      </trkpt>
      <trkpt lat="44.74365" lon="4.41956">
        <ele>638.32</ele>
        <time>2021-05-19T14:33:17.850Z</time>
      </trkpt>
      <trkpt lat="44.74374" lon="4.41949">
        <ele>638.72</ele>
        <time>2021-05-19T14:33:26.999Z</time>
      </trkpt>
      <trkpt lat="44.74382" lon="4.41957">
        <ele>639.79</ele>
        <time>2021-05-19T14:33:36.058Z</time>
      </trkpt>
      <trkpt lat="44.74389" lon="4.41962">
        <ele>641.67</ele>
        <time>2021-05-19T14:33:45.999Z</time>
      </trkpt>
      <trkpt lat="44.7439" lon="4.41961">
        <ele>641.36</ele>
        <time>2021-05-19T14:33:55.999Z</time>
      </trkpt>
      <trkpt lat="44.74393" lon="4.41958">
        <ele>642.01</ele>
        <time>2021-05-19T14:34:05.054Z</time>
      </trkpt>
      <trkpt lat="44.74395" lon="4.41958">
        <ele>642.82</ele>
        <time>2021-05-19T14:34:19.999Z</time>
      </trkpt>
      <trkpt lat="44.74396" lon="4.41964">
        <ele>640.33</ele>
        <time>2021-05-19T14:34:29.954Z</time>
      </trkpt>
      <trkpt lat="44.74406" lon="4.41961">
        <ele>639.28</ele>
        <time>2021-05-19T14:34:39.890Z</time>
      </trkpt>
      <trkpt lat="44.74416" lon="4.41962">
        <ele>637.72</ele>
        <time>2021-05-19T14:34:49.011Z</time>
      </trkpt>
      <trkpt lat="44.74428" lon="4.41969">
        <ele>638.92</ele>
        <time>2021-05-19T14:34:58.350Z</time>
      </trkpt>
      <trkpt lat="44.74436" lon="4.41975">
        <ele>641.17</ele>
        <time>2021-05-19T14:35:08.000Z</time>
      </trkpt>
      <trkpt lat="44.7444" lon="4.41975">
        <ele>641.28</ele>
        <time>2021-05-19T14:35:22.339Z</time>
      </trkpt>
      <trkpt lat="44.74453" lon="4.41978">
        <ele>643.71</ele>
        <time>2021-05-19T14:35:31.496Z</time>
      </trkpt>
      <trkpt lat="44.74463" lon="4.41981">
        <ele>644.07</ele>
        <time>2021-05-19T14:35:41.417Z</time>
      </trkpt>
      <trkpt lat="44.74473" lon="4.41982">
        <ele>645.52</ele>
        <time>2021-05-19T14:35:51.215Z</time>
      </trkpt>
      <trkpt lat="44.74484" lon="4.4198">
        <ele>647.14</ele>
        <time>2021-05-19T14:36:00.394Z</time>
      </trkpt>
      <trkpt lat="44.74495" lon="4.41974">
        <ele>649.14</ele>
        <time>2021-05-19T14:36:09.751Z</time>
      </trkpt>
      <trkpt lat="44.74502" lon="4.4197">
        <ele>648.84</ele>
        <time>2021-05-19T14:36:18.951Z</time>
      </trkpt>
      <trkpt lat="44.7451" lon="4.41968">
        <ele>651.87</ele>
        <time>2021-05-19T14:36:28.523Z</time>
      </trkpt>
      <trkpt lat="44.7452" lon="4.41971">
        <ele>654.61</ele>
        <time>2021-05-19T14:36:37.977Z</time>
      </trkpt>
      <trkpt lat="44.74529" lon="4.41963">
        <ele>654.93</ele>
        <time>2021-05-19T14:36:47.115Z</time>
      </trkpt>
      <trkpt lat="44.74534" lon="4.41949">
        <ele>656.88</ele>
        <time>2021-05-19T14:36:56.374Z</time>
      </trkpt>
      <trkpt lat="44.74541" lon="4.41937">
        <ele>658.11</ele>
        <time>2021-05-19T14:37:06.317Z</time>
      </trkpt>
      <trkpt lat="44.74548" lon="4.4195">
        <ele>659.93</ele>
        <time>2021-05-19T14:37:15.954Z</time>
      </trkpt>
      <trkpt lat="44.74552" lon="4.41954">
        <ele>661.18</ele>
        <time>2021-05-19T14:37:25.000Z</time>
      </trkpt>
      <trkpt lat="44.74554" lon="4.41952">
        <ele>663.01</ele>
        <time>2021-05-19T14:37:37.373Z</time>
      </trkpt>
      <trkpt lat="44.7456" lon="4.41954">
        <ele>664.71</ele>
        <time>2021-05-19T14:37:47.000Z</time>
      </trkpt>
      <trkpt lat="44.74557" lon="4.41954">
        <ele>664.98</ele>
        <time>2021-05-19T14:38:06.000Z</time>
      </trkpt>
      <trkpt lat="44.74557" lon="4.4196">
        <ele>665.03</ele>
        <time>2021-05-19T14:38:15.349Z</time>
      </trkpt>
      <trkpt lat="44.74561" lon="4.41967">
        <ele>664.5</ele>
        <time>2021-05-19T14:39:23.894Z</time>
      </trkpt>
      <trkpt lat="44.74564" lon="4.41983">
        <ele>665.44</ele>
        <time>2021-05-19T14:39:33.511Z</time>
      </trkpt>
      <trkpt lat="44.74568" lon="4.42003">
        <ele>665.95</ele>
        <time>2021-05-19T14:39:42.970Z</time>
      </trkpt>
      <trkpt lat="44.74571" lon="4.42017">
        <ele>667.35</ele>
        <time>2021-05-19T14:39:51.971Z</time>
      </trkpt>
      <trkpt lat="44.7458" lon="4.42029">
        <ele>666.26</ele>
        <time>2021-05-19T14:40:01.000Z</time>
      </trkpt>
      <trkpt lat="44.74582" lon="4.42033">
        <ele>666.7</ele>
        <time>2021-05-19T14:40:11.000Z</time>
      </trkpt>
      <trkpt lat="44.74584" lon="4.42037">
        <ele>665.8</ele>
        <time>2021-05-19T14:40:21.096Z</time>
      </trkpt>
      <trkpt lat="44.74594" lon="4.42051">
        <ele>666.78</ele>
        <time>2021-05-19T14:40:30.098Z</time>
      </trkpt>
      <trkpt lat="44.74603" lon="4.42066">
        <ele>667.56</ele>
        <time>2021-05-19T14:40:39.253Z</time>
      </trkpt>
      <trkpt lat="44.7461" lon="4.42075">
        <ele>666.6</ele>
        <time>2021-05-19T14:40:48.413Z</time>
      </trkpt>
      <trkpt lat="44.74616" lon="4.42088">
        <ele>666.49</ele>
        <time>2021-05-19T14:40:58.153Z</time>
      </trkpt>
      <trkpt lat="44.74624" lon="4.42102">
        <ele>669.77</ele>
        <time>2021-05-19T14:41:08.211Z</time>
      </trkpt>
      <trkpt lat="44.74633" lon="4.42114">
        <ele>670.7</ele>
        <time>2021-05-19T14:41:18.207Z</time>
      </trkpt>
      <trkpt lat="44.74642" lon="4.42125">
        <ele>671.31</ele>
        <time>2021-05-19T14:41:28.279Z</time>
      </trkpt>
      <trkpt lat="44.74649" lon="4.42133">
        <ele>671.08</ele>
        <time>2021-05-19T14:41:38.316Z</time>
      </trkpt>
      <trkpt lat="44.74653" lon="4.42132">
        <ele>671.5</ele>
        <time>2021-05-19T14:41:48.034Z</time>
      </trkpt>
      <trkpt lat="44.7466" lon="4.42134">
        <ele>672.44</ele>
        <time>2021-05-19T14:41:57.474Z</time>
      </trkpt>
      <trkpt lat="44.74672" lon="4.4214">
        <ele>674.63</ele>
        <time>2021-05-19T14:42:07.312Z</time>
      </trkpt>
      <trkpt lat="44.74685" lon="4.42146">
        <ele>677.14</ele>
        <time>2021-05-19T14:42:17.430Z</time>
      </trkpt>
      <trkpt lat="44.74694" lon="4.4215">
        <ele>678.37</ele>
        <time>2021-05-19T14:42:27.092Z</time>
      </trkpt>
      <trkpt lat="44.74704" lon="4.42156">
        <ele>679.83</ele>
        <time>2021-05-19T14:42:36.939Z</time>
      </trkpt>
      <trkpt lat="44.74713" lon="4.42159">
        <ele>682.39</ele>
        <time>2021-05-19T14:42:46.058Z</time>
      </trkpt>
      <trkpt lat="44.74721" lon="4.42161">
        <ele>683.68</ele>
        <time>2021-05-19T14:42:55.235Z</time>
      </trkpt>
      <trkpt lat="44.74731" lon="4.42166">
        <ele>685.79</ele>
        <time>2021-05-19T14:43:04.456Z</time>
      </trkpt>
      <trkpt lat="44.74742" lon="4.42169">
        <ele>684.03</ele>
        <time>2021-05-19T14:43:14.513Z</time>
      </trkpt>
      <trkpt lat="44.7475" lon="4.42171">
        <ele>687.77</ele>
        <time>2021-05-19T14:43:23.757Z</time>
      </trkpt>
      <trkpt lat="44.74759" lon="4.42176">
        <ele>689.08</ele>
        <time>2021-05-19T14:43:33.191Z</time>
      </trkpt>
      <trkpt lat="44.7477" lon="4.42181">
        <ele>690.04</ele>
        <time>2021-05-19T14:43:42.370Z</time>
      </trkpt>
      <trkpt lat="44.74783" lon="4.42183">
        <ele>692</ele>
        <time>2021-05-19T14:43:52.460Z</time>
      </trkpt>
      <trkpt lat="44.74796" lon="4.42185">
        <ele>694.4</ele>
        <time>2021-05-19T14:44:02.178Z</time>
      </trkpt>
      <trkpt lat="44.74807" lon="4.42189">
        <ele>694.89</ele>
        <time>2021-05-19T14:44:11.457Z</time>
      </trkpt>
      <trkpt lat="44.74818" lon="4.42193">
        <ele>697.57</ele>
        <time>2021-05-19T14:44:20.656Z</time>
      </trkpt>
      <trkpt lat="44.74828" lon="4.42198">
        <ele>697.92</ele>
        <time>2021-05-19T14:44:29.956Z</time>
      </trkpt>
      <trkpt lat="44.74837" lon="4.42206">
        <ele>699.15</ele>
        <time>2021-05-19T14:44:38.994Z</time>
      </trkpt>
      <trkpt lat="44.74848" lon="4.42214">
        <ele>700.77</ele>
        <time>2021-05-19T14:44:48.333Z</time>
      </trkpt>
      <trkpt lat="44.74858" lon="4.42219">
        <ele>703.14</ele>
        <time>2021-05-19T14:44:57.852Z</time>
      </trkpt>
      <trkpt lat="44.7487" lon="4.42225">
        <ele>703.88</ele>
        <time>2021-05-19T14:45:07.490Z</time>
      </trkpt>
      <trkpt lat="44.7488" lon="4.42238">
        <ele>705.01</ele>
        <time>2021-05-19T14:45:16.970Z</time>
      </trkpt>
      <trkpt lat="44.74888" lon="4.42256">
        <ele>706.41</ele>
        <time>2021-05-19T14:45:26.295Z</time>
      </trkpt>
      <trkpt lat="44.74896" lon="4.4227">
        <ele>708.59</ele>
        <time>2021-05-19T14:45:35.999Z</time>
      </trkpt>
      <trkpt lat="44.74901" lon="4.42282">
        <ele>708.67</ele>
        <time>2021-05-19T14:45:45.257Z</time>
      </trkpt>
      <trkpt lat="44.74907" lon="4.42297">
        <ele>710.4</ele>
        <time>2021-05-19T14:45:54.528Z</time>
      </trkpt>
      <trkpt lat="44.74913" lon="4.4231">
        <ele>711.9</ele>
        <time>2021-05-19T14:46:03.998Z</time>
      </trkpt>
      <trkpt lat="44.74919" lon="4.42323">
        <ele>713.55</ele>
        <time>2021-05-19T14:46:13.317Z</time>
      </trkpt>
      <trkpt lat="44.74925" lon="4.42338">
        <ele>716.34</ele>
        <time>2021-05-19T14:46:22.835Z</time>
      </trkpt>
      <trkpt lat="44.74931" lon="4.42353">
        <ele>718.49</ele>
        <time>2021-05-19T14:46:32.215Z</time>
      </trkpt>
      <trkpt lat="44.74939" lon="4.42367">
        <ele>719.93</ele>
        <time>2021-05-19T14:46:41.732Z</time>
      </trkpt>
      <trkpt lat="44.74944" lon="4.42356">
        <ele>721.58</ele>
        <time>2021-05-19T14:46:51.274Z</time>
      </trkpt>
      <trkpt lat="44.7494" lon="4.42337">
        <ele>723.14</ele>
        <time>2021-05-19T14:47:01.372Z</time>
      </trkpt>
      <trkpt lat="44.74943" lon="4.4232">
        <ele>721.22</ele>
        <time>2021-05-19T14:47:10.451Z</time>
      </trkpt>
      <trkpt lat="44.74949" lon="4.42306">
        <ele>726.09</ele>
        <time>2021-05-19T14:47:20.269Z</time>
      </trkpt>
      <trkpt lat="44.74952" lon="4.42288">
        <ele>725.74</ele>
        <time>2021-05-19T14:47:30.177Z</time>
      </trkpt>
      <trkpt lat="44.74953" lon="4.42271">
        <ele>730.05</ele>
        <time>2021-05-19T14:47:39.537Z</time>
      </trkpt>
      <trkpt lat="44.74951" lon="4.42253">
        <ele>733.72</ele>
        <time>2021-05-19T14:47:49.095Z</time>
      </trkpt>
      <trkpt lat="44.74949" lon="4.42236">
        <ele>735.42</ele>
        <time>2021-05-19T14:47:58.454Z</time>
      </trkpt>
      <trkpt lat="44.74952" lon="4.42217">
        <ele>737.18</ele>
        <time>2021-05-19T14:48:08.417Z</time>
      </trkpt>
      <trkpt lat="44.7496" lon="4.42205">
        <ele>739.41</ele>
        <time>2021-05-19T14:48:17.913Z</time>
      </trkpt>
      <trkpt lat="44.74963" lon="4.42187">
        <ele>741.88</ele>
        <time>2021-05-19T14:48:27.490Z</time>
      </trkpt>
      <trkpt lat="44.74965" lon="4.42172">
        <ele>743</ele>
        <time>2021-05-19T14:48:36.889Z</time>
      </trkpt>
      <trkpt lat="44.74964" lon="4.42158">
        <ele>746.74</ele>
        <time>2021-05-19T14:48:46.097Z</time>
      </trkpt>
      <trkpt lat="44.74964" lon="4.42146">
        <ele>747.25</ele>
        <time>2021-05-19T14:48:55.135Z</time>
      </trkpt>
      <trkpt lat="44.74963" lon="4.42131">
        <ele>749</ele>
        <time>2021-05-19T14:49:05.495Z</time>
      </trkpt>
      <trkpt lat="44.74967" lon="4.42132">
        <ele>750.57</ele>
        <time>2021-05-19T14:49:14.999Z</time>
      </trkpt>
      <trkpt lat="44.74975" lon="4.4214">
        <ele>752.59</ele>
        <time>2021-05-19T14:49:24.174Z</time>
      </trkpt>
      <trkpt lat="44.74982" lon="4.42147">
        <ele>753.91</ele>
        <time>2021-05-19T14:49:33.354Z</time>
      </trkpt>
      <trkpt lat="44.74995" lon="4.42159">
        <ele>754.7</ele>
        <time>2021-05-19T14:49:42.517Z</time>
      </trkpt>
      <trkpt lat="44.75002" lon="4.42176">
        <ele>757.84</ele>
        <time>2021-05-19T14:49:52.132Z</time>
      </trkpt>
      <trkpt lat="44.75001" lon="4.42191">
        <ele>758.58</ele>
        <time>2021-05-19T14:50:01.491Z</time>
      </trkpt>
      <trkpt lat="44.75001" lon="4.42205">
        <ele>760.41</ele>
        <time>2021-05-19T14:50:10.992Z</time>
      </trkpt>
      <trkpt lat="44.75003" lon="4.42219">
        <ele>762.43</ele>
        <time>2021-05-19T14:50:20.239Z</time>
      </trkpt>
      <trkpt lat="44.75004" lon="4.42234">
        <ele>764.14</ele>
        <time>2021-05-19T14:50:29.999Z</time>
      </trkpt>
      <trkpt lat="44.75009" lon="4.42246">
        <ele>765.34</ele>
        <time>2021-05-19T14:50:39.195Z</time>
      </trkpt>
      <trkpt lat="44.75015" lon="4.4226">
        <ele>766.04</ele>
        <time>2021-05-19T14:50:48.999Z</time>
      </trkpt>
      <trkpt lat="44.7502" lon="4.42272">
        <ele>768.26</ele>
        <time>2021-05-19T14:50:58.437Z</time>
      </trkpt>
      <trkpt lat="44.75027" lon="4.42288">
        <ele>769.53</ele>
        <time>2021-05-19T14:51:08.153Z</time>
      </trkpt>
      <trkpt lat="44.75031" lon="4.42302">
        <ele>771.84</ele>
        <time>2021-05-19T14:51:18.011Z</time>
      </trkpt>
      <trkpt lat="44.75036" lon="4.42312">
        <ele>771.52</ele>
        <time>2021-05-19T14:51:27.229Z</time>
      </trkpt>
      <trkpt lat="44.75041" lon="4.42322">
        <ele>773.69</ele>
        <time>2021-05-19T14:51:36.530Z</time>
      </trkpt>
      <trkpt lat="44.7505" lon="4.42333">
        <ele>775.59</ele>
        <time>2021-05-19T14:51:46.340Z</time>
      </trkpt>
      <trkpt lat="44.75059" lon="4.42342">
        <ele>779.05</ele>
        <time>2021-05-19T14:51:55.999Z</time>
      </trkpt>
      <trkpt lat="44.7506" lon="4.42344">
        <ele>779.95</ele>
        <time>2021-05-19T14:52:05.297Z</time>
      </trkpt>
      <trkpt lat="44.75059" lon="4.42342">
        <ele>780.19</ele>
        <time>2021-05-19T14:52:20.999Z</time>
      </trkpt>
      <trkpt lat="44.75059" lon="4.42332">
        <ele>781.09</ele>
        <time>2021-05-19T14:53:17.078Z</time>
      </trkpt>
      <trkpt lat="44.7507" lon="4.42351">
        <ele>783.11</ele>
        <time>2021-05-19T14:53:26.156Z</time>
      </trkpt>
      <trkpt lat="44.75081" lon="4.42369">
        <ele>785.66</ele>
        <time>2021-05-19T14:53:35.197Z</time>
      </trkpt>
      <trkpt lat="44.75088" lon="4.42384">
        <ele>786.99</ele>
        <time>2021-05-19T14:53:45.393Z</time>
      </trkpt>
      <trkpt lat="44.75097" lon="4.42394">
        <ele>789.42</ele>
        <time>2021-05-19T14:53:54.452Z</time>
      </trkpt>
      <trkpt lat="44.75105" lon="4.42405">
        <ele>791.3</ele>
        <time>2021-05-19T14:54:04.273Z</time>
      </trkpt>
      <trkpt lat="44.75114" lon="4.42412">
        <ele>790.99</ele>
        <time>2021-05-19T14:54:13.290Z</time>
      </trkpt>
      <trkpt lat="44.75122" lon="4.4242">
        <ele>793.68</ele>
        <time>2021-05-19T14:54:22.430Z</time>
      </trkpt>
      <trkpt lat="44.75132" lon="4.42429">
        <ele>794.6</ele>
        <time>2021-05-19T14:54:32.117Z</time>
      </trkpt>
      <trkpt lat="44.7514" lon="4.42435">
        <ele>795.74</ele>
        <time>2021-05-19T14:54:41.235Z</time>
      </trkpt>
      <trkpt lat="44.7515" lon="4.42439">
        <ele>799.98</ele>
        <time>2021-05-19T14:54:50.554Z</time>
      </trkpt>
      <trkpt lat="44.7516" lon="4.42445">
        <ele>799.38</ele>
        <time>2021-05-19T14:54:59.769Z</time>
      </trkpt>
      <trkpt lat="44.75171" lon="4.42449">
        <ele>801.16</ele>
        <time>2021-05-19T14:55:09.812Z</time>
      </trkpt>
      <trkpt lat="44.75183" lon="4.42452">
        <ele>803.35</ele>
        <time>2021-05-19T14:55:19.371Z</time>
      </trkpt>
      <trkpt lat="44.75194" lon="4.42454">
        <ele>805.18</ele>
        <time>2021-05-19T14:55:28.932Z</time>
      </trkpt>
      <trkpt lat="44.75204" lon="4.4246">
        <ele>806.46</ele>
        <time>2021-05-19T14:55:38.490Z</time>
      </trkpt>
      <trkpt lat="44.75211" lon="4.42468">
        <ele>806.92</ele>
        <time>2021-05-19T14:55:48.109Z</time>
      </trkpt>
      <trkpt lat="44.75219" lon="4.42481">
        <ele>808.2</ele>
        <time>2021-05-19T14:55:57.710Z</time>
      </trkpt>
      <trkpt lat="44.75227" lon="4.42491">
        <ele>810.05</ele>
        <time>2021-05-19T14:56:07.328Z</time>
      </trkpt>
      <trkpt lat="44.75235" lon="4.42505">
        <ele>811.45</ele>
        <time>2021-05-19T14:56:16.458Z</time>
      </trkpt>
      <trkpt lat="44.75243" lon="4.42518">
        <ele>812.95</ele>
        <time>2021-05-19T14:56:26.018Z</time>
      </trkpt>
      <trkpt lat="44.75251" lon="4.42532">
        <ele>816.16</ele>
        <time>2021-05-19T14:56:36.275Z</time>
      </trkpt>
      <trkpt lat="44.75258" lon="4.42543">
        <ele>818.49</ele>
        <time>2021-05-19T14:56:46.254Z</time>
      </trkpt>
      <trkpt lat="44.75266" lon="4.42552">
        <ele>821.35</ele>
        <time>2021-05-19T14:56:55.274Z</time>
      </trkpt>
      <trkpt lat="44.75267" lon="4.42563">
        <ele>822.11</ele>
        <time>2021-05-19T14:57:05.394Z</time>
      </trkpt>
      <trkpt lat="44.75267" lon="4.42577">
        <ele>823.23</ele>
        <time>2021-05-19T14:57:14.854Z</time>
      </trkpt>
      <trkpt lat="44.75272" lon="4.42595">
        <ele>823.62</ele>
        <time>2021-05-19T14:57:24.334Z</time>
      </trkpt>
      <trkpt lat="44.75274" lon="4.42611">
        <ele>824.28</ele>
        <time>2021-05-19T14:57:33.412Z</time>
      </trkpt>
      <trkpt lat="44.75273" lon="4.42624">
        <ele>823.82</ele>
        <time>2021-05-19T14:57:42.711Z</time>
      </trkpt>
      <trkpt lat="44.7527" lon="4.42632">
        <ele>823.93</ele>
        <time>2021-05-19T14:57:52.010Z</time>
      </trkpt>
      <trkpt lat="44.75264" lon="4.42637">
        <ele>822.6</ele>
        <time>2021-05-19T14:58:01.249Z</time>
      </trkpt>
      <trkpt lat="44.75258" lon="4.42642">
        <ele>822.4</ele>
        <time>2021-05-19T14:58:11.576Z</time>
      </trkpt>
      <trkpt lat="44.7525" lon="4.42639">
        <ele>820.62</ele>
        <time>2021-05-19T14:58:20.897Z</time>
      </trkpt>
      <trkpt lat="44.75239" lon="4.42632">
        <ele>819.9</ele>
        <time>2021-05-19T14:58:30.095Z</time>
      </trkpt>
      <trkpt lat="44.75229" lon="4.42629">
        <ele>821.04</ele>
        <time>2021-05-19T14:58:39.976Z</time>
      </trkpt>
      <trkpt lat="44.7522" lon="4.42622">
        <ele>819.41</ele>
        <time>2021-05-19T14:58:49.525Z</time>
      </trkpt>
      <trkpt lat="44.7521" lon="4.42618">
        <ele>821.2</ele>
        <time>2021-05-19T14:58:59.254Z</time>
      </trkpt>
      <trkpt lat="44.752" lon="4.42616">
        <ele>822.69</ele>
        <time>2021-05-19T14:59:08.491Z</time>
      </trkpt>
      <trkpt lat="44.75189" lon="4.42617">
        <ele>824.29</ele>
        <time>2021-05-19T14:59:17.723Z</time>
      </trkpt>
      <trkpt lat="44.75181" lon="4.42621">
        <ele>825.15</ele>
        <time>2021-05-19T14:59:27.351Z</time>
      </trkpt>
      <trkpt lat="44.75172" lon="4.42625">
        <ele>828.24</ele>
        <time>2021-05-19T14:59:37.000Z</time>
      </trkpt>
      <trkpt lat="44.75166" lon="4.42631">
        <ele>830.66</ele>
        <time>2021-05-19T14:59:46.132Z</time>
      </trkpt>
      <trkpt lat="44.75163" lon="4.42641">
        <ele>832.41</ele>
        <time>2021-05-19T14:59:55.409Z</time>
      </trkpt>
      <trkpt lat="44.75154" lon="4.42647">
        <ele>834.18</ele>
        <time>2021-05-19T15:00:04.689Z</time>
      </trkpt>
      <trkpt lat="44.75152" lon="4.42659">
        <ele>839.12</ele>
        <time>2021-05-19T15:00:14.458Z</time>
      </trkpt>
      <trkpt lat="44.7516" lon="4.42666">
        <ele>839.5</ele>
        <time>2021-05-19T15:00:24.097Z</time>
      </trkpt>
      <trkpt lat="44.75169" lon="4.42667">
        <ele>840.61</ele>
        <time>2021-05-19T15:00:33.134Z</time>
      </trkpt>
      <trkpt lat="44.75177" lon="4.42674">
        <ele>842.21</ele>
        <time>2021-05-19T15:00:42.456Z</time>
      </trkpt>
      <trkpt lat="44.75182" lon="4.42683">
        <ele>843.33</ele>
        <time>2021-05-19T15:00:51.933Z</time>
      </trkpt>
      <trkpt lat="44.75183" lon="4.42688">
        <ele>843.97</ele>
        <time>2021-05-19T15:01:01.372Z</time>
      </trkpt>
      <trkpt lat="44.75185" lon="4.42697">
        <ele>844.03</ele>
        <time>2021-05-19T15:01:11.392Z</time>
      </trkpt>
      <trkpt lat="44.75186" lon="4.42711">
        <ele>847.49</ele>
        <time>2021-05-19T15:01:20.850Z</time>
      </trkpt>
      <trkpt lat="44.75188" lon="4.42723">
        <ele>848.63</ele>
        <time>2021-05-19T15:01:30.000Z</time>
      </trkpt>
      <trkpt lat="44.75188" lon="4.4273">
        <ele>849.09</ele>
        <time>2021-05-19T15:01:39.338Z</time>
      </trkpt>
      <trkpt lat="44.75188" lon="4.42727">
        <ele>852.41</ele>
        <time>2021-05-19T15:03:04.000Z</time>
      </trkpt>
      <trkpt lat="44.75189" lon="4.42735">
        <ele>852.43</ele>
        <time>2021-05-19T15:03:13.554Z</time>
      </trkpt>
      <trkpt lat="44.75195" lon="4.42754">
        <ele>853.26</ele>
        <time>2021-05-19T15:03:23.194Z</time>
      </trkpt>
      <trkpt lat="44.75197" lon="4.4277">
        <ele>852.51</ele>
        <time>2021-05-19T15:03:33.214Z</time>
      </trkpt>
      <trkpt lat="44.75198" lon="4.42786">
        <ele>855.16</ele>
        <time>2021-05-19T15:03:43.134Z</time>
      </trkpt>
      <trkpt lat="44.752" lon="4.42802">
        <ele>856.51</ele>
        <time>2021-05-19T15:03:52.511Z</time>
      </trkpt>
      <trkpt lat="44.75201" lon="4.42815">
        <ele>857.55</ele>
        <time>2021-05-19T15:04:01.773Z</time>
      </trkpt>
      <trkpt lat="44.75203" lon="4.42818">
        <ele>857.17</ele>
        <time>2021-05-19T15:04:11.000Z</time>
      </trkpt>
      <trkpt lat="44.75204" lon="4.42816">
        <ele>858.26</ele>
        <time>2021-05-19T15:04:20.139Z</time>
      </trkpt>
      <trkpt lat="44.7521" lon="4.42834">
        <ele>858.81</ele>
        <time>2021-05-19T15:04:30.457Z</time>
      </trkpt>
      <trkpt lat="44.75218" lon="4.42844">
        <ele>859.83</ele>
        <time>2021-05-19T15:04:39.474Z</time>
      </trkpt>
      <trkpt lat="44.75225" lon="4.42855">
        <ele>861.24</ele>
        <time>2021-05-19T15:04:49.294Z</time>
      </trkpt>
      <trkpt lat="44.75229" lon="4.42863">
        <ele>861.88</ele>
        <time>2021-05-19T15:04:58.374Z</time>
      </trkpt>
      <trkpt lat="44.75234" lon="4.4287">
        <ele>863.63</ele>
        <time>2021-05-19T15:05:07.534Z</time>
      </trkpt>
      <trkpt lat="44.75238" lon="4.42881">
        <ele>864.53</ele>
        <time>2021-05-19T15:05:17.352Z</time>
      </trkpt>
      <trkpt lat="44.75243" lon="4.42892">
        <ele>865.87</ele>
        <time>2021-05-19T15:05:26.888Z</time>
      </trkpt>
      <trkpt lat="44.75245" lon="4.42901">
        <ele>865.36</ele>
        <time>2021-05-19T15:05:35.999Z</time>
      </trkpt>
      <trkpt lat="44.75244" lon="4.42902">
        <ele>866.71</ele>
        <time>2021-05-19T15:05:53.917Z</time>
      </trkpt>
      <trkpt lat="44.75238" lon="4.42915">
        <ele>867.77</ele>
        <time>2021-05-19T15:06:03.457Z</time>
      </trkpt>
      <trkpt lat="44.75229" lon="4.42926">
        <ele>868.69</ele>
        <time>2021-05-19T15:06:12.493Z</time>
      </trkpt>
      <trkpt lat="44.75219" lon="4.42935">
        <ele>869.98</ele>
        <time>2021-05-19T15:06:21.992Z</time>
      </trkpt>
      <trkpt lat="44.75217" lon="4.4295">
        <ele>870.77</ele>
        <time>2021-05-19T15:06:31.392Z</time>
      </trkpt>
      <trkpt lat="44.75213" lon="4.42965">
        <ele>870.43</ele>
        <time>2021-05-19T15:06:40.890Z</time>
      </trkpt>
      <trkpt lat="44.7521" lon="4.42981">
        <ele>871.07</ele>
        <time>2021-05-19T15:06:50.530Z</time>
      </trkpt>
      <trkpt lat="44.75209" lon="4.42997">
        <ele>871.79</ele>
        <time>2021-05-19T15:06:59.777Z</time>
      </trkpt>
      <trkpt lat="44.7521" lon="4.43012">
        <ele>871.02</ele>
        <time>2021-05-19T15:07:08.999Z</time>
      </trkpt>
      <trkpt lat="44.75214" lon="4.43026">
        <ele>873.85</ele>
        <time>2021-05-19T15:07:18.179Z</time>
      </trkpt>
      <trkpt lat="44.75219" lon="4.43042">
        <ele>874.78</ele>
        <time>2021-05-19T15:07:27.195Z</time>
      </trkpt>
      <trkpt lat="44.75226" lon="4.43056">
        <ele>876.61</ele>
        <time>2021-05-19T15:07:36.813Z</time>
      </trkpt>
      <trkpt lat="44.75231" lon="4.43071">
        <ele>873.72</ele>
        <time>2021-05-19T15:07:46.551Z</time>
      </trkpt>
      <trkpt lat="44.75238" lon="4.43086">
        <ele>874.97</ele>
        <time>2021-05-19T15:07:56.094Z</time>
      </trkpt>
      <trkpt lat="44.7525" lon="4.43097">
        <ele>875.39</ele>
        <time>2021-05-19T15:08:06.090Z</time>
      </trkpt>
      <trkpt lat="44.75261" lon="4.43107">
        <ele>876.41</ele>
        <time>2021-05-19T15:08:15.159Z</time>
      </trkpt>
      <trkpt lat="44.75273" lon="4.43118">
        <ele>878.62</ele>
        <time>2021-05-19T15:08:24.208Z</time>
      </trkpt>
      <trkpt lat="44.75283" lon="4.43128">
        <ele>879.03</ele>
        <time>2021-05-19T15:08:33.337Z</time>
      </trkpt>
      <trkpt lat="44.75295" lon="4.43138">
        <ele>880.3</ele>
        <time>2021-05-19T15:08:43.217Z</time>
      </trkpt>
      <trkpt lat="44.75305" lon="4.43152">
        <ele>882.13</ele>
        <time>2021-05-19T15:08:53.137Z</time>
      </trkpt>
      <trkpt lat="44.75313" lon="4.43162">
        <ele>883.91</ele>
        <time>2021-05-19T15:09:03.136Z</time>
      </trkpt>
      <trkpt lat="44.7532" lon="4.43174">
        <ele>884.3</ele>
        <time>2021-05-19T15:09:12.195Z</time>
      </trkpt>
      <trkpt lat="44.7533" lon="4.4318">
        <ele>885.45</ele>
        <time>2021-05-19T15:09:21.274Z</time>
      </trkpt>
      <trkpt lat="44.75339" lon="4.43169">
        <ele>885.37</ele>
        <time>2021-05-19T15:09:31.434Z</time>
      </trkpt>
      <trkpt lat="44.75336" lon="4.43152">
        <ele>885.82</ele>
        <time>2021-05-19T15:09:40.892Z</time>
      </trkpt>
      <trkpt lat="44.75337" lon="4.43135">
        <ele>887.13</ele>
        <time>2021-05-19T15:09:49.930Z</time>
      </trkpt>
      <trkpt lat="44.75343" lon="4.4312">
        <ele>889.28</ele>
        <time>2021-05-19T15:09:58.959Z</time>
      </trkpt>
      <trkpt lat="44.75353" lon="4.4311">
        <ele>889</ele>
        <time>2021-05-19T15:10:08.037Z</time>
      </trkpt>
      <trkpt lat="44.75365" lon="4.43102">
        <ele>893.98</ele>
        <time>2021-05-19T15:10:17.545Z</time>
      </trkpt>
      <trkpt lat="44.75373" lon="4.43088">
        <ele>893.28</ele>
        <time>2021-05-19T15:10:27.394Z</time>
      </trkpt>
      <trkpt lat="44.75382" lon="4.43075">
        <ele>892.8</ele>
        <time>2021-05-19T15:10:36.763Z</time>
      </trkpt>
      <trkpt lat="44.75392" lon="4.43064">
        <ele>893.78</ele>
        <time>2021-05-19T15:10:46.213Z</time>
      </trkpt>
      <trkpt lat="44.75404" lon="4.43063">
        <ele>894.62</ele>
        <time>2021-05-19T15:10:55.332Z</time>
      </trkpt>
      <trkpt lat="44.75411" lon="4.4308">
        <ele>896.7</ele>
        <time>2021-05-19T15:11:04.977Z</time>
      </trkpt>
      <trkpt lat="44.75412" lon="4.43098">
        <ele>897.42</ele>
        <time>2021-05-19T15:11:14.492Z</time>
      </trkpt>
      <trkpt lat="44.75412" lon="4.43116">
        <ele>899.3</ele>
        <time>2021-05-19T15:11:23.751Z</time>
      </trkpt>
      <trkpt lat="44.75417" lon="4.43132">
        <ele>901.75</ele>
        <time>2021-05-19T15:11:33.030Z</time>
      </trkpt>
      <trkpt lat="44.75427" lon="4.43145">
        <ele>901.1</ele>
        <time>2021-05-19T15:11:42.817Z</time>
      </trkpt>
      <trkpt lat="44.75435" lon="4.43157">
        <ele>901.56</ele>
        <time>2021-05-19T15:11:51.999Z</time>
      </trkpt>
      <trkpt lat="44.75445" lon="4.43167">
        <ele>902.46</ele>
        <time>2021-05-19T15:12:01.156Z</time>
      </trkpt>
      <trkpt lat="44.75456" lon="4.43177">
        <ele>903</ele>
        <time>2021-05-19T15:12:11.117Z</time>
      </trkpt>
      <trkpt lat="44.75466" lon="4.43189">
        <ele>904.11</ele>
        <time>2021-05-19T15:12:20.195Z</time>
      </trkpt>
      <trkpt lat="44.75477" lon="4.43202">
        <ele>905.03</ele>
        <time>2021-05-19T15:12:29.779Z</time>
      </trkpt>
      <trkpt lat="44.75487" lon="4.43215">
        <ele>905.56</ele>
        <time>2021-05-19T15:12:39.055Z</time>
      </trkpt>
      <trkpt lat="44.75493" lon="4.43229">
        <ele>903.38</ele>
        <time>2021-05-19T15:12:48.373Z</time>
      </trkpt>
      <trkpt lat="44.75501" lon="4.43246">
        <ele>904.45</ele>
        <time>2021-05-19T15:12:57.873Z</time>
      </trkpt>
      <trkpt lat="44.75507" lon="4.43266">
        <ele>905.48</ele>
        <time>2021-05-19T15:13:07.212Z</time>
      </trkpt>
      <trkpt lat="44.75513" lon="4.43282">
        <ele>906.32</ele>
        <time>2021-05-19T15:13:16.532Z</time>
      </trkpt>
      <trkpt lat="44.7552" lon="4.43303">
        <ele>906.82</ele>
        <time>2021-05-19T15:13:26.177Z</time>
      </trkpt>
      <trkpt lat="44.75528" lon="4.4332">
        <ele>907.22</ele>
        <time>2021-05-19T15:13:35.709Z</time>
      </trkpt>
      <trkpt lat="44.75537" lon="4.43336">
        <ele>907.33</ele>
        <time>2021-05-19T15:13:44.830Z</time>
      </trkpt>
      <trkpt lat="44.75545" lon="4.43354">
        <ele>908.54</ele>
        <time>2021-05-19T15:13:54.096Z</time>
      </trkpt>
      <trkpt lat="44.75552" lon="4.43368">
        <ele>909.24</ele>
        <time>2021-05-19T15:14:03.475Z</time>
      </trkpt>
      <trkpt lat="44.75561" lon="4.43383">
        <ele>910.22</ele>
        <time>2021-05-19T15:14:12.856Z</time>
      </trkpt>
      <trkpt lat="44.7557" lon="4.43397">
        <ele>911.3</ele>
        <time>2021-05-19T15:14:22.253Z</time>
      </trkpt>
      <trkpt lat="44.75578" lon="4.43414">
        <ele>911.02</ele>
        <time>2021-05-19T15:14:31.999Z</time>
      </trkpt>
      <trkpt lat="44.75584" lon="4.43429">
        <ele>910.13</ele>
        <time>2021-05-19T15:14:41.171Z</time>
      </trkpt>
      <trkpt lat="44.75587" lon="4.43433">
        <ele>907.51</ele>
        <time>2021-05-19T15:14:50.270Z</time>
      </trkpt>
      <trkpt lat="44.75596" lon="4.43435">
        <ele>910.95</ele>
        <time>2021-05-19T15:15:00.400Z</time>
      </trkpt>
      <trkpt lat="44.75602" lon="4.43439">
        <ele>913.66</ele>
        <time>2021-05-19T15:15:10.000Z</time>
      </trkpt>
      <trkpt lat="44.75608" lon="4.43445">
        <ele>914.99</ele>
        <time>2021-05-19T15:15:19.296Z</time>
      </trkpt>
      <trkpt lat="44.75611" lon="4.43453">
        <ele>914.21</ele>
        <time>2021-05-19T15:15:28.394Z</time>
      </trkpt>
      <trkpt lat="44.7561" lon="4.4347">
        <ele>915.04</ele>
        <time>2021-05-19T15:15:37.993Z</time>
      </trkpt>
      <trkpt lat="44.75604" lon="4.43488">
        <ele>915.29</ele>
        <time>2021-05-19T15:15:47.551Z</time>
      </trkpt>
      <trkpt lat="44.75601" lon="4.43503">
        <ele>916.56</ele>
        <time>2021-05-19T15:15:57.000Z</time>
      </trkpt>
      <trkpt lat="44.75605" lon="4.43515">
        <ele>915.99</ele>
        <time>2021-05-19T15:16:07.389Z</time>
      </trkpt>
      <trkpt lat="44.75602" lon="4.43527">
        <ele>919.53</ele>
        <time>2021-05-19T15:16:17.000Z</time>
      </trkpt>
      <trkpt lat="44.75602" lon="4.43526">
        <ele>919.38</ele>
        <time>2021-05-19T15:16:34.000Z</time>
      </trkpt>
    </trkseg>
  </trk>
</gpx>